[[{"header":{"parameterUnit":"m.s-1","parameterCategory":1,"la1":30.6,"la2":29.2853,"lo1":-89.7004,"lo2":-87.6739,"dy":0.0162,"dx":0.0183,"nx":112,"ny":82,"refTime":"2023-03-01T06:00:00:Z","depth":0,"parameterNumber":2,"parameterNumberName":"U-component_of_WINDS"},"data":[0.0,0.0,0.0,0.0,0.0,0.0,0.0,0.0,0.0,0.0,0.0,0.0,0.0,0.0,0.0,0.0,0.0,0.0,0.0,0.0,0.0,0.0,0.0,0.0,0.0,0.0,0.0,0.0,0.0,0.0,0.0,0.0,0.0,0.0,0.0,0.0,0.0,0.0,0.0,0.0,0.0,0.0,0.0,0.0,0.0,0.0,0.0,0.0,0.0,0.0,0.0,0.0,0.0,0.0,0.0,0.0,0.0,0.0,0.0,0.0,0.0,0.0,0.0,0.0,0.0,0.0,0.0,0.0,0.0,0.0,0.0,0.0,0.0,0.0,0.0,0.0,0.0,0.0,0.0,0.0,0.0,0.0,0.0,0.0,0.0,0.0,0.0,0.0,0.0,0.0,-1.494,-1.4972,-1.5274,-1.4886,-1.3431,-1.319,-1.214,-0.9738,0.0,0.0,0.0,0.0,0.0,0.0,0.0,0.0,0.0,0.0,0.0,0.0,0.0,0.0,0.0,0.0,0.0,0.0,0.0,0.0,0.0,0.0,0.0,0.0,0.0,0.0,0.0,0.0,0.0,0.0,0.0,0.0,0.0,0.0,0.0,0.0,0.0,0.0,0.0,0.0,0.0,0.0,0.0,0.0,0.0,0.0,0.0,0.0,0.0,0.0,0.0,0.0,0.0,0.0,0.0,0.0,0.0,0.0,0.0,0.0,0.0,0.0,0.0,0.0,0.0,0.0,0.0,0.0,0.0,0.0,0.0,0.0,0.0,0.0,0.0,0.0,0.0,0.0,0.0,0.0,0.0,0.0,0.0,0.0,0.0,0.0,0.0,0.0,0.0,0.0,0.0,0.0,0.0,0.0,0.0,0.0,0.0,0.0,0.0,0.0,0.0,0.0,0.0,0.0,-1.5261,-1.6128,-1.5936,-1.5308,-1.4294,-1.3648,-1.2326,-1.0149,0.0,0.0,0.0,0.0,0.0,0.0,0.0,0.0,0.0,0.0,0.0,0.0,0.0,0.0,0.0,0.0,0.0,0.0,0.0,0.0,0.0,0.0,0.0,0.0,0.0,0.0,0.0,0.0,0.0,0.0,0.0,0.0,0.0,0.0,0.0,0.0,0.0,0.0,0.0,0.0,0.0,0.0,0.0,0.0,0.0,0.0,0.0,0.0,0.0,0.0,0.0,0.0,0.0,0.0,0.0,0.0,0.0,0.0,0.0,0.0,0.0,0.0,0.0,0.0,0.0,0.0,0.0,0.0,0.0,0.0,0.0,0.0,0.0,0.0,0.0,0.0,0.0,0.0,0.0,0.0,0.0,0.0,0.0,0.0,0.0,0.0,0.0,0.0,0.0,0.0,0.0,0.0,0.0,0.0,0.0,0.0,0.0,0.0,0.0,0.0,0.0,0.0,0.0,-1.5522,-1.6074,-1.6766,-1.6102,-1.5254,-1.4308,-1.3427,-1.2104,-1.0172,-0.9931,0.0,0.0,0.0,0.0,0.0,0.0,0.0,0.0,0.0,0.0,0.0,0.0,0.0,0.0,0.0,0.0,0.0,0.0,0.0,0.0,0.0,0.0,0.0,0.0,0.0,0.0,0.0,0.0,0.0,0.0,0.0,0.0,0.0,0.0,0.0,0.0,0.0,0.0,0.0,0.0,0.0,0.0,0.0,0.0,0.0,0.0,0.0,0.0,0.0,0.0,0.0,0.0,0.0,0.0,0.0,0.0,0.0,0.0,0.0,0.0,0.0,0.0,0.0,0.0,0.0,0.0,0.0,0.0,0.0,0.0,0.0,0.0,0.0,0.0,0.0,0.0,0.0,0.0,0.0,0.0,0.0,0.0,0.0,0.0,0.0,0.0,0.0,0.0,0.0,0.0,0.0,0.0,0.0,0.0,0.0,0.0,0.0,0.0,0.0,0.0,0.0,0.0,-1.6314,-1.6938,-1.7053,-1.6142,-1.522,-1.454,-1.3368,-1.2006,-1.039,-1.0117,0.0,0.0,0.0,0.0,0.0,0.0,0.0,0.0,0.0,0.0,0.0,0.0,0.0,0.0,0.0,0.0,0.0,0.0,0.0,0.0,0.0,0.0,0.0,0.0,0.0,0.0,0.0,0.0,0.0,0.0,0.0,0.0,0.0,0.0,0.0,0.0,0.0,0.0,0.0,0.0,0.0,0.0,0.0,0.0,0.0,0.0,0.0,0.0,0.0,0.0,0.0,0.0,0.0,0.0,0.0,0.0,0.0,0.0,0.0,0.0,0.0,0.0,0.0,0.0,0.0,0.0,0.0,0.0,0.0,0.0,0.0,0.0,0.0,0.0,0.0,0.0,0.0,0.0,0.0,0.0,0.0,0.0,0.0,0.0,0.0,0.0,0.0,0.0,0.0,0.0,0.0,0.0,0.0,0.0,0.0,0.0,0.0,0.0,0.0,0.0,0.0,0.0,-1.6716,-1.7551,-1.706,-1.6103,-1.5513,-1.5562,-1.3928,-1.2372,-1.1204,-1.031,0.0,0.0,0.0,0.0,0.0,0.0,0.0,0.0,0.0,0.0,0.0,0.0,0.0,0.0,0.0,0.0,0.0,0.0,0.0,0.0,0.0,0.0,0.0,0.0,0.0,0.0,0.0,0.0,0.0,0.0,0.0,0.0,0.0,0.0,0.0,0.0,0.0,0.0,0.0,0.0,0.0,0.0,0.0,0.0,0.0,0.0,0.0,0.0,0.0,0.0,0.0,0.0,0.0,0.0,0.0,0.0,0.0,0.0,0.0,0.0,0.0,0.0,0.0,0.0,0.0,0.0,0.0,0.0,0.0,0.0,0.0,0.0,0.0,0.0,0.0,0.0,0.0,0.0,0.0,0.0,0.0,0.0,0.0,0.0,0.0,0.0,0.0,0.0,0.0,0.0,0.0,0.0,0.0,0.0,0.0,0.0,0.0,0.0,0.0,0.0,0.0,0.0,-1.7242,-1.8165,-1.8461,-1.6917,-1.5957,-1.6181,-1.4281,-1.2411,-1.0848,0.0,0.0,0.0,0.0,0.0,0.0,0.0,0.0,0.0,0.0,0.0,0.0,0.0,0.0,0.0,0.0,0.0,0.0,0.0,0.0,0.0,0.0,0.0,0.0,0.0,0.0,0.0,0.0,0.0,0.0,0.0,0.0,0.0,0.0,0.0,0.0,0.0,0.0,0.0,0.0,0.0,0.0,0.0,0.0,0.0,0.0,0.0,0.0,0.0,0.0,0.0,0.0,0.0,0.0,0.0,0.0,0.0,0.0,0.0,0.0,0.0,0.0,0.0,0.0,0.0,0.0,0.0,0.0,0.0,0.0,0.0,0.0,0.0,0.0,0.0,0.0,0.0,0.0,0.0,0.0,0.0,0.0,0.0,0.0,0.0,0.0,0.0,0.0,0.0,0.0,0.0,0.0,0.0,0.0,0.0,0.0,0.0,0.0,0.0,0.0,0.0,0.0,-1.6431,-1.7311,-1.8049,-1.842,-1.6701,-1.5581,-1.5759,-1.4087,-1.2319,-1.0692,0.0,0.0,0.0,0.0,0.0,0.0,0.0,0.0,0.0,0.0,0.0,0.0,0.0,0.0,0.0,0.0,0.0,0.0,0.0,0.0,0.0,0.0,0.0,0.0,0.0,0.0,0.0,0.0,0.0,0.0,0.0,0.0,0.0,0.0,0.0,0.0,0.0,0.0,0.0,0.0,0.0,0.0,0.0,0.0,0.0,0.0,0.0,0.0,0.0,0.0,0.0,0.0,0.0,0.0,0.0,0.0,0.0,0.0,0.0,0.0,0.0,0.0,0.0,0.0,0.0,0.0,0.0,0.0,0.0,0.0,0.0,0.0,0.0,0.0,0.0,0.0,0.0,0.0,0.0,0.0,0.0,0.0,0.0,0.0,0.0,0.0,0.0,0.0,0.0,0.0,0.0,0.0,0.0,0.0,0.0,0.0,0.0,0.0,0.0,0.0,0.0,0.0,-1.6244,-1.6838,-1.7074,-1.6473,-1.5089,-1.4217,-1.4217,-1.3219,-1.2087,0.0,0.0,0.0,0.0,0.0,0.0,0.0,0.0,0.0,0.0,0.0,0.0,0.0,0.0,0.0,0.0,0.0,0.0,0.0,0.0,0.0,0.0,0.0,0.0,0.0,0.0,0.0,0.0,0.0,0.0,0.0,0.0,0.0,0.0,0.0,0.0,0.0,0.0,0.0,0.0,0.0,0.0,0.0,0.0,0.0,0.0,0.0,0.0,0.0,0.0,0.0,0.0,0.0,0.0,0.0,0.0,0.0,0.0,0.0,0.0,0.0,0.0,0.0,0.0,0.0,0.0,0.0,0.0,0.0,0.0,0.0,0.0,0.0,0.0,0.0,0.0,0.0,0.0,0.0,0.0,0.0,0.0,0.0,0.0,0.0,0.0,0.0,0.0,0.0,0.0,0.0,0.0,0.0,0.0,0.0,0.0,0.0,0.0,0.0,0.0,0.0,0.0,0.0,-1.6612,-1.6583,-1.6607,-1.6867,-1.5122,-1.3987,-1.4192,-1.3165,-1.1958,-1.0602,0.0,0.0,0.0,0.0,0.0,0.0,0.0,0.0,0.0,0.0,0.0,0.0,0.0,0.0,0.0,0.0,0.0,0.0,0.0,0.0,0.0,0.0,0.0,0.0,0.0,0.0,0.0,0.0,0.0,0.0,0.0,0.0,0.0,0.0,0.0,0.0,0.0,0.0,0.0,0.0,0.0,0.0,0.0,0.0,0.0,0.0,0.0,0.0,0.0,0.0,0.0,0.0,0.0,0.0,0.0,0.0,0.0,0.0,0.0,0.0,0.0,0.0,0.0,0.0,0.0,0.0,0.0,0.0,0.0,0.0,0.0,0.0,0.0,0.0,0.0,0.0,0.0,0.0,0.0,0.0,0.0,0.0,0.0,0.0,0.0,0.0,0.0,0.0,0.0,0.0,0.0,0.0,0.0,0.0,0.0,0.0,0.0,0.0,0.0,0.0,0.0,0.0,-1.6448,-1.6334,-1.6192,-1.617,-1.4645,-1.3522,-1.3302,-1.2646,-1.1788,-1.0701,0.0,0.0,0.0,0.0,0.0,0.0,0.0,0.0,0.0,0.0,0.0,0.0,0.0,0.0,0.0,0.0,0.0,0.0,0.0,0.0,0.0,0.0,0.0,0.0,0.0,0.0,0.0,0.0,0.0,0.0,0.0,0.0,0.0,0.0,0.0,0.0,0.0,0.0,0.0,0.0,0.0,0.0,0.0,0.0,0.0,0.0,0.0,0.0,0.0,0.0,0.0,0.0,0.0,0.0,0.0,0.0,0.0,0.0,0.0,0.0,0.0,0.0,0.0,0.0,0.0,0.0,0.0,0.0,0.0,0.0,0.0,0.0,0.0,0.0,0.0,0.0,0.0,0.0,0.0,0.0,0.0,0.0,0.0,0.0,0.0,0.0,0.0,0.0,0.0,0.0,0.0,0.0,0.0,0.0,0.0,0.0,0.0,0.0,0.0,0.0,0.0,0.0,-1.592,-1.6072,-1.5813,-1.4913,-1.3911,-1.2931,-1.2025,-1.1941,-1.1693,-1.1086,0.0,0.0,0.0,0.0,0.0,0.0,0.0,0.0,0.0,0.0,0.0,0.0,0.0,0.0,0.0,0.0,0.0,0.0,0.0,0.0,0.0,0.0,0.0,0.0,0.0,0.0,0.0,0.0,0.0,0.0,0.0,0.0,0.0,0.0,0.0,0.0,0.0,0.0,0.0,0.0,0.0,0.0,0.0,0.0,0.0,0.0,0.0,0.0,0.0,0.0,0.0,0.0,0.0,0.0,0.0,0.0,0.0,0.0,0.0,0.0,-1.3965,-1.3342,0.0,0.0,0.0,0.0,0.0,0.0,0.0,0.0,0.0,0.0,0.0,0.0,0.0,0.0,0.0,0.0,0.0,0.0,0.0,0.0,0.0,0.0,0.0,0.0,0.0,0.0,0.0,0.0,0.0,0.0,0.0,0.0,0.0,0.0,0.0,0.0,0.0,0.0,0.0,0.0,-1.5412,-1.552,-1.5478,-1.4996,-1.3947,-1.3013,-1.2276,-1.222,-1.1997,-1.1494,-1.0915,0.0,0.0,0.0,0.0,0.0,0.0,0.0,0.0,0.0,0.0,0.0,0.0,0.0,0.0,0.0,0.0,0.0,0.0,0.0,0.0,0.0,0.0,0.0,0.0,0.0,0.0,0.0,0.0,0.0,0.0,0.0,0.0,0.0,0.0,0.0,0.0,0.0,0.0,0.0,0.0,0.0,0.0,0.0,0.0,0.0,0.0,0.0,0.0,0.0,0.0,0.0,0.0,0.0,0.0,0.0,0.0,0.0,0.0,0.0,-1.4287,-1.3715,0.0,0.0,0.0,0.0,0.0,0.0,0.0,0.0,0.0,0.0,0.0,0.0,0.0,0.0,0.0,0.0,0.0,0.0,0.0,0.0,0.0,0.0,0.0,0.0,0.0,0.0,0.0,0.0,0.0,0.0,0.0,0.0,0.0,0.0,0.0,0.0,0.0,0.0,0.0,0.0,-1.5433,-1.5945,-1.614,-1.5503,-1.461,-1.3742,-1.2928,-1.2597,-1.234,-1.2102,-1.1352,0.0,0.0,0.0,0.0,0.0,0.0,0.0,0.0,0.0,0.0,0.0,0.0,0.0,0.0,0.0,0.0,0.0,0.0,0.0,0.0,0.0,0.0,0.0,0.0,0.0,0.0,0.0,0.0,0.0,0.0,0.0,0.0,0.0,0.0,0.0,0.0,0.0,0.0,0.0,0.0,0.0,0.0,0.0,0.0,0.0,0.0,0.0,0.0,0.0,0.0,0.0,0.0,0.0,-1.6699,-1.658,-1.6501,-1.6079,-1.5834,-1.5741,-1.4782,-1.4315,-1.4195,-1.3784,0.0,0.0,0.0,0.0,0.0,0.0,0.0,0.0,0.0,0.0,0.0,0.0,0.0,0.0,0.0,0.0,0.0,0.0,0.0,0.0,0.0,0.0,-1.4545,-1.4787,-1.4959,-1.5028,-1.4868,0.0,0.0,0.0,0.0,0.0,0.0,0.0,0.0,0.0,0.0,0.0,-1.5405,-1.6293,-1.6567,-1.5667,-1.5013,-1.4223,-1.3258,-1.2856,-1.2582,-1.2475,-1.1701,-1.1216,0.0,0.0,0.0,0.0,0.0,0.0,0.0,0.0,0.0,0.0,0.0,0.0,0.0,0.0,0.0,0.0,0.0,0.0,0.0,0.0,0.0,0.0,0.0,0.0,0.0,0.0,0.0,0.0,0.0,0.0,0.0,0.0,-1.7134,-1.6827,0.0,0.0,0.0,0.0,0.0,0.0,0.0,0.0,0.0,0.0,0.0,0.0,0.0,-1.6579,-1.6771,-1.7179,-1.7444,-1.7575,-1.8114,-1.8156,-1.7747,-1.7687,-1.7094,-1.6102,-1.5682,0.0,-1.4654,-1.4222,0.0,0.0,0.0,0.0,0.0,0.0,0.0,0.0,0.0,0.0,0.0,0.0,0.0,0.0,0.0,0.0,0.0,0.0,0.0,0.0,0.0,0.0,-1.4509,-1.4538,-1.4546,-1.4584,-1.4557,-1.4731,-1.4893,-1.4831,-1.4857,-1.4713,0.0,0.0,0.0,0.0,0.0,0.0,-1.4629,-1.5036,-1.5123,-1.4402,-1.3794,-1.3014,-1.2016,-1.2468,-1.2521,-1.1934,-1.2227,-1.1904,-1.0796,-1.0621,0.0,0.0,0.0,0.0,0.0,0.0,0.0,0.0,0.0,0.0,0.0,0.0,0.0,0.0,0.0,0.0,0.0,0.0,0.0,0.0,0.0,0.0,0.0,0.0,0.0,0.0,0.0,0.0,0.0,-1.6509,-1.6458,-1.6135,-1.5859,-1.5584,0.0,0.0,0.0,0.0,0.0,0.0,0.0,0.0,0.0,-1.7508,-1.7422,-1.7528,-1.7852,-1.8076,-1.821,-1.8268,-1.8539,-1.8373,-1.776,-1.7647,-1.7068,-1.6173,-1.5693,-1.5368,-1.5128,-1.426,-1.3719,-1.3484,0.0,0.0,0.0,0.0,-1.2815,-1.2789,-1.3118,-1.3074,-1.287,-1.288,0.0,0.0,0.0,0.0,0.0,0.0,0.0,-1.3478,-1.3726,-1.3964,-1.4165,-1.4444,-1.4499,-1.4499,-1.4499,-1.46,-1.4682,-1.4688,-1.4673,-1.4582,-1.4235,-1.4511,0.0,0.0,0.0,-1.5415,-1.5107,-1.5571,-1.5677,-1.4917,-1.435,-1.3679,-1.2778,-1.27,-1.2521,-1.212,-1.2305,-1.2151,-1.1494,-1.09,-0.9948,0.0,0.0,0.0,0.0,0.0,0.0,0.0,0.0,0.0,0.0,0.0,0.0,0.0,0.0,0.0,0.0,0.0,0.0,0.0,0.0,0.0,0.0,0.0,0.0,0.0,0.0,0.0,0.0,-1.6117,-1.6165,-1.5858,-1.5825,-1.5706,0.0,0.0,0.0,0.0,0.0,0.0,-1.7093,-1.7334,-1.7722,-1.8262,-1.8313,-1.8437,-1.8758,-1.8868,-1.8903,-1.8781,-1.8881,-1.8645,-1.8113,-1.7967,-1.7471,-1.6767,-1.6006,-1.5677,-1.5525,-1.4451,-1.4003,-1.3993,-1.3429,-1.3198,-1.3124,-1.3021,-1.298,-1.3032,-1.3254,-1.3181,-1.3014,-1.3212,-1.3185,-1.3095,-1.3364,0.0,0.0,0.0,0.0,-1.3543,-1.3879,-1.3987,-1.4118,-1.4484,-1.4538,-1.4538,-1.4538,-1.4526,-1.4506,-1.4496,-1.4493,-1.4417,-1.407,-1.4479,0.0,-1.431,-1.4968,-1.5491,-1.5502,-1.5797,-1.577,-1.5052,-1.4538,-1.3933,-1.3117,-1.281,-1.2521,-1.2182,-1.2305,-1.2274,-1.212,-1.1346,-1.0422,-0.9446,0.0,0.0,0.0,0.0,0.0,0.0,0.0,0.0,0.0,0.0,0.0,0.0,0.0,0.0,0.0,0.0,0.0,0.0,0.0,0.0,0.0,0.0,0.0,0.0,0.0,0.0,0.0,0.0,0.0,-1.6682,-1.7081,0.0,0.0,0.0,0.0,-1.7197,-1.724,-1.7481,-1.7912,-1.7955,-1.8262,-1.8933,-1.9067,-1.9067,-1.8879,-1.932,-1.9385,-1.9061,-1.9382,-1.953,-1.9498,-1.9498,-1.9081,-1.8328,-1.7192,-1.6453,-1.5931,-1.5064,-1.4513,-1.4202,-1.4292,-1.4017,-1.3636,-1.4118,-1.4132,-1.3901,-1.4355,-1.4311,-1.4015,-1.3827,-1.363,-1.3545,-1.4012,-1.3873,0.0,0.0,-1.4007,-1.417,-1.434,-1.4524,-1.4672,-1.4689,-1.4689,-1.4689,-1.4689,-1.4589,-1.4515,-1.4494,-1.4521,-1.4344,-1.3892,0.0,-1.4559,-1.4167,-1.4738,-1.5223,-1.5226,-1.4802,-1.4327,-1.3862,-1.3374,-1.2735,-1.185,-1.2391,-1.2521,-1.1872,-1.2305,-1.2428,-1.212,-1.2058,-1.157,-1.0631,-0.9271,0.0,0.0,0.0,0.0,0.0,0.0,0.0,0.0,0.0,0.0,0.0,0.0,0.0,0.0,0.0,0.0,0.0,0.0,0.0,0.0,0.0,0.0,0.0,0.0,0.0,0.0,0.0,0.0,-1.7203,-1.774,0.0,-1.7662,-1.7991,-1.8199,-1.8199,-1.8805,-1.9224,-1.9403,-1.9624,-1.9839,-2.0111,-1.99,-1.9868,-2.0048,-2.0063,-2.0105,-2.0204,-2.0398,-2.0233,-1.9795,-1.9655,-1.8876,-1.766,-1.7133,-1.651,-1.579,-1.5261,-1.4817,-1.4423,-1.4262,-1.4098,-1.3901,-1.3884,-1.3819,-1.3721,-1.3917,-1.3949,-1.3966,-1.3999,-1.3931,-1.3912,-1.4078,-1.4028,-1.3929,-1.3998,-1.4096,-1.4194,-1.4362,-1.4445,-1.4544,-1.4675,-1.4692,-1.4692,-1.4692,-1.467,-1.4629,-1.4649,-1.4746,-1.4757,-1.4611,-1.4976,-1.5142,-1.475,-1.5116,-1.5463,-1.5458,-1.547,-1.5069,-1.3993,-1.4042,-1.3626,-1.2336,-1.257,-1.2602,-1.2166,-1.2305,-1.2305,-1.212,-1.1654,-1.1029,-1.0251,-0.8866,-0.7862,0.0,0.0,0.0,0.0,0.0,0.0,0.0,0.0,0.0,0.0,0.0,0.0,0.0,0.0,0.0,0.0,0.0,0.0,0.0,0.0,0.0,0.0,0.0,0.0,0.0,-1.7283,-1.7651,-1.7427,-1.8123,-1.8504,-1.8202,-1.8681,-1.8977,-1.8887,-1.9682,-2.0114,-2.0028,-2.0391,-2.062,-2.0654,-2.0465,-2.0465,-2.0709,-2.0608,-2.0586,-2.0668,-2.0744,-2.0538,-2.0053,-1.9945,-1.9311,-1.8267,-1.7915,-1.7298,-1.6489,-1.5992,-1.5465,-1.4898,-1.4439,-1.4248,-1.4233,-1.4029,-1.3984,-1.4052,-1.4104,-1.4274,-1.4461,-1.4528,-1.4562,-1.4562,-1.4494,-1.4427,-1.4359,-1.4291,-1.4325,-1.4393,-1.4545,-1.463,-1.4698,-1.485,-1.4883,-1.4883,-1.4951,-1.4951,-1.4984,-1.5069,-1.4967,-1.4885,-1.4885,-1.5177,-1.5341,-1.5036,-1.536,-1.5593,-1.5573,-1.5779,-1.5422,-1.4032,-1.4164,-1.377,-1.2369,-1.2347,-1.2307,-1.2138,-1.2145,-1.21,-1.1974,-1.129,-1.0798,-1.0493,-0.8979,-0.7722,-0.6768,0.0,0.0,0.0,0.0,0.0,0.0,0.0,0.0,0.0,0.0,0.0,0.0,0.0,0.0,0.0,0.0,0.0,0.0,0.0,0.0,0.0,0.0,0.0,-1.6576,-1.6992,-1.7383,-1.7434,-1.8268,-1.885,-1.8935,-1.9381,-1.9559,-1.936,-1.9779,-1.9962,-1.9768,-2.0182,-2.0502,-2.0609,-2.0786,-2.0843,-2.0722,-2.0899,-2.0793,-2.0416,-2.0416,-2.0436,-2.0436,-2.0436,-2.0436,-2.0365,-1.9624,-1.8839,-1.8044,-1.7296,-1.6501,-1.5618,-1.4898,-1.4629,-1.4629,-1.4629,-1.4753,-1.4932,-1.5166,-1.5344,-1.5503,-1.5486,-1.5486,-1.5451,-1.524,-1.5043,-1.4864,-1.4633,-1.4756,-1.49,-1.49,-1.5043,-1.5169,-1.5169,-1.5204,-1.524,-1.547,-1.5505,-1.5576,-1.577,-1.5206,-1.4709,-1.4709,-1.4955,-1.5106,-1.5028,-1.5364,0.0,-1.5476,-1.5523,-1.5065,-1.3768,-1.3469,-1.2934,-1.1887,-1.1675,-1.1666,-1.1791,-1.1874,-1.1848,-1.1717,-1.1131,-1.1012,-1.1406,-0.9614,-0.7892,-0.6291,0.0,0.0,0.0,0.0,0.0,0.0,0.0,0.0,0.0,0.0,0.0,0.0,0.0,0.0,0.0,0.0,0.0,0.0,0.0,0.0,0.0,-1.7444,-1.7868,-1.778,-1.8248,-1.8646,-1.8775,-1.9399,-1.9859,-2.0047,-2.0339,-2.0511,-2.0442,-2.0708,-2.0842,-2.0807,-2.0935,-2.0998,-2.1034,-2.0715,-2.0644,-2.0822,-2.071,-2.0708,-2.0834,-2.1073,-2.12,-2.12,-2.135,-2.1066,-2.0424,-1.964,-1.8809,-1.7948,-1.6868,-1.6299,-1.6015,-1.557,-1.5396,-1.5396,-1.5396,-1.5433,-1.5509,-1.5697,-1.5734,-1.5611,-1.5536,-1.5397,-1.5202,-1.4856,-1.474,-1.4685,-1.4597,-1.4649,-1.4685,-1.4685,-1.4721,-1.474,-1.474,-1.49,-1.5043,-1.524,-1.5382,-1.5576,-1.577,-1.5634,-1.5497,-1.5497,-1.5549,-1.5584,-1.5583,-1.5687,-1.5532,-1.4914,-1.4981,-1.4394,-1.257,-1.2625,-1.2366,-1.1368,-1.1513,-1.177,-1.1989,-1.2188,-1.2246,-1.2212,-1.1592,-1.0627,-0.9265,-0.8489,-0.7555,0.0,0.0,0.0,0.0,0.0,0.0,0.0,0.0,0.0,0.0,0.0,0.0,0.0,0.0,0.0,0.0,0.0,0.0,0.0,0.0,0.0,0.0,-1.8174,-1.8596,-1.8717,-1.9,-1.9231,-1.9404,-1.9733,-2.0003,-2.0212,-2.0336,-2.0395,-2.038,-2.0617,-2.0757,-2.0664,-2.085,-2.0953,-2.0953,-2.0716,-2.0716,-2.09,-2.0832,-2.0878,-2.1104,-2.1255,-2.1359,-2.1359,-2.1146,-2.0741,-2.0177,-1.9374,-1.8581,-1.7836,-1.7096,-1.6669,-1.6381,0.0,0.0,0.0,0.0,-1.5835,-1.5835,-1.6081,-1.6043,-1.5918,-1.5632,-1.5433,-1.516,-1.4732,-1.4559,-1.4522,-1.4522,-1.4522,-1.4522,-1.4522,-1.4522,-1.4522,-1.4522,-1.4488,-1.4527,-1.473,-1.4836,-1.4991,-1.5363,-1.5505,0.0,-1.577,-1.5805,-1.5789,-1.5757,-1.5773,-1.5508,-1.4692,-1.4683,-1.4094,-1.2267,-1.2218,-1.1971,-1.1158,-1.1256,0.0,0.0,0.0,-1.1923,-1.1696,-1.1506,0.0,0.0,0.0,-0.7874,-0.6693,-0.6992,0.0,0.0,-0.6192,-0.6044,0.0,0.0,0.0,0.0,0.0,0.0,0.0,0.0,0.0,0.0,0.0,0.0,0.0,0.0,0.0,0.0,-1.9079,-1.9429,-1.9465,-1.9504,-1.9561,-1.9591,-1.9611,-1.9667,-1.9829,-1.9869,-1.9836,-1.971,-2.0066,-2.0228,-2.0096,-2.0468,0.0,0.0,0.0,-2.1016,-2.1016,-2.1211,-2.1288,-2.1288,-2.1327,-2.1327,-2.1268,-2.0409,-2.0036,-1.9997,-1.9025,-1.8279,-1.7785,-1.7663,-1.722,-1.6566,-1.6024,-1.5793,-1.5754,-1.5963,-1.5963,-1.5963,-1.6195,0.0,0.0,-1.5722,-1.5436,-1.5164,-1.473,-1.4496,-1.4418,-1.4418,-1.4418,-1.4379,-1.4379,-1.4379,-1.4379,-1.4379,-1.4161,-1.3981,-1.423,-1.4193,-1.4309,-1.4852,-1.5105,-1.5336,-1.5711,-1.5786,-1.5791,-1.5719,-1.5757,-1.5493,-1.4622,-1.4481,-1.3903,-1.2398,-1.1994,0.0,-1.1069,-1.0961,-1.1046,-1.1391,-1.1507,-1.1336,-1.0849,-1.1175,-1.0514,-0.8661,-0.8958,-0.8478,-0.7153,-0.7029,-0.6949,-0.6933,-0.686,-0.6777,0.0,0.0,0.0,0.0,0.0,0.0,0.0,0.0,0.0,0.0,0.0,0.0,0.0,0.0,0.0,-1.9019,-1.9624,-2.0121,-2.0474,-2.0722,-2.0532,-1.9687,-1.9757,-1.9917,-2.0123,-2.0307,-2.0427,-2.0409,-2.0641,-2.0897,-2.1194,-2.1293,-2.149,-2.1906,-2.1763,-2.1722,-2.1722,-2.1763,-2.1763,-2.1763,-2.1906,0.0,-2.1988,-2.1173,-2.0907,-2.1031,-1.9393,-1.8481,-1.814,-1.7443,-1.667,-1.6,-1.6355,-1.6337,-1.6011,-1.6052,-1.5833,-1.5587,-1.6011,-1.5889,-1.5583,-1.5608,-1.5332,-1.4914,-1.4531,-1.4418,0.0,-1.4418,-1.4418,-1.4379,-1.4223,-1.4169,-1.4169,-1.4169,-1.4126,-1.4161,-1.4534,-1.4566,-1.4637,-1.5133,-1.5247,-1.5377,-1.5605,-1.5727,-1.5806,-1.5773,-1.5789,-1.5507,-1.4699,-1.4053,-1.3201,-1.1886,-1.1153,-1.0731,-1.0622,-1.0755,-1.0985,-1.1391,-1.1736,-1.1855,-1.173,-1.1387,-1.0985,-1.0583,-0.9406,-0.8571,-0.812,-0.7154,-0.6574,-0.6456,-0.68,-0.7008,0.0,0.0,0.0,0.0,0.0,0.0,0.0,0.0,0.0,0.0,0.0,-1.8805,-1.8922,0.0,-1.9667,-1.9865,-2.0337,-2.0787,-2.0977,-2.1102,-2.1006,-2.0452,-2.0478,-2.0677,-2.1031,-2.1055,-2.1194,-2.1571,-2.1471,-2.1569,-2.2029,-2.1847,-2.1864,-2.2205,-2.2081,-2.204,-2.204,-2.2164,-2.1999,-2.1483,-2.1607,-2.1381,-2.0941,-2.0063,-1.9621,-1.9494,-1.8121,-1.7399,-1.7108,-1.6771,-1.6418,-1.6067,-1.638,-1.6209,-1.5782,-1.6004,-1.5782,-1.5436,-1.5658,-1.5616,-1.5365,-1.5218,-1.501,-1.4735,-1.4375,-1.4252,-1.4252,-1.436,-1.44,-1.44,-1.44,-1.44,-1.44,-1.44,-1.4287,-1.4254,-1.4439,-1.4442,-1.4535,-1.4909,-1.5103,-1.5296,-1.5682,-1.5809,-1.57,-1.5211,-1.534,-1.5077,-1.3876,-1.3244,-1.2567,-1.1751,-1.1132,-1.0814,-1.0814,-1.0814,-1.0788,-1.0807,-1.108,-1.1254,-1.1254,-1.1068,-1.0781,-1.0368,-0.9879,-0.9074,-0.7931,-0.7534,-0.6965,-0.6246,-0.6506,-0.6639,0.0,0.0,0.0,0.0,0.0,0.0,0.0,-1.7967,-1.8203,-1.9152,-1.9453,-1.9617,-1.9884,-2.021,-2.048,-2.0508,-2.0878,-2.1171,-2.1171,-2.1251,-2.131,-2.131,-2.1347,-2.1507,-2.2009,-2.185,-2.1949,-2.2554,-2.2266,-2.2264,-2.2674,-2.2344,-2.2259,-2.2504,-2.2421,-2.2379,-2.2379,-2.2318,-2.1881,-2.1104,-2.0874,-2.0382,-1.9627,-1.8742,-1.8129,-1.7777,-1.6862,-1.6341,-1.6116,-1.6161,-1.6178,-1.612,-1.621,-1.5893,-1.5374,-1.5777,-1.5622,-1.5231,-1.5257,-1.5228,-1.5117,-1.4824,-1.4657,-1.4531,-1.425,-1.4166,-1.4208,-1.4405,-1.4475,-1.4475,-1.4643,-1.4699,-1.4699,-1.4783,-1.4545,-1.4377,-1.4458,-1.4382,-1.4396,-1.4697,-1.4894,-1.5184,-1.5717,-1.5911,-1.5652,-1.4676,-1.4825,-1.4546,-1.3089,-1.2465,-1.2053,-1.1753,-1.1262,-1.0974,-1.0926,-1.0776,-1.0526,-1.0143,-1.0331,-1.0443,-1.0443,-1.0631,-1.0443,-0.9776,-1.0143,-0.9528,-0.7902,-0.7893,-0.7357,-0.6318,-0.6163,-0.6149,-1.7236,-1.7735,-1.8327,-1.8388,-1.8705,-1.9216,0.0,-1.95,-1.9259,-1.9716,-1.985,-1.9869,-1.9886,-1.9944,-2.0041,-2.0294,-2.0661,-2.0973,-2.1152,-2.1525,-2.1719,-2.1719,-2.1789,-2.203,-2.2473,-2.2473,-2.2493,-2.2594,-2.2553,-2.2714,-2.3096,-2.3074,-2.3213,-2.3594,-2.3225,-2.2988,-2.2988,-2.1769,-2.1131,-2.0998,-2.0103,-1.9607,-1.9517,-1.8515,-1.8164,-1.8272,-1.7083,-1.657,-1.6476,-1.6068,-1.5718,-1.5535,-1.5979,-1.568,-1.5052,-1.5259,-1.4974,-1.4602,-1.4754,-1.4531,-1.4292,-1.4615,-1.4447,-1.4208,-1.4321,-1.4349,-1.4405,-1.4615,-1.4657,-1.4657,-1.4699,-1.4699,-1.4783,-1.5006,-1.4838,-1.4726,-1.4949,-1.4837,-1.4726,-1.5016,-1.5058,-1.5197,-1.5403,-1.5965,-1.5923,-1.4769,-1.4641,-1.4263,-1.3065,-1.2255,-1.1754,-1.1714,-1.101,-1.0495,-1.0317,-1.0296,-1.017,-0.9927,-1.0105,-1.0218,-1.0218,-1.0443,-1.0481,-1.0406,-0.9954,-0.9587,-0.9359,-0.7778,-0.698,-0.6788,-0.6022,-0.5848,-1.8398,-1.8389,-1.8452,-1.8718,-1.8971,-1.9164,-1.943,-1.9393,-1.9468,-2.0022,-2.0216,-2.0292,-2.0245,-2.0461,-2.0676,-2.0824,-2.1159,-2.146,-2.1561,-2.1717,-2.1912,-2.2165,-2.2215,-2.2342,-2.252,-2.2414,-2.247,-2.2853,-2.266,-2.2695,-2.313,-2.2871,-2.2862,-2.3232,-2.3013,-2.2925,-2.2925,-2.2467,-2.1632,-2.0557,-2.0087,-1.9314,-1.818,-1.7777,-1.7498,-1.7326,-1.648,-1.6116,-1.6116,-1.5879,-1.5704,-1.5645,-1.5832,-1.5765,-1.545,-1.5428,-1.516,-1.4807,-1.4848,-1.4851,-1.4838,-1.5012,-1.4902,-1.4764,-1.4836,-1.4754,-1.4615,-1.4866,-1.4908,-1.495,-1.509,-1.5131,-1.5131,-1.5257,-1.5173,-1.5131,-1.5257,-1.5173,-1.5131,-1.5257,-1.5257,-1.534,-1.5533,-1.5824,-1.5677,-1.4811,-1.4408,-1.3905,-1.2962,-1.1758,-1.1008,-1.1008,-1.0708,-1.0383,-1.0048,-1.0037,-0.9876,-0.9587,-0.9617,-0.9696,-0.9696,-0.9864,-0.9998,-0.9967,-1.0055,-0.9799,-0.9084,-0.8542,-0.7923,-0.7242,-0.6356,-0.6054,-1.8769,-1.8657,-1.8564,-1.8976,-1.9163,-1.9257,-1.9257,-1.937,-1.9578,-2.0095,-2.0405,-2.0577,-2.0517,-2.0778,-2.1014,-2.0987,-2.1328,-2.1614,-2.1614,-2.1709,-2.1901,-2.2227,-2.2289,-2.2289,-2.2289,-2.2332,-2.2597,-2.3081,-2.2794,-2.2788,-2.3257,-2.2967,-2.2872,-2.3185,-2.3095,-2.2872,-2.2584,-2.2295,-2.1326,-1.9671,-1.9376,-1.8504,-1.7113,-1.7113,-1.6936,-1.6587,-1.6122,-1.5952,-1.5939,-1.5858,-1.5784,-1.5784,-1.5784,-1.5784,-1.5778,-1.5705,-1.5454,-1.5206,-1.5214,-1.5308,-1.5428,-1.5428,-1.5378,-1.5329,-1.5416,-1.5261,-1.512,-1.539,-1.5475,-1.546,-1.55,-1.5528,-1.5498,-1.5411,-1.5382,-1.5382,-1.5382,-1.5382,-1.5382,-1.5382,-1.5382,-1.5382,-1.5284,-1.5477,-1.5436,-1.4713,-1.4186,-1.3518,-1.2619,-1.1262,-1.0367,-1.0367,-1.0367,-1.0223,-0.9843,-0.9833,-0.9681,-0.9327,-0.9286,-0.9286,-0.9286,-0.945,-0.9504,-0.9498,-0.9984,-0.9823,-0.8951,-0.9058,-0.87,-0.7805,-0.6952,-0.6421,-1.7529,-1.8098,-1.8786,-1.9184,-1.9562,-1.9883,-1.9883,-1.9885,-1.9897,-1.9916,-2.0209,-2.0484,-2.0503,-2.0503,-2.0503,-2.0521,-2.0875,-2.1133,-2.1133,-2.1438,-2.1713,-2.1713,-2.1713,-2.1713,-2.1713,-2.2555,-2.3081,-2.3101,-2.3101,-2.3276,-2.3686,-2.366,-2.3835,-2.4244,-2.3801,-2.3103,-2.2049,-2.0601,-1.9359,-1.8262,-1.7272,-1.6773,-1.6723,-1.6723,-1.6723,-1.666,-1.638,-1.6259,-1.6233,-1.5952,-1.5784,-1.5784,-1.5784,-1.5784,-1.5784,-1.5805,-1.5772,-1.5764,-1.5687,-1.5665,-1.5709,-1.5709,-1.5709,-1.5739,-1.5931,-1.5961,-1.6036,-1.6301,-1.6345,-1.6272,-1.5979,-1.5906,-1.5776,-1.5469,-1.5382,-1.5382,-1.5382,-1.5382,-1.5382,-1.5382,-1.5382,-1.5131,-1.4307,-1.5019,-1.5394,-1.4559,-1.3831,-1.3002,-1.1884,-1.0735,-1.0019,-1.0019,-1.0019,-0.99,-0.9649,-0.9597,-0.9503,-0.9296,-0.9286,-0.9286,-0.9286,-0.9327,-0.9318,-0.9318,-0.9531,-0.9613,-0.9562,-0.8982,-0.8679,-0.8638,-0.7827,-0.7008,-1.823,-1.8469,-1.886,-1.9545,-1.9823,-1.995,-2.0249,-2.0311,-2.0278,-2.0278,-2.0168,-2.0168,-2.0466,-2.0521,-2.0613,-2.0869,-2.1255,-2.1485,-2.1485,-2.1595,-2.1687,-2.1687,-2.1318,-2.1049,-2.1049,-2.1306,-2.1489,-2.1489,-2.1119,-2.0887,-2.1023,-2.1023,-2.1121,-2.1258,-2.1066,-2.0843,-2.0506,-1.9974,-1.9195,-1.8192,-1.72,-1.67,-1.67,-1.67,-1.67,-1.67,-1.6607,-1.6567,-1.6553,-1.6446,-1.6406,-1.6393,-1.6192,-1.6126,-1.6147,-1.6103,-1.6062,-1.606,-1.6044,-1.6142,-1.6327,-1.6512,-1.6507,-1.6516,-1.6561,-1.6461,-1.6286,-1.6374,-1.6419,-1.6389,-1.6243,-1.6213,-1.6184,-1.6082,-1.6052,-1.5994,-1.5789,-1.5717,-1.5687,-1.5425,-1.5382,-1.5131,-1.4265,-1.4391,-1.4126,-1.2559,-1.2942,-1.2814,-1.123,-1.0679,-1.0472,-1.0472,-1.0472,-1.0443,-1.033,-1.032,-1.029,-1.0254,-1.0074,-0.9946,-0.9946,-0.9828,-0.9762,-0.9702,-0.9744,-0.98,-0.9785,-0.9572,-0.949,-0.949,-0.8664,-0.8139,-1.8704,-1.8957,-1.9311,-1.993,-2.0095,-2.0168,-2.0466,-2.0631,-2.0723,-2.0723,-2.0521,-2.0429,-2.0686,-2.0723,-2.0759,-2.0869,-2.1236,-2.1511,-2.1511,-2.1511,-2.1433,-2.1204,-2.0904,-2.0572,-2.0198,-2.0051,-2.0054,-2.0303,-1.9942,-1.9746,-1.9905,-1.9905,-1.9968,-2.0095,-2.0111,-1.9912,-1.9514,-1.9499,-1.9015,-1.7972,-1.7327,-1.7021,-1.7021,-1.7021,-1.7021,-1.7007,-1.6914,-1.686,-1.686,-1.6754,-1.67,-1.6687,-1.65,-1.6433,-1.6455,-1.6413,-1.6375,-1.6375,-1.6347,-1.6494,-1.6777,-1.6932,-1.7022,-1.7018,-1.7018,-1.6872,-1.6711,-1.6711,-1.6711,-1.6682,-1.6609,-1.6595,-1.6565,-1.6448,-1.6419,-1.636,-1.6126,-1.6082,-1.6009,-1.5804,-1.576,-1.5418,-1.4399,-1.391,-1.3112,-1.1671,-1.2217,-1.226,-1.0766,-1.0636,-1.0689,-1.0689,-1.0689,-1.0689,-1.0689,-1.0689,-1.0689,-1.0689,-1.0559,-1.0419,-1.0419,-1.0212,-1.0101,-1.0051,-0.9966,-0.994,-0.993,-0.993,-0.993,-0.993,-0.9419,-0.8956,-1.9036,-1.9498,-2.0021,-2.0448,-2.0558,-2.0558,-2.0576,-2.0869,-2.1126,-2.1065,-2.1089,-2.1071,-2.0973,-2.1053,-2.0943,-2.0558,-2.0808,-2.1058,-2.1058,-2.0996,-2.0791,-2.0286,-2.0462,-2.0232,-1.9257,-1.8805,-1.8858,-1.9517,-1.9599,-1.9773,-2.0153,-2.0169,-2.0326,-2.0723,-2.0723,-2.021,-1.9124,-1.9124,-1.8617,-1.7582,-1.7582,-1.7582,-1.7582,-1.7582,-1.7582,-1.7569,-1.734,-1.7219,-1.7206,-1.6874,-1.6754,-1.6703,-1.669,-1.6677,-1.6677,-1.6663,-1.6639,-1.6662,-1.66,-1.6758,-1.6979,-1.7026,-1.7153,-1.7279,-1.7279,-1.7279,-1.7279,-1.7279,-1.7279,-1.722,-1.696,-1.6872,-1.6753,-1.6402,-1.633,-1.6374,-1.6256,-1.63,-1.6345,-1.633,-1.6227,-1.5773,-1.4593,-1.3367,-1.2338,-1.1705,-1.1629,-1.1359,-1.0472,-1.0559,-1.0733,-1.0733,-1.0733,-1.0733,-1.0733,-1.0733,-1.0733,-1.0733,-1.0733,-1.0689,-1.0679,-1.0429,-1.0255,-1.0255,-1.0081,-0.9951,-0.9951,-0.9951,-0.9951,-0.9951,-0.9951,-0.9407,-2.0017,-2.0241,-2.0424,-2.0869,-2.0961,-2.1034,-2.1321,-2.1467,-2.1405,-2.0964,-2.0759,-2.04,-1.9675,-2.0139,-2.0539,-2.0095,-2.0303,-2.0507,-2.0507,-1.9878,-1.9422,-1.9457,-1.9288,-1.9018,-1.8781,-1.838,-1.8164,-1.8133,-1.8119,-1.8161,-1.8282,-1.8282,-1.8324,-1.8461,-1.8461,-1.8304,-1.7989,-1.7989,-1.7898,-1.7582,-1.7582,-1.7582,-1.7582,-1.7582,-1.7582,-1.7582,-1.7554,-1.7527,-1.7462,-1.7395,-1.7264,-1.7042,-1.6819,-1.6574,-1.6394,-1.6188,-1.611,-1.6095,-1.6067,-1.6497,-1.7026,-1.7153,-1.7246,-1.7279,-1.7279,-1.7279,-1.7279,-1.7279,-1.7044,-1.6749,-1.6678,-1.6369,-1.5873,-1.5029,-1.5391,-1.5677,-1.47,-1.5074,-1.5522,-1.5304,-1.4058,-1.2938,-1.2609,-1.1424,-1.0496,-1.0313,-1.0768,-1.102,-1.0871,-1.0873,-1.0959,-1.1132,-1.1132,-1.1132,-1.1132,-1.1132,-1.1132,-1.1132,-1.1003,-1.0786,-1.0419,-1.0212,-0.9907,-0.9559,-0.9524,-0.948,-0.948,-0.948,-0.948,-0.948,-0.948,-0.9323,-2.0595,-2.0839,-2.1065,-2.1328,-2.1339,-2.1302,-2.1105,-2.1259,-2.1116,-1.9936,-1.9847,-1.9611,-1.8469,-1.9359,-1.9942,-1.9005,-1.9618,-2.0063,-1.9749,-1.9208,-1.884,-1.8878,-1.8704,-1.8458,-1.8187,-1.7929,-1.774,-1.7635,-1.7582,-1.7582,-1.7582,-1.7582,-1.7582,-1.7582,-1.7582,-1.7582,-1.7582,-1.7582,-1.7582,-1.7582,-1.7582,-1.7582,-1.7582,-1.7582,-1.7582,-1.7582,-1.7477,-1.7437,-1.7437,-1.7265,-1.7107,-1.6935,-1.6781,-1.6612,-1.6482,-1.6329,-1.6241,-1.624,-1.624,-1.6507,-1.6801,-1.6836,-1.6848,-1.6818,-1.6818,-1.6734,-1.6622,-1.6622,-1.6433,-1.6258,-1.6258,-1.5724,-1.4997,-1.4411,-1.4364,-1.422,-1.3495,-1.3755,-1.4096,-1.3938,-1.2974,-1.2017,-1.1507,-1.0742,-1.0056,-0.9507,-0.9786,-1.0122,-1.0263,-1.077,-1.1161,-1.1154,-1.1262,-1.1305,-1.1305,-1.1132,-1.0992,-1.0992,-1.0733,-1.0429,-1.0168,-0.9951,-0.9689,-0.9428,-0.9349,-0.9305,-0.9305,-0.9305,-0.9305,-0.9305,-0.9305,-0.9218,-2.0982,-2.1298,-2.1687,-2.1687,-2.1687,-2.1459,-2.0393,-2.0569,-2.0397,-1.8507,-1.8632,-1.866,-1.73,-1.8477,-1.9118,-1.772,-1.8705,-1.9434,-1.8864,-1.8701,-1.8547,-1.8333,-1.8419,-1.8232,-1.7657,-1.7644,-1.7635,-1.7582,-1.7582,-1.7582,-1.7582,-1.7582,-1.7582,-1.7582,-1.7582,-1.7582,-1.7582,-1.7582,-1.7582,-1.7477,-1.7477,-1.7424,-1.7371,-1.7371,-1.7371,-1.7371,-1.712,-1.7067,-1.7067,-1.6789,-1.663,-1.663,-1.663,-1.663,-1.6577,-1.6577,-1.6584,-1.6588,-1.6588,-1.6574,-1.6491,-1.6325,-1.6229,-1.6264,-1.6264,-1.6091,-1.5891,-1.5851,-1.579,-1.5742,-1.5594,-1.4806,-1.4028,-1.3776,-1.3102,-1.2463,-1.2318,-1.2415,-1.256,-1.256,-1.24,-1.1978,-1.0934,-1.0698,-1.0305,-0.9255,-0.9114,-0.9247,-0.9409,-1.0342,-1.0994,-1.0899,-1.1053,-1.1119,-1.1142,-1.0773,-1.0536,-1.0506,-1.0212,-0.9951,-0.9907,-0.9689,-0.9515,-0.9471,-0.9305,-0.9218,-0.9218,-0.9218,-0.9218,-0.9218,-0.9218,-0.9087,-2.1533,-2.1632,-2.1687,-2.1687,-2.1687,-2.1381,-2.0132,-1.9948,-1.947,-1.7621,-1.7595,-1.7507,-1.6158,-1.7041,-1.7879,-1.7458,-1.7577,-1.7842,-1.8206,-1.7552,-1.7169,-1.7383,-1.7659,-1.7709,-1.758,-1.7818,-1.7859,-1.7635,-1.7582,-1.7582,-1.7582,-1.7582,-1.7582,-1.7582,-1.7582,-1.7582,-1.7582,-1.7582,-1.7371,-1.6842,-1.6842,-1.663,-1.6205,-1.6205,-1.6205,-1.6205,-1.6152,-1.6271,-1.643,-1.6377,-1.6377,-1.6377,-1.6377,-1.6217,-1.6045,-1.6045,-1.6021,-1.6037,-1.6037,-1.6054,-1.6101,-1.6405,-1.651,-1.652,-1.652,-1.6481,-1.6401,-1.6211,-1.5852,-1.5363,-1.4449,-1.3607,-1.2581,-1.1121,-1.1121,-1.1219,-1.0337,-1.1023,-1.1804,-1.1804,-1.1249,-1.0742,-1.0498,-1.0081,-0.9722,-0.9535,-0.9877,-1.0109,-0.9962,-0.9763,-0.9809,-1.0196,-1.0278,-1.035,-1.0404,-1.0305,-1.0229,-1.0091,-1.0038,-0.982,-0.9437,-0.9393,-0.9174,-0.8788,-0.8744,-0.8744,-0.8744,-0.8744,-0.8744,-0.8744,-0.8744,-0.87,-2.1687,-2.1776,-2.1865,-2.1731,-2.1776,-2.1379,-1.9454,-1.9264,-1.8784,-1.6209,-1.6396,-1.6571,-1.5212,-1.6154,-1.6974,-1.6402,-1.6862,-1.7284,-1.7303,-1.719,-1.7158,-1.7357,-1.736,-1.7365,-1.7411,-1.7318,-1.7265,-1.716,-1.7107,-1.7107,-1.7107,-1.6895,-1.6736,-1.6736,-1.6736,-1.6736,-1.6736,-1.6736,-1.6577,-1.6258,-1.6258,-1.6152,-1.5885,-1.5885,-1.5885,-1.5885,-1.5725,-1.5779,-1.5885,-1.5684,-1.563,-1.563,-1.563,-1.5523,-1.5458,-1.563,-1.5684,-1.5684,-1.5832,-1.5885,-1.5849,-1.5479,-1.5661,-1.6011,-1.6011,-1.591,-1.5771,-1.5644,-1.5045,-1.431,-1.3784,-1.2511,-1.1132,-1.0146,-0.9731,-0.941,-0.8874,-0.9262,-0.9706,-0.9706,-0.9517,-0.932,-0.9171,-0.908,-0.8931,-0.8783,-0.8981,-0.9099,-0.9022,-0.8792,-0.9005,-0.999,-1.0195,-1.0297,-1.0342,-1.015,-0.9976,-0.9921,-0.9651,-0.9373,-0.9055,-0.9055,-0.8924,-0.8612,-0.8612,-0.8612,-0.8612,-0.8612,-0.8612,-0.8612,-0.8612,-0.8612,-2.1401,-2.1463,-2.1445,-2.1221,-2.1266,-2.0802,-1.8412,-1.8268,-1.776,-1.4875,-1.5116,-1.5534,-1.4296,-1.5112,-1.5759,-1.5138,-1.6004,-1.6659,-1.6497,-1.6922,-1.7237,-1.7298,-1.7131,-1.7016,-1.7094,-1.6842,-1.6683,-1.6683,-1.6577,-1.6577,-1.667,-1.6311,-1.6045,-1.6045,-1.6045,-1.6045,-1.6045,-1.6045,-1.5992,-1.5885,-1.5885,-1.5832,-1.5725,-1.5725,-1.5725,-1.5672,-1.5458,-1.5458,-1.5458,-1.5202,-1.5148,-1.5202,-1.5202,-1.5202,-1.5202,-1.5428,-1.5535,-1.5577,-1.5458,-1.5458,-1.5351,-1.4213,-1.4467,-1.5217,-1.4995,-1.492,-1.4847,-1.4686,-1.41,-1.3461,-1.3049,-1.168,-1.0238,-0.9737,-0.8903,-0.8235,-0.8185,-0.8215,-0.8237,-0.8187,-0.8386,-0.8485,-0.8237,-0.8329,-0.8435,-0.8187,-0.8187,-0.8187,-0.8187,-0.8187,-0.8581,-0.9699,-0.9947,-1.007,-1.0175,-0.9848,-0.9643,-0.9647,-0.9283,-0.9031,-0.8885,-0.8877,-0.882,-0.8726,-0.8726,-0.8702,-0.8625,-0.8625,-0.8645,-0.8612,-0.8612,-0.8612,-2.0397,-2.0121,-1.9467,-1.9422,-1.9301,-1.8635,-1.6979,-1.6624,-1.6053,-1.3936,-1.3897,-1.3994,-1.3162,-1.3339,-1.3733,-1.4124,-1.4555,-1.5127,-1.5848,-1.6229,-1.6521,-1.674,-1.6751,-1.6751,-1.6723,-1.6736,-1.6683,-1.6683,-1.6258,-1.6205,-1.6683,-1.663,-1.663,-1.663,-1.663,-1.663,-1.663,-1.663,-1.6365,-1.5885,-1.5885,-1.563,-1.5095,-1.5095,-1.5095,-1.5095,-1.5041,-1.5202,-1.5482,-1.5482,-1.5577,-1.5832,-1.5832,-1.5832,-1.5779,-1.5589,-1.563,-1.5672,-1.4374,-1.4105,-1.4169,-1.296,-1.3383,-1.4191,-1.3372,-1.3685,-1.4115,-1.3309,-1.3624,-1.3739,-1.1964,-1.1173,-1.0543,-0.9294,-0.8969,-0.8954,-0.8707,-0.8894,-0.9031,-0.8775,-0.8931,-0.9031,-0.8775,-0.8726,-0.8775,-0.8726,-0.8726,-0.8726,-0.8726,-0.8726,-0.8761,-0.8928,-0.8731,-0.8721,-0.9108,-0.9092,-0.9124,-0.9151,-0.9143,-0.9088,-0.9072,-0.9072,-0.9064,-0.9047,-0.9047,-0.8966,-0.8796,-0.8796,-0.8714,-0.8612,-0.8612,-0.8612,-1.8577,-1.8626,-1.8488,-1.8488,-1.8377,-1.7914,-1.6344,-1.5834,-1.5245,-1.3553,-1.3555,-1.3686,-1.3268,-1.3268,-1.3484,-1.3853,-1.4052,-1.4351,-1.487,-1.5626,-1.61,-1.5997,-1.6271,-1.6418,-1.6205,-1.6205,-1.6205,-1.6205,-1.6045,-1.5992,-1.6205,-1.5885,-1.5672,-1.5672,-1.5672,-1.5672,-1.5672,-1.5672,-1.5565,-1.5363,-1.5363,-1.5256,-1.4987,-1.4987,-1.4987,-1.4987,-1.4987,-1.5095,-1.5202,-1.5202,-1.5256,-1.5363,-1.5363,-1.5363,-1.5363,-1.5482,-1.5095,-1.4535,-1.4105,-1.3619,-1.2906,-1.1764,-1.171,-1.22,-1.2743,-1.3014,-1.3112,-1.313,-1.2724,-1.2222,-1.1621,-1.0822,-0.992,-0.9084,-0.896,-0.8909,-0.8657,-0.8743,-0.8881,-0.878,-0.8849,-0.8924,-0.8825,-0.8825,-0.8825,-0.8825,-0.8825,-0.8825,-0.8825,-0.8825,-0.8825,-0.8825,-0.8726,-0.8753,-0.9086,-0.9127,-0.9202,-0.9373,-0.9413,-0.9364,-0.9306,-0.9298,-0.9202,-0.9096,-0.9096,-0.9064,-0.8991,-0.8991,-0.895,-0.8885,-0.8771,-0.8401,-1.7047,-1.7194,-1.7174,-1.725,-1.7125,-1.6696,-1.5514,-1.5048,-1.4489,-1.3229,-1.3243,-1.3429,-1.3167,-1.3074,-1.3154,-1.3417,-1.3572,-1.3755,-1.4038,-1.4833,-1.5357,-1.5257,-1.5575,-1.5817,-1.5753,-1.5849,-1.5885,-1.5885,-1.5885,-1.5885,-1.5885,-1.5512,-1.5256,-1.5256,-1.5256,-1.5256,-1.5256,-1.5256,-1.5256,-1.5256,-1.5256,-1.5256,-1.5256,-1.5256,-1.5256,-1.5256,-1.5256,-1.5256,-1.5256,-1.5256,-1.5256,-1.5256,-1.488,-1.4761,-1.4719,-1.4546,-1.3997,-1.3295,-1.3078,-1.2526,-1.171,-1.0562,-1.0186,-1.0406,-1.161,-1.1982,-1.2091,-1.2417,-1.1773,-1.1008,-1.1181,-1.049,-0.9661,-0.9183,-0.9058,-0.9022,-0.8758,-0.8796,-0.8844,-0.88,-0.8802,-0.8808,-0.8757,-0.875,-0.8785,-0.8783,-0.8825,-0.8825,-0.8825,-0.8825,-0.8825,-0.8825,-0.8825,-0.8924,-0.9187,-0.9187,-0.9335,-0.9575,-0.9575,-0.9567,-0.9437,-0.9486,-0.938,-0.9259,-0.925,-0.9226,-0.9169,-0.9169,-0.9145,-0.9096,-0.8636,-0.7887,-1.6032,-1.5844,-1.5201,-1.5391,-1.5076,-1.4654,-1.4282,-1.4002,-1.3592,-1.2845,-1.2883,-1.2866,-1.2492,-1.2368,-1.2397,-1.2662,-1.294,-1.3218,-1.3483,-1.3749,-1.4123,-1.4654,-1.4727,-1.4932,-1.5451,-1.5741,-1.5885,-1.5885,-1.5885,-1.5885,-1.5885,-1.5885,-1.5885,-1.5885,-1.5885,-1.5885,-1.5885,-1.5885,-1.5885,-1.5885,-1.5885,-1.5885,-1.5885,-1.5885,-1.5885,-1.5885,-1.5885,-1.5885,-1.5885,-1.5885,-1.5885,-1.5779,-1.4654,-1.4223,-1.4008,-1.258,-1.22,-1.22,-1.0743,-1.046,-1.0507,-0.932,-0.894,-0.9051,-0.9651,-1.0406,-1.1055,-1.0798,-1.0696,-1.0633,-1.0366,-1.0312,-1.0147,-0.9541,-0.9465,-0.9402,-0.9133,-0.9171,-0.922,-0.8965,-0.8912,-0.8863,-0.8699,-0.8721,-0.8715,-0.8798,-0.8825,-0.8825,-0.8825,-0.8825,-0.8825,-0.8825,-0.8825,-0.8924,-0.9187,-0.9187,-0.9335,-0.9575,-0.9575,-0.9575,-0.9575,-0.9575,-0.9575,-0.9575,-0.9575,-0.9535,-0.9404,-0.9404,-0.9314,-0.9096,-0.8005,-0.692,-1.3861,-1.386,-1.361,-1.3992,-1.3828,-1.3574,-1.3476,-1.3243,-1.2936,-1.2552,-1.2795,-1.2918,-1.2466,-1.2623,-1.2848,-1.2976,-1.2904,-1.3,-1.3447,-1.3894,-1.4304,-1.4678,-1.5197,-1.5584,-1.5753,-1.5837,-1.5885,-1.5885,-1.5885,-1.5885,-1.5885,-1.5885,-1.5885,-1.5885,-1.5885,-1.5885,-1.5885,-1.5885,-1.5885,-1.5885,-1.5137,-1.4761,-1.4708,-1.3879,-1.3501,-1.3501,-1.3501,-1.3501,-1.3501,-1.3501,-1.3501,-1.3447,-1.3122,-1.296,-1.2906,-1.2472,-1.1819,-1.1164,-1.0672,-1.0076,-0.943,-0.9051,-0.8885,-0.8995,-0.9596,-0.9864,-1.0029,-1.0312,-1.0586,-1.0586,-1.0091,-1.0147,-1.0091,-0.9272,-0.923,-0.9406,-0.9304,-0.9392,-0.9488,-0.9648,-0.9715,-0.9779,-0.9724,-0.9716,-0.9705,-0.9575,-0.9543,-0.9504,-0.9343,-0.9327,-0.9327,-0.9327,-0.9327,-0.9229,-0.8931,-0.8924,-0.9031,-0.9335,-0.9335,-0.9434,-0.9575,-0.9229,-0.9072,-0.9072,-0.7975,-0.7403,-0.7353,-0.6607,-0.6143,-0.5936,-0.5701,-0.4949,-1.2933,-1.3028,-1.3008,-1.3383,-1.3314,-1.3077,-1.3077,-1.2904,-1.2692,-1.2671,-1.2829,-1.2933,-1.2826,-1.2901,-1.3,-1.3065,-1.2976,-1.3012,-1.3459,-1.3882,-1.4292,-1.4666,-1.5318,-1.5741,-1.5741,-1.5825,-1.5885,-1.5885,-1.5885,-1.5885,-1.5885,-1.5885,-1.5885,-1.5885,-1.5885,-1.5885,-1.5885,-1.5458,-1.5244,-1.5244,-1.4105,-1.3511,-1.3511,-1.2743,-1.2417,-1.2417,-1.2417,-1.2417,0.0,-1.2417,-1.2417,-1.2363,-1.1928,-1.1764,-1.171,-1.1273,-1.0625,-1.0021,-1.0021,-0.9533,-0.8885,-0.8885,-0.8995,-0.9161,-0.9651,-0.9816,-0.9981,-1.0366,-1.0586,-1.0586,-1.0091,-1.0147,-1.0091,-0.9265,-0.9272,-0.9382,-0.9217,-0.9242,-0.9334,-0.9551,-0.9739,-0.9914,-0.9957,-1.0047,-1.0088,-1.0014,-0.9933,-0.9843,-0.9738,-0.9665,-0.9525,-0.9327,-0.9278,-0.9031,-0.8379,-0.8726,-0.8981,-0.9031,-0.8931,-0.8931,-0.8981,-0.8684,-0.8329,-0.7918,-0.6924,-0.6221,-0.5817,-0.5114,-0.4537,-0.3992,-0.4097,-0.3534,0.0,-1.3043,-1.3085,-1.3369,-1.3278,-1.3053,-1.3053,-1.2892,0.0,-1.3017,-1.2928,-1.2916,-1.3423,-1.3121,-1.288,-1.3133,-1.3113,-1.3254,-1.3556,-1.3845,-1.4208,-1.4714,-1.5221,-1.5523,-1.5499,-1.5741,-1.5885,-1.5885,-1.5885,-1.5885,-1.5885,-1.5885,-1.5832,-1.5779,-1.5779,-1.5779,-1.5779,-1.4654,-1.4062,-1.4062,-1.2852,-1.2309,-1.2309,-1.22,-1.2146,-1.2146,-1.2146,-1.2146,-1.2146,-1.2146,-1.2146,-1.2037,-1.1,-1.0562,-1.0453,-0.932,-0.8885,-0.8885,-0.8885,-0.8885,-0.8885,-0.8885,-0.9106,-0.9437,-0.9706,-1.0202,-1.0696,-1.0688,-1.0688,-1.0641,-1.0366,-1.0312,-1.0147,-0.9541,-0.943,-0.9327,-0.9051,-0.894,-0.894,-0.894,-0.9217,-0.9442,-0.95,-0.9739,-0.9953,-1.0104,-0.9927,-0.9815,-0.9807,-0.9612,-0.9309,-0.879,-0.8741,-0.8435,-0.7683,-0.8535,-0.8981,-0.8726,-0.8478,-0.8187,-0.7889,-0.7839,-0.7335,-0.6271,-0.6121,-0.5518,-0.4464,-0.4514,-0.4014,-0.2967,-0.3067,-0.2515,-1.274,0.0,-1.2632,-1.2848,-1.2856,-1.2807,0.0,-1.2747,-1.2783,-1.3017,-1.323,-1.3363,-1.3495,-1.3568,-1.364,-1.3713,-1.3556,-1.3664,-1.434,-1.4835,-1.5173,-1.5306,-1.5596,-1.5716,-1.5523,-1.5741,-1.5885,-1.5885,-1.5885,-1.5885,-1.5885,-1.5885,-1.5512,-1.4654,-1.46,-1.46,-1.46,-1.3393,-1.2797,-1.2797,-1.1655,-1.1109,-1.1055,-1.0131,-0.9699,-0.9699,-0.9699,-0.9699,-0.9699,-0.9699,-0.9699,-0.9699,-0.943,-0.932,-0.9265,-0.8989,-0.8885,-0.8885,-0.8885,-0.8885,-0.8885,-0.8885,-0.9106,-0.9437,-0.9706,-1.0091,-1.0421,-1.0633,-1.0688,-1.0641,-1.0366,-1.0312,-1.0202,-0.9816,-0.9706,-0.9706,-0.9596,-0.9596,-0.9596,-0.9596,-0.9485,-0.9423,-0.9435,-0.9256,-0.9145,-0.9051,-0.9002,-0.8931,-0.8751,-0.8709,-0.8587,-0.8367,-0.8353,-0.8204,-0.7945,-0.7932,-0.7932,-0.7875,-0.7832,-0.7478,-0.6825,-0.6376,-0.5672,-0.4568,-0.3369,-0.2215,-0.1109,-0.1964,-0.1813,-0.0757,-0.1613,-0.1411,-1.2057,-1.2272,-1.2583,-1.2656,-1.2699,-1.2699,-1.2699,-1.2807,-1.2976,-1.3254,-1.3423,-1.3592,-1.3833,-1.3894,-1.3906,-1.3906,-1.399,-1.4268,-1.4823,-1.5137,-1.5366,-1.5487,-1.562,-1.5704,-1.568,-1.5323,-1.5137,-1.5137,-1.4589,-1.4309,-1.4309,-1.4309,-1.3997,-1.3403,-1.2852,-1.2852,-1.3349,-1.22,-1.1601,-1.1601,-1.0406,-0.9864,-0.9864,-0.921,-0.8885,-0.8885,-0.8885,-0.8885,-0.8885,-0.8885,-0.8885,-0.8885,-0.8885,-0.8885,-0.8885,-0.8885,-0.8885,-0.8885,-0.8885,-0.8885,-0.8885,-0.8885,-0.9051,-0.9154,-0.921,-0.9423,-0.9809,-1.0523,-1.0688,-1.0696,-1.0531,-1.0476,-1.0366,-0.9761,-0.9596,-0.9485,-0.9037,-0.8989,-0.8989,-0.8989,-0.8989,-0.8989,-0.8989,-0.8927,-0.8893,-0.8818,-0.875,-0.8682,-0.8541,-0.8474,-0.8288,-0.7956,-0.7949,-0.7788,-0.7396,-0.6766,-0.6486,-0.6681,-0.6575,-0.6027,-0.4972,-0.4676,-0.3971,-0.2917,-0.1562,-0.0555,0.0,-0.0605,-0.0555,0.0,-0.0706,-0.0656,-1.1284,-1.178,-1.2361,-1.2625,-1.2699,-1.2711,-1.2759,-1.2952,-1.3206,-1.3507,-1.3568,-1.3737,-1.4268,-1.4147,-1.3978,-1.4026,-1.4303,-1.466,-1.5086,-1.4891,-1.4883,-1.5423,-1.5379,-1.5369,-1.5535,-1.4739,-1.4116,-1.3954,-1.296,-1.2417,-1.2417,-1.2417,-1.2309,-1.2146,-1.1219,-1.1055,-1.1873,-1.0891,-1.046,-1.0398,-0.9368,-0.8885,-0.8885,-0.8885,-0.8885,-0.8885,-0.8885,-0.8885,-0.8885,-0.883,-0.8774,-0.8774,-0.8663,-0.8657,-0.8657,-0.8657,-0.8657,-0.8657,-0.8657,-0.8657,-0.8657,-0.8657,-0.8657,-0.8602,-0.8429,-0.854,-0.8975,-1.0084,-1.0414,-1.0414,-1.0414,-1.0414,-1.0249,-0.9485,-0.932,-0.9099,-0.8269,-0.8097,-0.8042,-0.7992,-0.8208,-0.8374,-0.8374,-0.854,-0.8644,-0.8644,-0.8545,-0.8473,-0.8473,-0.8308,-0.8011,-0.7575,-0.7522,-0.72,-0.6396,-0.5503,-0.5,-0.4968,-0.4943,-0.4329,-0.3022,-0.2821,-0.2318,-0.1412,-0.0505,-0.0101,-0.0101,-0.0101,-0.0101,-0.0151,-0.0353,-0.0303,-1.1058,-1.0942,-1.0902,-1.2373,-1.2699,-1.2771,-1.3,-1.3097,-1.3266,-1.3749,-1.3845,-1.4014,-1.4558,-1.4425,-1.4316,-1.4558,-1.4025,-1.4043,-1.5299,-1.3922,-1.3507,-1.5303,-1.4847,-1.4307,-1.4132,-1.4147,-1.3781,-1.2743,-1.2526,-1.2417,-1.2417,-1.2417,-1.1982,-1.1,-1.0781,-1.0296,-0.943,-0.9265,-0.9154,-0.9154,-0.8995,-0.8885,-0.8885,-0.8885,-0.8885,-0.8885,-0.8885,-0.8885,-0.8885,-0.8325,-0.8159,-0.8103,-0.7654,-0.7487,-0.7487,-0.7487,-0.7487,-0.7487,-0.7487,-0.7487,-0.7487,-0.7487,-0.7487,-0.7487,-0.7703,-0.7931,-0.8208,-0.8706,-0.8982,-0.9196,-0.9196,-0.9196,-0.914,-0.903,-0.8982,-0.8871,-0.8484,-0.8429,-0.8318,-0.8042,-0.7881,-0.7715,-0.7715,-0.7598,-0.7487,-0.7487,-0.7415,-0.7404,-0.7404,-0.7387,-0.7281,-0.7132,-0.7067,-0.6583,-0.5347,-0.5075,-0.4225,-0.2322,-0.3022,-0.3022,-0.1915,-0.0958,-0.0505,-0.0606,-0.0404,-0.0454,-0.0656,-0.0656,-0.0656,-0.0656,-0.0707,-0.0606,-0.9671,-0.9525,-0.9527,-1.0672,-1.1285,-1.1601,-1.1706,-1.2404,-1.3048,-1.3197,-1.3801,-1.4219,-1.3865,-1.4319,-1.4672,-1.4459,-1.3865,-1.3421,-1.3614,-1.2667,-1.2394,-1.3488,-1.3265,-1.3006,-1.3026,-1.2577,-1.2091,-1.1546,-1.0891,-1.0515,-1.0515,-1.0515,-1.0241,-0.9754,-0.9416,-0.8982,-0.8436,-0.8103,-0.8269,-0.8885,-0.8546,-0.8436,-0.838,-0.8103,-0.7992,-0.7992,-0.7992,-0.7992,-0.7937,-0.7654,-0.7543,-0.7543,-0.7321,-0.721,-0.721,-0.721,-0.721,-0.721,-0.721,-0.721,-0.721,-0.721,-0.721,-0.7154,-0.6982,-0.7099,-0.7326,-0.7326,-0.8097,-0.892,-0.892,-0.892,-0.8809,-0.8484,-0.8429,-0.8318,-0.7875,-0.782,-0.7765,-0.7598,-0.7487,-0.7382,-0.7382,-0.7265,-0.721,-0.721,-0.7043,-0.6932,-0.6932,-0.6826,-0.6695,-0.6649,-0.6028,-0.5377,-0.469,-0.3608,-0.2619,-0.1681,-0.1499,-0.1274,-0.0757,-0.0404,-0.0252,-0.0404,-0.0555,-0.0656,-0.0808,-0.0808,-0.0808,-0.0808,-0.096,-0.0858,-0.8097,-0.807,-0.8102,-0.8852,-0.969,-1.033,-1.0329,-1.1257,-1.2083,-1.1974,-1.2791,-1.3318,-1.2455,-1.3207,-1.3762,-1.3338,-1.267,-1.2144,-1.1718,-1.1027,-1.0826,-1.1567,-1.1425,-1.1326,-1.1574,-1.0773,-1.0178,-0.9904,-0.9037,-0.8491,-0.8491,-0.8491,-0.8491,-0.8491,-0.8048,-0.782,-0.782,-0.7432,-0.7654,-0.8491,-0.8048,-0.782,-0.782,-0.7376,-0.721,-0.721,-0.721,-0.721,-0.721,-0.7043,-0.6988,-0.6988,-0.6821,-0.6765,-0.6765,-0.6765,-0.6765,-0.6765,-0.6765,-0.6765,-0.6765,-0.6877,-0.6877,-0.6765,-0.632,-0.6376,-0.6548,-0.6386,-0.7321,-0.8423,-0.8478,-0.8478,-0.8374,-0.7931,-0.782,-0.7709,-0.7265,-0.721,-0.721,-0.721,-0.721,-0.7154,-0.7099,-0.7099,-0.7043,-0.6988,-0.6771,-0.6604,-0.6604,-0.6158,-0.588,-0.588,-0.4808,-0.3947,-0.3512,-0.192,-0.0976,-0.1104,-0.0419,0.0,0.0,-0.0204,-0.0356,-0.0508,-0.0709,-0.0858,-0.1011,-0.1011,-0.1011,-0.1011,-0.1213,-0.1162,-0.6953,-0.6742,-0.6479,-0.7423,-0.8567,-0.9506,-0.9508,-0.9548,-0.9631,-0.9954,-1.0079,-1.019,-1.0286,-1.0397,-1.0466,-1.0396,-0.9534,-0.9309,-1.0536,-0.8872,-0.8329,-1.0451,-0.9749,-0.9113,-0.9175,-0.9071,-0.8575,-0.7537,-0.7376,-0.7321,-0.7321,-0.7321,-0.7321,-0.7321,-0.7265,-0.7265,-0.7265,-0.721,-0.7265,-0.7321,-0.7265,-0.7265,-0.7265,-0.721,-0.721,-0.721,-0.721,-0.721,-0.7154,-0.6599,-0.6371,-0.632,-0.5768,-0.5549,-0.5549,-0.5549,-0.5549,-0.5549,-0.5549,-0.5549,-0.5549,-0.5824,-0.588,-0.588,-0.5819,-0.6047,-0.633,-0.633,-0.6548,-0.6937,-0.7265,-0.7321,-0.7321,-0.7265,-0.7265,-0.7265,-0.721,-0.721,-0.721,-0.721,-0.721,-0.7099,-0.6771,-0.6715,-0.6659,-0.6386,-0.633,-0.633,-0.633,-0.5314,-0.4641,-0.4641,-0.3578,-0.2347,-0.1229,-0.028,0.0278,0.0272,0.0107,0.0,0.0,0.0,-0.0259,-0.0777,-0.0815,-0.1061,-0.1566,-0.1566,-0.1566,-0.1566,-0.1566,-0.1415,-0.6217,-0.6184,-0.6069,-0.6257,-0.6688,-0.7186,-0.7673,-0.8404,-0.8997,-0.8915,-0.9519,-1.0076,-1.0067,-0.9708,-0.9341,-0.9292,-0.8986,-0.8674,-0.8507,-0.7753,-0.7537,-0.841,-0.8085,-0.787,-0.787,-0.787,-0.7648,-0.721,-0.721,-0.721,-0.721,-0.721,-0.721,-0.721,-0.6821,-0.6654,-0.6654,-0.6265,-0.6102,-0.6102,-0.6487,-0.6654,-0.6654,-0.627,-0.6102,-0.6102,-0.6102,-0.6102,-0.6047,-0.5824,-0.5768,-0.5712,-0.5493,-0.5382,-0.5382,-0.5382,-0.5382,-0.5382,-0.5382,-0.5382,-0.5437,-0.5712,-0.5824,-0.5824,-0.6047,-0.6219,-0.633,-0.6492,-0.6604,-0.6771,-0.7099,-0.721,-0.721,-0.721,-0.721,-0.721,-0.721,-0.721,-0.721,-0.721,-0.7043,-0.6826,-0.6715,-0.6548,-0.6442,-0.633,-0.5489,-0.4871,-0.4871,-0.3692,-0.2796,-0.2796,-0.1735,-0.0672,0.0168,0.0505,0.0559,0.0167,0.0055,0.0,0.0,-0.0159,-0.0422,-0.0845,-0.1049,-0.1299,-0.1645,-0.1645,-0.1636,-0.1617,-0.1617,-0.1566,-0.5474,-0.5583,-0.5562,-0.5441,-0.5431,-0.5588,-0.6167,-0.6989,-0.76,-0.7487,-0.81,-0.8581,-0.8586,-0.8097,-0.7713,-0.7678,-0.7719,-0.7531,-0.6765,-0.6654,-0.6654,-0.6654,-0.6654,-0.6654,-0.6654,-0.6654,-0.6654,-0.6654,-0.6654,-0.6654,-0.6654,-0.6654,-0.6654,-0.6654,-0.6209,-0.6042,-0.6042,-0.5601,-0.5382,-0.5382,-0.5824,-0.6042,-0.5986,-0.5601,-0.5382,-0.5382,-0.5382,-0.5382,-0.5382,-0.5382,-0.5382,-0.5382,-0.5382,-0.5382,-0.5382,-0.5382,-0.5382,-0.5382,-0.5382,-0.5382,-0.5437,-0.5712,-0.588,-0.5991,-0.6219,-0.6386,-0.6442,-0.6659,-0.6715,-0.6771,-0.7099,-0.721,-0.721,-0.721,-0.721,-0.721,-0.721,-0.721,-0.7099,-0.671,-0.6765,-0.6654,-0.6098,-0.6158,-0.6107,-0.5545,-0.4533,-0.3748,-0.3357,-0.2071,-0.112,-0.084,-0.0168,0.0449,0.0841,0.0785,0.0561,0.0168,0.0056,0.0,0.0,-0.0162,-0.043,-0.0753,-0.1017,-0.1326,-0.1572,-0.1675,-0.1665,-0.1644,-0.1636,-0.1632,-0.4683,-0.4769,-0.4859,-0.4949,-0.5025,-0.5022,-0.5148,-0.5173,-0.5161,-0.5345,-0.5308,-0.5188,-0.5188,-0.5192,-0.5192,-0.5188,-0.532,-0.5382,-0.5382,-0.5382,-0.5382,-0.5382,-0.5382,-0.5382,-0.5382,-0.5382,-0.5382,-0.5382,-0.5382,-0.5382,-0.5382,-0.5382,-0.5382,-0.5382,-0.5382,-0.5382,-0.5382,-0.5382,-0.5382,-0.5382,-0.5382,-0.5382,-0.5382,-0.5382,-0.5382,-0.5382,-0.5382,-0.5382,-0.5382,-0.5382,-0.5382,-0.5382,-0.5382,-0.5382,-0.5382,-0.5382,-0.5382,-0.5382,-0.5382,-0.5382,-0.5437,-0.5712,-0.6047,-0.6274,-0.633,-0.6492,-0.6715,-0.6715,-0.6715,-0.6771,-0.7099,-0.721,-0.721,-0.721,-0.721,-0.721,-0.721,-0.721,-0.6821,-0.5596,-0.6371,-0.6599,-0.4815,-0.5489,-0.5656,-0.386,-0.358,-0.3134,-0.1903,-0.0728,0.0336,0.1177,0.1065,0.0897,0.0897,0.0617,0.0393,0.0393,0.0168,0.0,0.0,0.0,-0.011,-0.0383,-0.0754,-0.1014,-0.1281,-0.1546,-0.1704,-0.1704,-0.1675,-0.1663,-0.4683,-0.4818,-0.4937,-0.4965,-0.5067,-0.5177,-0.5176,-0.5168,-0.5239,-0.5357,-0.5308,-0.5188,-0.5188,-0.5296,-0.532,-0.52,-0.532,-0.5382,-0.5382,-0.5382,-0.5382,-0.5382,-0.5382,-0.5382,-0.5382,-0.5382,-0.5382,-0.5382,-0.5382,-0.5382,-0.5382,-0.5382,-0.5382,-0.5382,-0.5382,-0.5382,-0.5382,-0.5382,-0.5382,-0.5382,-0.5382,-0.5382,-0.5382,-0.5382,-0.5382,-0.5382,-0.5382,-0.5382,-0.5382,-0.5382,-0.5382,-0.5382,-0.5382,-0.5382,-0.5382,-0.5382,-0.5382,-0.5382,-0.5382,-0.5382,-0.5437,-0.5712,-0.6047,-0.633,-0.6548,-0.6826,-0.7043,-0.7043,-0.7043,-0.7099,-0.7154,-0.721,-0.721,-0.721,-0.721,-0.6988,-0.6093,-0.5926,-0.5592,-0.4362,-0.492,-0.5142,-0.3748,-0.4365,-0.4592,-0.3192,-0.2241,-0.1289,-0.0056,0.0393,0.0729,0.1009,0.0953,0.0785,0.0561,0.0449,0.0336,0.0112,0.0056,0.0,0.0,0.0,-0.0111,-0.039,-0.072,-0.1043,-0.1303,-0.1628,-0.1509,-0.1064,-0.1059,-0.0845,-0.4875,-0.4973,-0.5043,-0.5116,-0.519,-0.52,-0.5292,-0.53,-0.5316,-0.5369,-0.5337,-0.53,-0.53,-0.5345,-0.5365,-0.5308,-0.5345,-0.5382,-0.5382,-0.5382,-0.5382,-0.5382,-0.5382,-0.5382,-0.5382,-0.5382,-0.5382,-0.5382,-0.5382,-0.5382,-0.5382,-0.5382,-0.5382,-0.5382,-0.5382,-0.5382,-0.5382,-0.5382,-0.5382,-0.5382,-0.5382,-0.5382,-0.5382,-0.5382,-0.5382,-0.5382,-0.5382,-0.5382,-0.5382,-0.5382,-0.5382,-0.5382,-0.5382,-0.5382,-0.5382,-0.5382,-0.5382,-0.5382,-0.5382,-0.5382,-0.5437,-0.5601,-0.5935,-0.633,-0.6492,-0.6826,-0.721,-0.721,-0.721,-0.721,-0.721,-0.6821,-0.6599,-0.7099,-0.6821,-0.626,-0.5536,-0.5035,-0.4306,-0.3134,-0.3692,-0.3971,-0.263,-0.3245,-0.3471,-0.2185,-0.0953,0.0056,0.0785,0.0785,0.0729,0.0729,0.0617,0.0449,0.028,0.0224,0.0168,0.0,0.0,0.0112,0.0336,0.0112,-0.0056,-0.0224,-0.0336,-0.0502,-0.0773,-0.0884,-0.0769,-0.0489,-0.0486,-0.0269,-0.5099,-0.5169,-0.5161,-0.5328,-0.5312,-0.5225,-0.5361,-0.5382,-0.5382,-0.5382,-0.5382,-0.5382,-0.5382,-0.5382,-0.5382,-0.5382,-0.5382,-0.5382,-0.5382,-0.5382,-0.5382,-0.5382,-0.5382,-0.5382,-0.5382,-0.5382,-0.5382,-0.5382,-0.5382,-0.5382,-0.5382,-0.5382,-0.5382,-0.5382,-0.5382,-0.5382,-0.5382,-0.5382,-0.5382,-0.5382,-0.5382,-0.5382,-0.5382,-0.5382,-0.5382,-0.5382,-0.5382,-0.5382,-0.5382,-0.5382,-0.5382,-0.5382,-0.5382,-0.5382,-0.5382,-0.5382,-0.5382,-0.5382,-0.5382,-0.5382,-0.5382,-0.5382,-0.5772,-0.6274,-0.6274,-0.6715,-0.7154,-0.721,-0.721,-0.721,-0.721,-0.632,-0.5648,-0.6765,-0.6093,-0.5202,-0.5091,-0.4195,-0.3078,-0.1847,-0.263,-0.2966,-0.1458,-0.2183,-0.2463,-0.1009,0.0112,0.0841,0.0841,0.0561,0.0336,0.0336,0.0168,0.0,0.0,0.0056,0.0056,0.0056,0.0112,0.0393,0.0953,0.0393,0.0112,0.0168,0.0393,0.0336,0.0056,0.028,0.028,0.0056,0.0055,0.011,-0.5014,-0.512,-0.5168,-0.5209,-0.5312,-0.5357,-0.5377,-0.5382,-0.5382,-0.5382,-0.5382,-0.5382,-0.5382,-0.5382,-0.5382,-0.5382,-0.5382,-0.5382,-0.5382,-0.5382,-0.5382,-0.5382,-0.5382,-0.5382,-0.5382,-0.5382,-0.5382,-0.5382,-0.5382,-0.5382,-0.5382,-0.5382,-0.5382,-0.5382,-0.5382,-0.5382,-0.5382,-0.5382,-0.5382,-0.5382,-0.5382,-0.5382,-0.5382,-0.5382,-0.5382,-0.5382,-0.5382,-0.5382,-0.5382,-0.5382,-0.5382,-0.5382,-0.5382,-0.5382,-0.5382,-0.5382,-0.5382,-0.5382,-0.5382,-0.5382,-0.5382,-0.5382,-0.5601,-0.5935,-0.6219,-0.6548,-0.6882,-0.7099,-0.721,-0.721,-0.721,-0.632,-0.5481,-0.5704,-0.4868,-0.3748,-0.2798,-0.2351,-0.1847,-0.0616,-0.1344,-0.1791,-0.0505,-0.1288,-0.1623,-0.0393,0.0,0.0168,0.0168,0.0112,0.0112,0.0112,0.0056,0.0,0.0,0.0449,0.0729,0.0729,0.1177,0.1458,0.1626,0.1009,0.0953,0.1402,0.1234,0.0953,0.0729,0.0505,0.0505,0.0729,0.0726,0.0948,-0.5067,-0.5141,-0.5202,-0.5288,-0.5345,-0.5382,-0.5382,-0.5382,-0.5382,-0.5382,-0.5382,-0.5382,-0.5382,-0.5382,-0.5382,-0.5382,-0.5382,-0.5382,-0.5382,-0.5382,-0.5382,-0.5382,-0.5382,-0.5382,-0.5382,-0.5382,-0.5382,-0.5382,-0.5382,-0.5382,-0.5382,-0.5382,-0.5382,-0.5382,-0.5382,-0.5382,-0.5382,-0.5382,-0.5382,-0.5382,-0.5382,-0.5382,-0.5382,-0.5382,-0.5382,-0.5382,-0.5382,-0.5382,-0.5382,-0.5382,-0.5382,-0.5382,-0.5382,-0.5382,-0.5382,-0.5382,-0.5382,-0.5382,-0.5382,-0.5382,-0.5382,-0.5382,-0.5717,-0.6047,-0.6274,-0.6604,-0.6988,-0.7154,-0.6765,-0.632,-0.632,-0.5031,-0.3692,-0.3692,-0.3189,-0.2574,-0.1959,-0.1344,-0.0728,-0.0112,-0.0504,-0.0728,-0.0112,-0.0504,-0.0728,-0.0112,0.0,0.0,0.0,0.0,0.0,0.0,0.0,0.0112,0.0393,0.0729,0.1009,0.129,0.1626,0.1908,0.2244,0.1908,0.1795,0.1795,0.1908,0.1795,0.1514,0.1514,0.1514,0.1514,0.1402,0.1514,-0.5083,-0.5165,-0.5173,-0.5341,-0.5382,-0.5382,-0.5382,-0.5382,-0.5382,-0.5382,-0.5382,-0.5382,-0.5382,-0.5382,-0.5382,-0.5382,-0.5382,-0.5382,-0.5382,-0.5382,-0.5382,-0.5382,-0.5382,-0.5382,-0.5382,-0.5382,-0.5382,-0.5382,-0.5382,-0.5382,-0.5382,-0.5382,-0.5382,-0.5382,-0.5382,-0.5382,-0.5382,-0.5382,-0.5382,-0.5382,-0.5382,-0.5382,-0.5382,-0.5382,-0.5382,-0.5382,-0.5382,-0.5382,-0.5382,-0.5382,-0.5382,-0.5382,-0.5382,-0.5382,-0.5382,-0.5382,-0.5382,-0.5382,-0.5382,-0.5382,-0.5382,-0.5382,-0.5772,-0.6219,-0.6274,-0.6659,-0.7099,-0.6932,-0.6149,-0.5369,-0.5146,-0.3469,-0.1791,-0.1791,-0.1623,-0.1512,-0.1512,-0.0728,0.0,0.0,0.0,0.0,0.0,0.0,0.0,0.0,0.0,0.0,0.0,0.0,0.0,0.0,0.0,0.0224,0.0729,0.0953,0.129,0.1795,0.202,0.2356,0.2861,0.2861,0.2636,0.213,0.258,0.2692,0.2356,0.258,0.2524,0.2188,0.1908,0.1795,-0.4998,-0.5116,-0.5196,-0.5357,-0.5382,-0.5382,-0.5382,-0.5382,-0.5382,-0.5382,-0.5382,-0.5382,-0.5382,-0.5382,-0.5382,-0.5382,-0.5382,-0.5382,-0.5382,-0.5382,-0.5382,-0.5382,-0.5382,-0.5382,-0.5382,-0.5382,-0.5382,-0.5382,-0.5382,-0.5382,-0.5382,-0.5382,-0.5382,-0.5382,-0.5382,-0.5382,-0.5382,-0.5382,-0.5382,-0.5382,-0.5382,-0.5382,-0.5382,-0.5382,-0.5382,-0.5382,-0.5382,-0.5382,-0.5382,-0.5382,-0.5382,-0.5382,-0.5382,-0.5382,-0.5382,-0.5382,-0.5382,-0.5382,-0.5382,-0.5382,-0.5382,-0.5382,-0.5601,-0.5935,-0.6219,-0.6492,-0.6604,-0.5875,-0.5541,-0.5146,-0.4139,-0.2798,-0.1791,-0.1791,-0.1009,-0.0224,-0.0224,-0.0112,0.0,0.0,0.0,0.0,0.0,0.0,0.0,0.0,0.0,0.0,0.0,0.0,0.0,0.0,0.0,0.0056,0.0112,0.1065,0.1739,0.1795,0.2802,0.3418,0.3477,0.3477,0.3418,0.3362,0.3418,0.3306,0.297,0.2805,0.2524,0.2188,0.1908,0.1795,-0.5018,-0.5145,-0.5213,-0.5357,-0.5382,-0.5382,-0.5382,-0.5382,-0.5382,-0.5382,-0.5382,-0.5382,-0.5382,-0.5382,-0.5382,-0.5382,-0.5382,-0.5382,-0.5382,-0.5382,-0.5382,-0.5382,-0.5382,-0.5382,-0.5382,-0.5382,-0.5382,-0.5382,-0.5382,-0.5382,-0.5382,-0.5382,-0.5382,-0.5382,-0.5382,-0.5382,-0.5382,-0.5382,-0.5382,-0.5382,-0.5382,-0.5382,-0.5382,-0.5382,-0.5382,-0.5382,-0.5382,-0.5382,-0.5382,-0.5382,-0.5382,-0.5382,-0.5382,-0.5382,-0.5382,-0.5382,-0.5382,-0.5382,-0.5382,-0.5382,-0.5382,-0.5382,-0.5717,-0.6102,-0.6274,-0.6158,-0.5875,-0.5481,-0.4418,-0.3245,-0.2742,-0.1679,-0.0784,-0.0784,-0.0392,0.0,0.0,0.0,0.0,0.0,0.0,0.0,0.0,0.0,0.0,0.0,0.0,0.0,0.0,0.028,0.0505,0.0505,0.0785,0.1121,0.1458,0.202,0.2468,0.2802,0.3309,0.3589,0.3589,0.3589,0.3589,0.3589,0.3589,0.353,0.3362,0.3082,0.2748,0.2468,0.2188,0.1964,-0.503,-0.5124,-0.5202,-0.5316,-0.5345,-0.5353,-0.5377,-0.5382,-0.5382,-0.5382,-0.5382,-0.5382,-0.5382,-0.5382,-0.5382,-0.5382,-0.5382,-0.5382,-0.5382,-0.5382,-0.5382,-0.5382,-0.5382,-0.5382,-0.5382,-0.5382,-0.5382,-0.5382,-0.5382,-0.5382,-0.5382,-0.5382,-0.5382,-0.5382,-0.5382,-0.5382,-0.5382,-0.5382,-0.5382,-0.5382,-0.5382,-0.5382,-0.5382,-0.5382,-0.5382,-0.5382,-0.5382,-0.5382,-0.5382,-0.5382,-0.5382,-0.5382,-0.5382,-0.5382,-0.5382,-0.5382,-0.5382,-0.5382,-0.5382,-0.5382,-0.5382,-0.5382,-0.5605,-0.5824,-0.5824,-0.5429,-0.4868,-0.4589,-0.3189,-0.1735,-0.14,-0.0672,0.0,0.0,0.0,0.0,0.0,0.0,0.0,0.0,0.0,0.0,0.0,0.0,0.0,0.0,0.0112,0.0224,0.0224,0.0729,0.1121,0.1121,0.1514,0.1964,0.2412,0.2638,0.2917,0.3365,0.3533,0.3589,0.3589,0.3589,0.3589,0.3589,0.3589,0.3589,0.3589,0.325,0.297,0.2694,0.2356,0.2076,-0.4953,-0.4981,-0.5026,-0.5152,-0.5196,-0.5221,-0.5361,-0.5382,-0.5382,-0.5382,-0.5382,-0.5382,-0.5382,-0.5382,-0.5382,-0.5382,-0.5382,-0.5382,-0.5382,-0.5382,-0.5382,-0.5382,-0.5382,-0.5382,-0.5382,-0.5382,-0.5382,-0.5382,-0.5382,-0.5382,-0.5382,-0.5382,-0.5382,-0.5382,-0.5382,-0.5382,-0.5382,-0.5382,-0.5382,-0.5382,-0.5382,-0.5382,-0.5382,-0.5382,-0.5382,-0.5382,-0.5382,-0.5382,-0.5382,-0.5382,-0.5382,-0.5382,-0.5382,-0.5382,-0.5382,-0.5382,-0.5382,-0.5382,-0.5382,-0.5382,-0.5382,-0.5382,-0.5043,-0.4592,-0.4592,-0.4198,-0.3469,-0.2295,-0.1903,-0.1512,-0.0392,-0.0056,0.0,0.0,0.0,0.0,0.0,0.0,0.0,0.0,0.0,0.0,0.0,0.0,0.0,0.0,0.0505,0.0841,0.0841,0.1402,0.1739,0.1739,0.1795,0.1795,0.1851,0.2356,0.2694,0.2751,0.3309,0.3589,0.3589,0.3589,0.3589,0.3589,0.3589,0.3589,0.3589,0.325,0.297,0.2694,0.2356,0.2076,-0.4945,-0.5025,-0.5002,-0.5124,-0.5148,-0.5196,-0.5284,-0.5341,-0.5382,-0.5382,-0.5382,-0.5382,-0.5382,-0.5382,-0.5382,-0.5382,-0.5382,-0.5382,-0.5382,-0.5382,-0.5382,-0.5382,-0.5382,-0.5382,-0.5382,-0.5382,-0.5382,-0.5382,-0.5382,-0.5382,-0.5382,-0.5382,-0.5382,-0.5382,-0.5382,-0.5382,-0.5382,-0.5382,-0.5382,-0.5382,-0.5382,-0.5382,-0.5382,-0.5382,-0.5382,-0.5382,-0.5382,-0.5382,-0.5382,-0.5382,-0.5382,-0.5382,-0.5382,-0.5382,-0.5382,-0.5382,-0.5382,-0.5382,-0.5382,-0.5382,-0.527,-0.448,-0.4365,-0.4365,-0.358,-0.291,-0.2351,-0.1903,-0.1232,-0.056,-0.0112,0.0,0.0,0.0,0.0,0.0112,0.0505,0.028,0.0,0.0,0.0,0.0,0.0,0.0336,0.0561,0.0561,0.1065,0.1458,0.1458,0.202,0.2356,0.2356,0.2748,0.297,0.297,0.3141,0.3253,0.3253,0.3477,0.3589,0.3589,0.3589,0.3589,0.3589,0.3589,0.3589,0.3589,0.3474,0.325,0.297,0.2636,0.2356,-0.4908,-0.4924,-0.4949,-0.5039,-0.5108,-0.5169,-0.5176,-0.5292,-0.5345,-0.5373,-0.5382,-0.5382,-0.5382,-0.5382,-0.5382,-0.5382,-0.5382,-0.5382,-0.5382,-0.5382,-0.5382,-0.5382,-0.5382,-0.5382,-0.5382,-0.5382,-0.5382,-0.5382,-0.5382,-0.5382,-0.5382,-0.5382,-0.5382,-0.5382,-0.5382,-0.5382,-0.5382,-0.5382,-0.5382,-0.5382,-0.5382,-0.5382,-0.5382,-0.5382,-0.5382,-0.5382,-0.5382,-0.5382,-0.5382,-0.5382,-0.5382,-0.5382,-0.5382,-0.5382,-0.5382,-0.5382,-0.5382,-0.5382,-0.5382,-0.5154,-0.4704,-0.3974,-0.3527,-0.3138,-0.2423,-0.175,-0.1187,-0.1194,-0.0627,0.0,0.0,0.017,0.0339,0.0565,0.0619,0.0729,0.1121,0.0729,0.0336,0.0561,0.0617,0.0617,0.0617,0.0953,0.1177,0.1177,0.1739,0.2076,0.2076,0.2636,0.3029,0.3029,0.3365,0.3589,0.3589,0.3589,0.3589,0.3589,0.3589,0.3589,0.3589,0.3589,0.3589,0.3589,0.3589,0.3589,0.3589,0.3589,0.3362,0.297,0.2805,0.2917,0.0,0.0,0.0,-0.4945,-0.5021,-0.5018,-0.5144,-0.5184,-0.5217,-0.5361,-0.5377,-0.5382,-0.5382,-0.5382,-0.5382,-0.5382,-0.5382,-0.5382,-0.5382,-0.5382,-0.5382,-0.5382,-0.5382,-0.5382,-0.5382,-0.5382,-0.5382,-0.5382,-0.5382,-0.5382,-0.5382,-0.5382,-0.5382,-0.5382,-0.5382,-0.5382,-0.5382,-0.5382,-0.5382,-0.5382,-0.5382,-0.5382,-0.5382,-0.5382,-0.5382,-0.5382,-0.5382,-0.5382,-0.5382,-0.5382,-0.5382,-0.5382,-0.5382,-0.5382,-0.5437,-0.5382,-0.5382,-0.5382,-0.5382,-0.4592,-0.3583,-0.3807,-0.2522,-0.0958,-0.1203,-0.069,0.0,0.0,0.0,0.0059,0.0059,0.0466,0.1093,0.1727,0.1875,0.1797,0.1853,0.1348,0.1122,0.1683,0.1795,0.1795,0.1795,0.1795,0.1851,0.1851,0.2356,0.2751,0.2751,0.3253,0.3589,0.3589,0.3589,0.3589,0.3589,0.3589,0.3589,0.3589,0.3589,0.3589,0.3589,0.3589,0.3589,0.3589,0.3589,0.3589,0.3589,0.3589,0.3309,0.2751,0.2751,0.3695,-0.4784,0.0,0.0,0.0,0.0,0.0,-0.5035,-0.5149,-0.5196,-0.5221,-0.5337,-0.5382,-0.5382,-0.5382,-0.5382,-0.5382,-0.5382,-0.5382,-0.5382,-0.5382,-0.5382,-0.5382,-0.5382,-0.5382,-0.5382,-0.5382,-0.5382,-0.5382,-0.5382,-0.5382,-0.5382,-0.5382,-0.5382,-0.5382,-0.5382,-0.5382,-0.5382,-0.5382,-0.5382,-0.5382,-0.5382,-0.5382,-0.5382,-0.5382,-0.5382,-0.5382,-0.5382,-0.5382,-0.5382,-0.5382,-0.5382,-0.5382,-0.5382,-0.5493,-0.5656,-0.5493,-0.5098,-0.4704,-0.448,-0.3779,-0.2794,-0.1996,-0.1495,-0.1046,-0.0292,-0.0059,0.0,0.0,0.0353,0.0824,0.1294,0.1584,0.1754,0.1929,0.198,0.209,0.2498,0.2417,0.2161,0.1856,0.1795,0.1795,0.1795,0.2188,0.2468,0.2468,0.2973,0.3365,0.3365,0.3477,0.3589,0.3589,0.3589,0.3589,0.3589,0.3589,0.3589,0.3589,0.3589,0.3589,0.3589,0.3589,0.3589,0.3589,0.3589,0.3589,0.3589,0.3589,0.3533,0.3365,0.381,0.4477,-0.438,-0.4457,-0.4475,-0.4591,0.0,0.0,-0.501,-0.5112,-0.521,-0.5284,-0.5345,-0.5382,-0.5382,-0.5382,-0.5382,-0.5382,-0.5382,-0.5382,-0.5382,-0.5382,-0.5382,-0.5382,-0.5382,-0.5382,-0.5382,-0.5382,-0.5382,-0.5382,-0.5382,-0.5382,-0.5382,-0.5382,-0.5382,-0.5382,-0.5382,-0.5382,-0.5382,-0.5382,-0.5382,-0.5382,-0.5382,-0.5382,-0.5382,-0.5382,-0.5382,-0.5382,-0.5382,-0.5382,-0.5382,-0.5382,-0.5382,-0.5437,-0.5549,-0.5656,-0.5712,-0.521,-0.4815,-0.4372,-0.3726,-0.279,-0.1783,-0.0984,-0.0467,0.0,0.0831,0.0951,0.0833,0.0839,0.1141,0.1561,0.2221,0.2389,0.2436,0.2733,0.2779,0.2825,0.3178,0.3272,0.3121,0.267,0.2592,0.2522,0.2522,0.2861,0.3085,0.3085,0.3365,0.3589,0.3589,0.3589,0.3589,0.3589,0.3589,0.3589,0.3589,0.3589,0.3589,0.3589,0.3589,0.3589,0.3589,0.3589,0.3589,0.3589,0.3589,0.3589,0.3589,0.3589,0.3477,0.3253,0.3977,0.4697,-0.3779,-0.392,-0.4054,-0.4234,-0.4514,0.0,-0.5026,-0.5132,-0.5247,-0.5359,-0.54,-0.5409,-0.5353,-0.5353,-0.5353,-0.5353,-0.5361,-0.5369,-0.5382,-0.5382,-0.5382,-0.5382,-0.5382,-0.5382,-0.5382,-0.5382,-0.5382,-0.5382,-0.5382,-0.5382,-0.5382,-0.5382,-0.5382,-0.5382,-0.5382,-0.5382,-0.5382,-0.5382,-0.5382,-0.5382,-0.5382,-0.5382,-0.5382,-0.5382,-0.5382,-0.5382,-0.5382,-0.5382,-0.5382,-0.5437,-0.5437,-0.5437,-0.5712,-0.5764,-0.5541,-0.476,-0.4372,-0.4052,-0.2913,-0.1728,-0.0637,-0.0352,0.0532,0.1543,0.1865,0.1993,0.1999,0.2089,0.2096,0.2282,0.2899,0.3054,0.3142,0.3749,0.3828,0.379,0.379,0.3785,0.3822,0.3709,0.3649,0.3605,0.36,0.3597,0.3594,0.3589,0.3589,0.3589,0.3589,0.3589,0.3589,0.3589,0.3589,0.3589,0.3589,0.3589,0.3589,0.3589,0.3589,0.3589,0.3589,0.3589,0.3589,0.3589,0.3586,0.353,0.353,0.3586,0.3365,0.2917,0.3807,0.4752,-0.366,-0.3785,-0.3939,-0.3971,-0.4369,0.0,-0.4769,-0.5247,-0.5629,-0.5413,-0.543,-0.5433,-0.5215,-0.5161,-0.5161,-0.5161,-0.5222,-0.5296,-0.5369,-0.5382,-0.5382,-0.5382,-0.5382,-0.5382,-0.5382,-0.5382,-0.5382,-0.5382,-0.5382,-0.5382,-0.5382,-0.5382,-0.5382,-0.5382,-0.5382,-0.5382,-0.5382,-0.5382,-0.5382,-0.5382,-0.5382,-0.5382,-0.5382,-0.5382,-0.5382,-0.5382,-0.5382,-0.5382,-0.5437,-0.5656,-0.5601,-0.5437,-0.5712,-0.5373,-0.476,-0.4536,-0.3557,-0.2229,-0.1722,-0.0585,0.0658,0.072,0.1271,0.1895,0.1963,0.2026,0.2089,0.265,0.2775,0.296,0.3579,0.3694,0.3748,0.3871,0.3863,0.3855,0.3855,0.3877,0.3899,0.3888,0.3836,0.3719,0.367,0.3659,0.3643,0.3594,0.3589,0.3589,0.3589,0.3589,0.3589,0.3589,0.3589,0.3589,0.3589,0.3589,0.3589,0.3589,0.3589,0.3589,0.3589,0.3589,0.3589,0.3589,0.3362,0.3194,0.3194,0.3474,0.381,0.4201,0.5314,0.6204,-0.3071,-0.3286,-0.3469,-0.3629,-0.398,0.0,0.0,-0.4081,-0.4515,-0.4441,-0.4703,-0.5002,-0.5426,-0.5479,-0.5479,-0.532,-0.5347,-0.5352,-0.5247,-0.5324,-0.5382,-0.5382,-0.5382,-0.5382,-0.5382,-0.5382,-0.5382,-0.5382,-0.5382,-0.5382,-0.5382,-0.5382,-0.5382,-0.5382,-0.5382,-0.5382,-0.5382,-0.5382,-0.5382,-0.5382,-0.5382,-0.5382,-0.5382,-0.5382,-0.5382,-0.5382,-0.5382,-0.5382,-0.5437,-0.5545,-0.5094,-0.4309,-0.5035,-0.5091,-0.4592,-0.3559,-0.2394,-0.1208,-0.041,0.0595,0.157,0.1886,0.2207,0.2529,0.2837,0.296,0.3022,0.3332,0.3455,0.3517,0.3828,0.3889,0.3889,0.3889,0.3889,0.3889,0.3889,0.3927,0.3905,0.3905,0.388,0.3831,0.3739,0.3725,0.3703,0.3643,0.3632,0.3621,0.3591,0.3589,0.3589,0.3589,0.3589,0.3589,0.3589,0.3589,0.3589,0.3589,0.3589,0.3589,0.3589,0.3589,0.3589,0.3589,0.325,0.3082,0.3082,0.3138,0.3197,0.3418,0.5369,0.626,-0.2437,-0.2699,-0.2925,-0.2973,-0.324,-0.3263,0.0,0.0,0.0,-0.307,-0.3409,-0.3998,-0.489,-0.5051,-0.5039,-0.4906,-0.5161,-0.5149,-0.4676,-0.5148,-0.5439,-0.5328,-0.5361,-0.5373,-0.5357,-0.5357,-0.5361,-0.5382,-0.5365,-0.5361,-0.5382,-0.5382,-0.5382,-0.5382,-0.5382,-0.5382,-0.5382,-0.5382,-0.5382,-0.5382,-0.5382,-0.5382,-0.5382,-0.527,-0.5214,-0.521,-0.4875,-0.4704,-0.4704,-0.4592,-0.381,-0.2809,-0.4099,-0.4326,-0.3658,-0.2004,-0.0924,-0.0116,0.0836,0.1631,0.2305,0.2825,0.3086,0.3271,0.3766,0.3889,0.3889,0.3889,0.3889,0.3889,0.3889,0.3889,0.3889,0.3889,0.3889,0.3889,0.3889,0.3889,0.3889,0.3889,0.3889,0.3855,0.3807,0.3847,0.3824,0.3706,0.3695,0.3679,0.363,0.361,0.3605,0.3605,0.3594,0.3589,0.3589,0.3589,0.3589,0.3589,0.3589,0.3589,0.3589,0.3589,0.3589,0.3589,0.3194,0.3026,0.3026,0.2748,0.2636,0.2692,0.5091,0.6093,-0.2273,-0.2462,-0.246,-0.1667,-0.1784,-0.1944,-0.1263,0.0,-0.1752,-0.1583,0.0,-0.167,-0.2024,0.0,0.0,-0.2668,-0.3679,-0.4013,-0.3034,-0.4608,-0.5669,-0.5194,-0.5284,-0.5349,-0.5213,-0.5204,-0.5296,-0.5373,-0.5304,-0.5296,-0.5377,-0.5382,-0.5382,-0.5382,-0.5382,-0.5382,-0.5382,-0.5382,-0.5382,-0.5382,-0.5382,-0.5382,-0.5382,-0.4875,-0.4592,-0.4536,-0.2908,-0.2235,-0.218,-0.1619,-0.1294,-0.1254,-0.2968,-0.2228,-0.0115,-0.0058,0.0709,0.1678,0.1865,0.231,0.2893,0.296,0.3332,0.3828,0.3889,0.3889,0.3889,0.3889,0.3889,0.3889,0.3889,0.3889,0.3889,0.3889,0.3889,0.3889,0.3889,0.3889,0.3889,0.3889,0.3889,0.3868,0.3861,0.391,0.3888,0.3827,0.3816,0.3816,0.3749,0.37,0.3668,0.3668,0.3619,0.3589,0.3589,0.3589,0.3589,0.3589,0.3589,0.3589,0.3589,0.3589,0.3589,0.3589,0.3029,0.2748,0.2748,0.2412,0.2914,0.4257,0.5369,0.6366,-0.22,-0.2327,-0.2238,-0.1441,-0.136,-0.1139,0.0235,0.0142,-0.024,-0.0192,0.0,0.0,0.0,0.0,0.0,0.0,-0.2631,-0.2871,-0.2552,-0.3365,-0.4146,-0.4362,-0.5016,-0.5393,-0.5243,-0.5292,-0.5341,-0.5377,-0.5345,-0.5341,-0.5377,-0.5382,-0.5382,-0.5382,-0.5382,-0.5382,-0.5382,-0.5382,-0.5382,-0.5382,-0.5043,-0.4875,-0.4819,-0.3525,-0.2908,-0.2852,-0.1396,-0.0838,-0.095,-0.0733,-0.0171,0.0402,-0.0292,-0.0176,0.0408,0.1007,0.1796,0.2594,0.2557,0.3007,0.3517,0.3517,0.3702,0.3889,0.3889,0.3889,0.3889,0.3889,0.3889,0.3889,0.3889,0.3889,0.3889,0.3889,0.3889,0.3889,0.3889,0.3889,0.3889,0.3889,0.3889,0.3881,0.3918,0.3913,0.3891,0.3891,0.3883,0.3869,0.3833,0.3747,0.373,0.373,0.3709,0.3679,0.3643,0.364,0.3624,0.3589,0.3589,0.3589,0.3589,0.3589,0.3589,0.3589,0.3029,0.2694,0.2694,0.2188,0.2354,0.3194,0.4254,0.492,-0.1751,-0.1698,-0.1504,-0.0559,-0.0281,0.019,0.1643,0.1643,0.1366,0.128,0.1017,0.0,0.0,0.0,-0.0601,-0.0943,0.0,-0.1478,-0.1345,-0.1946,-0.2672,-0.3409,-0.4215,-0.4631,-0.4439,-0.4443,-0.4595,-0.4893,-0.4893,-0.502,-0.5382,-0.5382,-0.5382,-0.5382,-0.5382,-0.5382,-0.5382,-0.5214,-0.5154,-0.5154,-0.4536,-0.4086,-0.3692,-0.2235,-0.1397,-0.1005,0.0393,0.0844,0.062,0.0859,0.1446,0.2214,0.2207,0.1797,0.1311,0.2173,0.2851,0.3221,0.3257,0.3517,0.3889,0.3889,0.3889,0.3889,0.3889,0.3889,0.3889,0.3889,0.3889,0.3889,0.3889,0.3889,0.3889,0.3889,0.3889,0.3889,0.3889,0.3889,0.3889,0.3889,0.3889,0.3889,0.3889,0.3889,0.3873,0.3891,0.3886,0.3869,0.3826,0.3804,0.3855,0.3855,0.3838,0.3752,0.3706,0.3703,0.3676,0.3616,0.3597,0.3589,0.3589,0.3589,0.3589,0.3589,0.3085,0.2748,0.2694,0.2188,0.1964,0.2132,0.3304,0.3804,-0.0696,-0.0343,0.0049,0.1773,0.2251,0.2404,0.2769,0.2964,0.302,0.3012,0.3046,0.2924,0.2368,0.2267,0.2093,0.0,0.0591,0.0,0.0,-0.0345,-0.1813,-0.2374,-0.2619,-0.2613,-0.239,-0.2289,-0.2627,-0.3597,-0.3548,-0.4015,-0.5322,-0.5382,-0.5382,-0.5382,-0.5382,-0.5382,-0.5382,-0.4819,-0.4536,-0.4536,-0.3921,-0.3024,-0.1844,-0.1231,-0.028,0.0894,0.2786,0.3382,0.3155,0.4144,0.4391,0.4211,0.3916,0.3833,0.3761,0.3822,0.3825,0.3887,0.3889,0.3889,0.3889,0.3889,0.3889,0.3889,0.3889,0.3889,0.3889,0.3889,0.3889,0.3889,0.3889,0.3889,0.3889,0.3889,0.3889,0.3889,0.3889,0.3889,0.3889,0.3889,0.3889,0.3889,0.3889,0.3889,0.3889,0.3887,0.3887,0.3887,0.3884,0.3894,0.3919,0.3919,0.3863,0.3827,0.3824,0.3824,0.3741,0.3679,0.3621,0.3589,0.3589,0.3589,0.3589,0.3589,0.325,0.297,0.2694,0.2356,0.2076,0.1851,0.3024,0.3748,-0.1488,-0.1346,-0.0886,0.0942,0.1292,0.1592,0.298,0.318,0.3111,0.305,0.3085,0.307,0.2872,0.2902,0.2764,0.0,0.0,0.1606,0.0,0.1,0.0453,0.0252,-0.0768,-0.1401,-0.1147,-0.2133,-0.2871,-0.305,-0.4079,-0.4731,-0.4815,-0.4815,-0.4596,-0.4204,-0.4204,-0.4204,-0.4204,-0.398,-0.3527,-0.2684,-0.2127,-0.1175,0.0056,0.1453,0.2307,0.2843,0.429,0.462,0.4205,0.4631,0.4498,0.4045,0.3966,0.3871,0.3889,0.3889,0.3889,0.3889,0.3889,0.3889,0.3889,0.3889,0.3889,0.3889,0.3889,0.3889,0.3889,0.3889,0.3889,0.3889,0.3889,0.3889,0.3889,0.3889,0.3889,0.3889,0.3889,0.3889,0.3889,0.3889,0.3889,0.3889,0.3889,0.3889,0.3889,0.3889,0.3889,0.3889,0.3889,0.3871,0.3921,0.3921,0.3902,0.3872,0.3894,0.3852,0.3819,0.3739,0.3719,0.3689,0.3649,0.3649,0.363,0.3589,0.325,0.297,0.2694,0.2356,0.2076,0.1795,0.2242,0.269,-0.138,-0.1236,-0.0865,0.0567,0.1181,0.1637,0.2677,0.3095,0.3294,0.3254,0.3166,0.3235,0.3481,0.3332,0.3136,0.0,0.0,0.0,0.0,0.2169,0.2169,0.2169,0.0866,0.0103,0.0414,-0.0528,-0.1237,-0.1307,-0.2311,-0.3445,-0.476,-0.358,-0.2908,-0.2966,-0.2519,-0.2519,-0.2966,-0.2295,-0.1621,-0.0838,-0.0224,0.0617,0.1747,0.3047,0.3873,0.4287,0.5067,0.517,0.4753,0.4707,0.4377,0.3897,0.3873,0.3889,0.3889,0.3889,0.3889,0.3889,0.3889,0.3889,0.3889,0.3889,0.3889,0.3889,0.3889,0.3889,0.3889,0.3889,0.3889,0.3889,0.3889,0.3889,0.3889,0.3889,0.3889,0.3889,0.3889,0.3889,0.3889,0.3889,0.3889,0.3889,0.3889,0.3889,0.3889,0.3889,0.3889,0.3889,0.3889,0.3889,0.3889,0.3889,0.3889,0.3873,0.3897,0.3837,0.386,0.386,0.3841,0.3811,0.3711,0.3711,0.3692,0.3654,0.346,0.311,0.2717,0.2476,0.2188,0.1795,0.1795,0.2132]},{"header":{"parameterUnit":"m.s-1","parameterCategory":1,"la1":30.6,"la2":29.2853,"lo1":-89.7004,"lo2":-87.6739,"dy":0.0162,"dx":0.0183,"nx":112,"ny":82,"refTime":"2023-03-01T06:00:00:Z","depth":0,"parameterNumber":3,"parameterNumberName":"V-component_of_WINDS"},"data":[0.0,0.0,0.0,0.0,0.0,0.0,0.0,0.0,0.0,0.0,0.0,0.0,0.0,0.0,0.0,0.0,0.0,0.0,0.0,0.0,0.0,0.0,0.0,0.0,0.0,0.0,0.0,0.0,0.0,0.0,0.0,0.0,0.0,0.0,0.0,0.0,0.0,0.0,0.0,0.0,0.0,0.0,0.0,0.0,0.0,0.0,0.0,0.0,0.0,0.0,0.0,0.0,0.0,0.0,0.0,0.0,0.0,0.0,0.0,0.0,0.0,0.0,0.0,0.0,0.0,0.0,0.0,0.0,0.0,0.0,0.0,0.0,0.0,0.0,0.0,0.0,0.0,0.0,0.0,0.0,0.0,0.0,0.0,0.0,0.0,0.0,0.0,0.0,0.0,0.0,1.7805,1.8082,1.8694,1.8756,1.7905,1.7744,1.7059,1.5472,0.0,0.0,0.0,0.0,0.0,0.0,0.0,0.0,0.0,0.0,0.0,0.0,0.0,0.0,0.0,0.0,0.0,0.0,0.0,0.0,0.0,0.0,0.0,0.0,0.0,0.0,0.0,0.0,0.0,0.0,0.0,0.0,0.0,0.0,0.0,0.0,0.0,0.0,0.0,0.0,0.0,0.0,0.0,0.0,0.0,0.0,0.0,0.0,0.0,0.0,0.0,0.0,0.0,0.0,0.0,0.0,0.0,0.0,0.0,0.0,0.0,0.0,0.0,0.0,0.0,0.0,0.0,0.0,0.0,0.0,0.0,0.0,0.0,0.0,0.0,0.0,0.0,0.0,0.0,0.0,0.0,0.0,0.0,0.0,0.0,0.0,0.0,0.0,0.0,0.0,0.0,0.0,0.0,0.0,0.0,0.0,0.0,0.0,0.0,0.0,0.0,0.0,0.0,0.0,1.8147,1.9306,1.9767,1.9815,1.9405,1.8958,1.7977,1.6321,0.0,0.0,0.0,0.0,0.0,0.0,0.0,0.0,0.0,0.0,0.0,0.0,0.0,0.0,0.0,0.0,0.0,0.0,0.0,0.0,0.0,0.0,0.0,0.0,0.0,0.0,0.0,0.0,0.0,0.0,0.0,0.0,0.0,0.0,0.0,0.0,0.0,0.0,0.0,0.0,0.0,0.0,0.0,0.0,0.0,0.0,0.0,0.0,0.0,0.0,0.0,0.0,0.0,0.0,0.0,0.0,0.0,0.0,0.0,0.0,0.0,0.0,0.0,0.0,0.0,0.0,0.0,0.0,0.0,0.0,0.0,0.0,0.0,0.0,0.0,0.0,0.0,0.0,0.0,0.0,0.0,0.0,0.0,0.0,0.0,0.0,0.0,0.0,0.0,0.0,0.0,0.0,0.0,0.0,0.0,0.0,0.0,0.0,0.0,0.0,0.0,0.0,0.0,1.8335,1.9199,2.0249,2.0334,2.0151,1.983,1.94,1.8595,1.7311,1.6818,0.0,0.0,0.0,0.0,0.0,0.0,0.0,0.0,0.0,0.0,0.0,0.0,0.0,0.0,0.0,0.0,0.0,0.0,0.0,0.0,0.0,0.0,0.0,0.0,0.0,0.0,0.0,0.0,0.0,0.0,0.0,0.0,0.0,0.0,0.0,0.0,0.0,0.0,0.0,0.0,0.0,0.0,0.0,0.0,0.0,0.0,0.0,0.0,0.0,0.0,0.0,0.0,0.0,0.0,0.0,0.0,0.0,0.0,0.0,0.0,0.0,0.0,0.0,0.0,0.0,0.0,0.0,0.0,0.0,0.0,0.0,0.0,0.0,0.0,0.0,0.0,0.0,0.0,0.0,0.0,0.0,0.0,0.0,0.0,0.0,0.0,0.0,0.0,0.0,0.0,0.0,0.0,0.0,0.0,0.0,0.0,0.0,0.0,0.0,0.0,0.0,0.0,1.9659,2.0411,2.0872,2.0848,2.0663,2.0385,1.996,1.926,1.8178,1.7928,0.0,0.0,0.0,0.0,0.0,0.0,0.0,0.0,0.0,0.0,0.0,0.0,0.0,0.0,0.0,0.0,0.0,0.0,0.0,0.0,0.0,0.0,0.0,0.0,0.0,0.0,0.0,0.0,0.0,0.0,0.0,0.0,0.0,0.0,0.0,0.0,0.0,0.0,0.0,0.0,0.0,0.0,0.0,0.0,0.0,0.0,0.0,0.0,0.0,0.0,0.0,0.0,0.0,0.0,0.0,0.0,0.0,0.0,0.0,0.0,0.0,0.0,0.0,0.0,0.0,0.0,0.0,0.0,0.0,0.0,0.0,0.0,0.0,0.0,0.0,0.0,0.0,0.0,0.0,0.0,0.0,0.0,0.0,0.0,0.0,0.0,0.0,0.0,0.0,0.0,0.0,0.0,0.0,0.0,0.0,0.0,0.0,0.0,0.0,0.0,0.0,0.0,2.0643,2.1626,2.1068,2.1516,2.185,2.1767,2.1043,2.009,1.8833,1.8223,0.0,0.0,0.0,0.0,0.0,0.0,0.0,0.0,0.0,0.0,0.0,0.0,0.0,0.0,0.0,0.0,0.0,0.0,0.0,0.0,0.0,0.0,0.0,0.0,0.0,0.0,0.0,0.0,0.0,0.0,0.0,0.0,0.0,0.0,0.0,0.0,0.0,0.0,0.0,0.0,0.0,0.0,0.0,0.0,0.0,0.0,0.0,0.0,0.0,0.0,0.0,0.0,0.0,0.0,0.0,0.0,0.0,0.0,0.0,0.0,0.0,0.0,0.0,0.0,0.0,0.0,0.0,0.0,0.0,0.0,0.0,0.0,0.0,0.0,0.0,0.0,0.0,0.0,0.0,0.0,0.0,0.0,0.0,0.0,0.0,0.0,0.0,0.0,0.0,0.0,0.0,0.0,0.0,0.0,0.0,0.0,0.0,0.0,0.0,0.0,0.0,0.0,2.1823,2.2836,2.2849,2.281,2.2684,2.2477,2.1886,2.1069,1.9979,0.0,0.0,0.0,0.0,0.0,0.0,0.0,0.0,0.0,0.0,0.0,0.0,0.0,0.0,0.0,0.0,0.0,0.0,0.0,0.0,0.0,0.0,0.0,0.0,0.0,0.0,0.0,0.0,0.0,0.0,0.0,0.0,0.0,0.0,0.0,0.0,0.0,0.0,0.0,0.0,0.0,0.0,0.0,0.0,0.0,0.0,0.0,0.0,0.0,0.0,0.0,0.0,0.0,0.0,0.0,0.0,0.0,0.0,0.0,0.0,0.0,0.0,0.0,0.0,0.0,0.0,0.0,0.0,0.0,0.0,0.0,0.0,0.0,0.0,0.0,0.0,0.0,0.0,0.0,0.0,0.0,0.0,0.0,0.0,0.0,0.0,0.0,0.0,0.0,0.0,0.0,0.0,0.0,0.0,0.0,0.0,0.0,0.0,0.0,0.0,0.0,0.0,2.1365,2.2611,2.3522,2.363,2.3306,2.2991,2.2822,2.2381,2.1664,2.0593,0.0,0.0,0.0,0.0,0.0,0.0,0.0,0.0,0.0,0.0,0.0,0.0,0.0,0.0,0.0,0.0,0.0,0.0,0.0,0.0,0.0,0.0,0.0,0.0,0.0,0.0,0.0,0.0,0.0,0.0,0.0,0.0,0.0,0.0,0.0,0.0,0.0,0.0,0.0,0.0,0.0,0.0,0.0,0.0,0.0,0.0,0.0,0.0,0.0,0.0,0.0,0.0,0.0,0.0,0.0,0.0,0.0,0.0,0.0,0.0,0.0,0.0,0.0,0.0,0.0,0.0,0.0,0.0,0.0,0.0,0.0,0.0,0.0,0.0,0.0,0.0,0.0,0.0,0.0,0.0,0.0,0.0,0.0,0.0,0.0,0.0,0.0,0.0,0.0,0.0,0.0,0.0,0.0,0.0,0.0,0.0,0.0,0.0,0.0,0.0,0.0,0.0,2.1704,2.2965,2.3663,2.2988,2.2851,2.2807,2.2807,2.2498,2.175,0.0,0.0,0.0,0.0,0.0,0.0,0.0,0.0,0.0,0.0,0.0,0.0,0.0,0.0,0.0,0.0,0.0,0.0,0.0,0.0,0.0,0.0,0.0,0.0,0.0,0.0,0.0,0.0,0.0,0.0,0.0,0.0,0.0,0.0,0.0,0.0,0.0,0.0,0.0,0.0,0.0,0.0,0.0,0.0,0.0,0.0,0.0,0.0,0.0,0.0,0.0,0.0,0.0,0.0,0.0,0.0,0.0,0.0,0.0,0.0,0.0,0.0,0.0,0.0,0.0,0.0,0.0,0.0,0.0,0.0,0.0,0.0,0.0,0.0,0.0,0.0,0.0,0.0,0.0,0.0,0.0,0.0,0.0,0.0,0.0,0.0,0.0,0.0,0.0,0.0,0.0,0.0,0.0,0.0,0.0,0.0,0.0,0.0,0.0,0.0,0.0,0.0,0.0,2.2501,2.3628,2.4277,2.3811,2.3342,2.2994,2.2822,2.2574,2.191,2.064,0.0,0.0,0.0,0.0,0.0,0.0,0.0,0.0,0.0,0.0,0.0,0.0,0.0,0.0,0.0,0.0,0.0,0.0,0.0,0.0,0.0,0.0,0.0,0.0,0.0,0.0,0.0,0.0,0.0,0.0,0.0,0.0,0.0,0.0,0.0,0.0,0.0,0.0,0.0,0.0,0.0,0.0,0.0,0.0,0.0,0.0,0.0,0.0,0.0,0.0,0.0,0.0,0.0,0.0,0.0,0.0,0.0,0.0,0.0,0.0,0.0,0.0,0.0,0.0,0.0,0.0,0.0,0.0,0.0,0.0,0.0,0.0,0.0,0.0,0.0,0.0,0.0,0.0,0.0,0.0,0.0,0.0,0.0,0.0,0.0,0.0,0.0,0.0,0.0,0.0,0.0,0.0,0.0,0.0,0.0,0.0,0.0,0.0,0.0,0.0,0.0,0.0,2.3006,2.399,2.4697,2.4664,2.4194,2.3901,2.3935,2.3846,2.3323,2.2248,0.0,0.0,0.0,0.0,0.0,0.0,0.0,0.0,0.0,0.0,0.0,0.0,0.0,0.0,0.0,0.0,0.0,0.0,0.0,0.0,0.0,0.0,0.0,0.0,0.0,0.0,0.0,0.0,0.0,0.0,0.0,0.0,0.0,0.0,0.0,0.0,0.0,0.0,0.0,0.0,0.0,0.0,0.0,0.0,0.0,0.0,0.0,0.0,0.0,0.0,0.0,0.0,0.0,0.0,0.0,0.0,0.0,0.0,0.0,0.0,0.0,0.0,0.0,0.0,0.0,0.0,0.0,0.0,0.0,0.0,0.0,0.0,0.0,0.0,0.0,0.0,0.0,0.0,0.0,0.0,0.0,0.0,0.0,0.0,0.0,0.0,0.0,0.0,0.0,0.0,0.0,0.0,0.0,0.0,0.0,0.0,0.0,0.0,0.0,0.0,0.0,0.0,2.3327,2.4167,2.4941,2.5444,2.516,2.5108,2.5641,2.568,2.5364,2.461,0.0,0.0,0.0,0.0,0.0,0.0,0.0,0.0,0.0,0.0,0.0,0.0,0.0,0.0,0.0,0.0,0.0,0.0,0.0,0.0,0.0,0.0,0.0,0.0,0.0,0.0,0.0,0.0,0.0,0.0,0.0,0.0,0.0,0.0,0.0,0.0,0.0,0.0,0.0,0.0,0.0,0.0,0.0,0.0,0.0,0.0,0.0,0.0,0.0,0.0,0.0,0.0,0.0,0.0,0.0,0.0,0.0,0.0,0.0,0.0,2.4007,2.3284,0.0,0.0,0.0,0.0,0.0,0.0,0.0,0.0,0.0,0.0,0.0,0.0,0.0,0.0,0.0,0.0,0.0,0.0,0.0,0.0,0.0,0.0,0.0,0.0,0.0,0.0,0.0,0.0,0.0,0.0,0.0,0.0,0.0,0.0,0.0,0.0,0.0,0.0,0.0,0.0,2.362,2.4479,2.5196,2.5395,2.5096,2.5065,2.5521,2.5548,2.5222,2.4509,2.4302,0.0,0.0,0.0,0.0,0.0,0.0,0.0,0.0,0.0,0.0,0.0,0.0,0.0,0.0,0.0,0.0,0.0,0.0,0.0,0.0,0.0,0.0,0.0,0.0,0.0,0.0,0.0,0.0,0.0,0.0,0.0,0.0,0.0,0.0,0.0,0.0,0.0,0.0,0.0,0.0,0.0,0.0,0.0,0.0,0.0,0.0,0.0,0.0,0.0,0.0,0.0,0.0,0.0,0.0,0.0,0.0,0.0,0.0,0.0,2.4498,2.4241,0.0,0.0,0.0,0.0,0.0,0.0,0.0,0.0,0.0,0.0,0.0,0.0,0.0,0.0,0.0,0.0,0.0,0.0,0.0,0.0,0.0,0.0,0.0,0.0,0.0,0.0,0.0,0.0,0.0,0.0,0.0,0.0,0.0,0.0,0.0,0.0,0.0,0.0,0.0,0.0,2.3652,2.4671,2.5519,2.5866,2.5889,2.6051,2.6507,2.671,2.6614,2.6251,2.5647,0.0,0.0,0.0,0.0,0.0,0.0,0.0,0.0,0.0,0.0,0.0,0.0,0.0,0.0,0.0,0.0,0.0,0.0,0.0,0.0,0.0,0.0,0.0,0.0,0.0,0.0,0.0,0.0,0.0,0.0,0.0,0.0,0.0,0.0,0.0,0.0,0.0,0.0,0.0,0.0,0.0,0.0,0.0,0.0,0.0,0.0,0.0,0.0,0.0,0.0,0.0,0.0,0.0,2.3738,2.4012,2.4066,2.435,2.4974,2.5813,2.5475,2.5561,2.5807,2.4426,0.0,0.0,0.0,0.0,0.0,0.0,0.0,0.0,0.0,0.0,0.0,0.0,0.0,0.0,0.0,0.0,0.0,0.0,0.0,0.0,0.0,0.0,2.4754,2.461,2.5144,2.5512,2.4744,0.0,0.0,0.0,0.0,0.0,0.0,0.0,0.0,0.0,0.0,0.0,2.395,2.491,2.5757,2.6269,2.6603,2.7034,2.7563,2.7968,2.8178,2.8268,2.7072,2.6344,0.0,0.0,0.0,0.0,0.0,0.0,0.0,0.0,0.0,0.0,0.0,0.0,0.0,0.0,0.0,0.0,0.0,0.0,0.0,0.0,0.0,0.0,0.0,0.0,0.0,0.0,0.0,0.0,0.0,0.0,0.0,0.0,2.3475,2.2585,0.0,0.0,0.0,0.0,0.0,0.0,0.0,0.0,0.0,0.0,0.0,0.0,0.0,2.2767,2.282,2.4308,2.5029,2.4984,2.6418,2.7237,2.7459,2.7498,2.7963,2.8679,2.8733,0.0,2.5639,2.5658,0.0,0.0,0.0,0.0,0.0,0.0,0.0,0.0,0.0,0.0,0.0,0.0,0.0,0.0,0.0,0.0,0.0,0.0,0.0,0.0,0.0,0.0,2.6792,2.6776,2.6861,2.693,2.6811,2.5324,2.395,2.3851,2.3834,2.3602,0.0,0.0,0.0,0.0,0.0,0.0,2.5338,2.5462,2.5547,2.5915,2.6288,2.6683,2.7147,2.7758,2.8205,2.8458,2.8121,2.7707,2.7319,2.7136,0.0,0.0,0.0,0.0,0.0,0.0,0.0,0.0,0.0,0.0,0.0,0.0,0.0,0.0,0.0,0.0,0.0,0.0,0.0,0.0,0.0,0.0,0.0,0.0,0.0,0.0,0.0,0.0,0.0,2.3633,2.3287,2.2413,2.2131,2.1848,0.0,0.0,0.0,0.0,0.0,0.0,0.0,0.0,0.0,2.4888,2.4997,2.5208,2.5554,2.6301,2.6683,2.6643,2.7357,2.7891,2.8285,2.831,2.8617,2.9177,2.9437,2.8903,2.779,2.7763,2.7293,2.6536,0.0,0.0,0.0,0.0,2.4552,2.4698,2.5539,2.5868,2.5883,2.5485,0.0,0.0,0.0,0.0,0.0,0.0,0.0,2.5085,2.5883,2.6331,2.6711,2.7093,2.7197,2.7197,2.7197,2.6475,2.5623,2.5123,2.4542,2.3912,2.3117,2.3222,0.0,0.0,0.0,2.4729,2.5329,2.5597,2.5898,2.6298,2.6567,2.6919,2.7402,2.7868,2.8205,2.838,2.83,2.8196,2.8007,2.7236,2.6432,0.0,0.0,0.0,0.0,0.0,0.0,0.0,0.0,0.0,0.0,0.0,0.0,0.0,0.0,0.0,0.0,0.0,0.0,0.0,0.0,0.0,0.0,0.0,0.0,0.0,0.0,0.0,0.0,2.3287,2.3301,2.2753,2.2919,2.2906,0.0,0.0,0.0,0.0,0.0,0.0,2.4986,2.5578,2.6212,2.6884,2.6896,2.7143,2.768,2.7842,2.7959,2.8042,2.8257,2.8506,2.8847,2.8893,2.9149,2.956,3.0023,3.0196,3.0143,2.9546,2.9112,2.877,2.761,2.6984,2.676,2.6331,2.6177,2.6282,2.7174,2.7557,2.7593,2.7238,2.7034,2.6774,2.6159,0.0,0.0,0.0,0.0,2.6155,2.6948,2.7157,2.7265,2.7823,2.7927,2.7927,2.7927,2.7757,2.7282,2.6354,2.5551,2.4783,2.3946,2.4157,0.0,2.3757,2.4546,2.5279,2.5547,2.5779,2.6116,2.6536,2.6776,2.7052,2.7501,2.7946,2.8205,2.8353,2.83,2.8313,2.838,2.7392,2.6543,2.5952,0.0,0.0,0.0,0.0,0.0,0.0,0.0,0.0,0.0,0.0,0.0,0.0,0.0,0.0,0.0,0.0,0.0,0.0,0.0,0.0,0.0,0.0,0.0,0.0,0.0,0.0,0.0,0.0,0.0,2.4273,2.4852,0.0,0.0,0.0,0.0,2.5435,2.55,2.5856,2.6555,2.662,2.6884,2.7419,2.7421,2.7421,2.7598,2.8243,2.8671,2.8934,2.9704,3.0074,3.0095,3.0095,3.0315,3.0731,3.1336,3.1774,3.1952,3.0463,2.9429,2.8798,2.8666,2.8192,2.7727,2.8316,2.8658,2.8901,2.9679,3.0004,2.9971,2.9153,2.8338,2.7771,2.8413,2.8132,0.0,0.0,2.8719,2.8813,2.973,2.9945,2.9916,2.9951,2.9951,2.9951,2.9951,2.926,2.8334,2.7332,2.7096,2.6837,2.6059,0.0,2.5603,2.5822,2.5591,2.5715,2.6707,2.6229,2.5913,2.6208,2.6461,2.6774,2.7092,2.775,2.8205,2.8484,2.83,2.8246,2.838,2.8321,2.8018,2.7426,2.6925,0.0,0.0,0.0,0.0,0.0,0.0,0.0,0.0,0.0,0.0,0.0,0.0,0.0,0.0,0.0,0.0,0.0,0.0,0.0,0.0,0.0,0.0,0.0,0.0,0.0,0.0,0.0,0.0,2.5148,2.5632,0.0,2.54,2.5694,2.5931,2.5931,2.6794,2.7454,2.771,2.8223,2.8597,2.8788,2.8887,2.8909,2.8832,2.9815,3.0304,3.0238,3.1187,3.1759,3.1988,3.2074,3.2448,3.3126,3.3445,3.3757,3.4056,3.301,3.214,3.1375,3.0847,3.0493,3.0239,2.9946,2.989,3.0021,3.0275,3.0346,3.0295,2.9935,2.9622,2.9415,2.9682,2.9576,2.945,2.9763,2.9803,2.9843,3.011,3.02,3.0152,3.0088,3.0124,3.0124,3.0124,2.983,2.9502,2.9142,2.8479,2.79,2.7624,2.7872,2.796,2.7594,2.7841,2.8185,2.8544,2.8271,2.8265,2.877,2.8789,2.8729,2.8712,2.8909,2.881,2.8402,2.83,2.83,2.838,2.8574,2.8361,2.7695,2.78,2.7085,0.0,0.0,0.0,0.0,0.0,0.0,0.0,0.0,0.0,0.0,0.0,0.0,0.0,0.0,0.0,0.0,0.0,0.0,0.0,0.0,0.0,0.0,0.0,0.0,0.0,2.5989,2.6542,2.6081,2.6742,2.705,2.6546,2.7118,2.7483,2.7545,2.8705,2.9403,2.9415,3.016,3.0571,3.0548,3.0628,3.0628,3.0558,3.1283,3.1624,3.1524,3.2173,3.2629,3.2884,3.2949,3.328,3.3819,3.4051,3.4412,3.4764,3.4393,3.4034,3.356,3.2525,3.2097,3.2061,3.151,3.1316,3.1286,3.122,3.1142,3.1099,3.1068,3.1052,3.1052,3.1083,3.1115,3.1146,3.1178,3.1162,3.1131,3.1103,3.102,3.0988,3.0959,3.0943,3.0943,3.091,3.091,3.0894,3.0896,2.9857,2.8979,2.8979,2.9311,2.9314,2.8504,2.904,2.9403,2.9059,2.9214,2.9625,3.0264,3.0203,3.0127,3.0139,2.9809,2.953,2.9304,2.8963,2.8855,2.8907,2.8846,2.8408,2.7604,2.8051,2.7612,2.617,0.0,0.0,0.0,0.0,0.0,0.0,0.0,0.0,0.0,0.0,0.0,0.0,0.0,0.0,0.0,0.0,0.0,0.0,0.0,0.0,0.0,0.0,0.0,2.6399,2.6737,2.709,2.7104,2.8332,2.9165,2.9157,2.9845,3.0335,3.0462,3.1122,3.1561,3.1636,3.2299,3.2652,3.2584,3.2471,3.2482,3.2605,3.2492,3.256,3.2752,3.2752,3.2785,3.2785,3.2785,3.2785,3.2829,3.3232,3.3639,3.4116,3.4501,3.4888,3.5079,3.356,3.2953,3.2953,3.2953,3.2941,3.286,3.271,3.2627,3.2595,3.2559,3.2559,3.2576,3.2589,3.2724,3.2805,3.2866,3.2854,3.2789,3.2789,3.2724,3.2622,3.2622,3.2606,3.2589,3.2524,3.2507,3.2473,3.2423,3.1177,3.0159,3.0159,2.9994,2.9568,2.864,2.9126,0.0,2.8356,2.9041,2.9808,3.0386,3.0519,3.075,3.117,3.0414,3.0292,3.1122,3.0337,2.9886,2.9937,2.9284,2.8409,2.7367,2.7922,2.8457,2.8973,0.0,0.0,0.0,0.0,0.0,0.0,0.0,0.0,0.0,0.0,0.0,0.0,0.0,0.0,0.0,0.0,0.0,0.0,0.0,0.0,0.0,2.9393,2.9959,2.8733,2.9132,2.9481,2.9399,3.0159,3.0653,3.0577,3.1319,3.1812,3.1857,3.1964,3.2017,3.204,3.2236,3.2335,3.2312,3.2517,3.2562,3.2449,3.3305,3.3627,3.3504,3.4137,3.4426,3.4426,3.4333,3.4462,3.4846,3.5249,3.5655,3.6097,3.5968,3.5972,3.5971,3.4972,3.4579,3.4579,3.4579,3.4562,3.4528,3.4443,3.4426,3.4354,3.3701,3.3592,3.3552,3.298,3.2818,3.2886,3.2882,3.2902,3.2886,3.2886,3.287,3.2818,3.2818,3.2789,3.2724,3.2589,3.2522,3.2473,3.2423,3.2055,3.1774,3.1774,3.1705,3.1601,3.134,3.1462,3.1583,3.1534,3.1675,3.186,3.191,3.1847,3.1697,3.1446,3.1102,3.0963,3.1131,3.0843,3.0694,3.0708,3.0697,3.0755,3.0907,3.0481,3.0444,0.0,0.0,0.0,0.0,0.0,0.0,0.0,0.0,0.0,0.0,0.0,0.0,0.0,0.0,0.0,0.0,0.0,0.0,0.0,0.0,0.0,0.0,3.132,3.1888,3.1227,3.1466,3.1692,3.1586,3.1888,3.2089,3.1957,3.2387,3.2718,3.2774,3.2994,3.3137,3.3149,3.3448,3.3613,3.3613,3.3806,3.3806,3.3692,3.433,3.4576,3.4439,3.4941,3.5198,3.5198,3.5281,3.5476,3.5754,3.6151,3.6565,3.6978,3.6767,3.679,3.6792,0.0,0.0,0.0,0.0,3.5153,3.5153,3.5084,3.5101,3.5029,3.4601,3.4562,3.4555,3.4187,3.4092,3.4108,3.4108,3.4108,3.4108,3.4108,3.4108,3.4108,3.4108,3.3824,3.351,3.3378,3.3032,3.2705,3.2574,3.2507,0.0,3.2423,3.2406,3.2283,3.1864,3.2161,3.2332,3.224,3.2501,3.2804,3.303,3.3007,3.2889,3.2637,3.2232,0.0,0.0,0.0,3.1574,3.1283,3.0979,0.0,0.0,0.0,3.129,3.2003,3.0898,0.0,0.0,2.8075,2.7548,0.0,0.0,0.0,0.0,0.0,0.0,0.0,0.0,0.0,0.0,0.0,0.0,0.0,0.0,0.0,0.0,3.2963,3.3482,3.3461,3.3529,3.3541,3.3342,3.3376,3.3388,3.3247,3.3314,3.3424,3.3544,3.415,3.4599,3.4721,3.5363,0.0,0.0,0.0,3.5767,3.5767,3.5652,3.5605,3.5605,3.5582,3.5582,3.5572,3.5982,3.6146,3.6168,3.6645,3.7066,3.7392,3.745,3.7569,3.7649,3.6095,3.5471,3.5488,3.5438,3.5438,3.5438,3.5332,0.0,0.0,3.5417,3.55,3.5617,3.5672,3.5768,3.5799,3.5799,3.5799,3.5815,3.5815,3.5815,3.5815,3.5815,3.5271,3.4712,3.4568,3.395,3.3306,3.3068,3.2953,3.2889,3.2755,3.2546,3.2108,3.1271,3.1864,3.221,3.1627,3.2335,3.3054,3.3606,3.3753,0.0,3.4067,3.3363,3.3252,3.4043,3.3302,3.2576,3.1959,3.1017,3.0752,3.1365,3.1241,3.1779,3.2943,3.289,3.2867,3.2791,2.9566,2.8502,0.0,0.0,0.0,0.0,0.0,0.0,0.0,0.0,0.0,0.0,0.0,0.0,0.0,0.0,0.0,3.2047,3.3232,3.4073,3.3907,3.4488,3.451,3.3422,3.3878,3.4238,3.4162,3.4734,3.5116,3.5172,3.5217,3.5565,3.6161,3.6329,3.6666,3.7283,3.7412,3.7435,3.7435,3.7412,3.7412,3.7412,3.7283,0.0,3.7235,3.7614,3.7718,3.7649,3.8475,3.8964,3.9124,3.9525,3.9391,3.8867,3.7614,3.7238,3.7379,3.7362,3.7413,3.7516,3.7379,3.7431,3.739,3.6659,3.6564,3.6568,3.5965,3.5799,0.0,3.5799,3.5799,3.5815,3.5877,3.5856,3.5856,3.5856,3.5747,3.5608,3.5415,3.5275,3.5119,3.4908,3.4858,3.4844,3.4742,3.344,3.2318,3.2161,3.2283,3.242,3.2537,3.2906,3.3089,3.2878,3.3093,3.3273,3.3308,3.3101,3.3314,3.4043,3.3843,3.3594,3.3473,3.3426,3.3437,3.3566,3.3915,3.4216,3.4486,3.4022,3.382,3.3803,3.234,3.1775,0.0,0.0,0.0,0.0,0.0,0.0,0.0,0.0,0.0,0.0,0.0,3.1765,3.2692,0.0,3.3388,3.3725,3.4353,3.4767,3.4653,3.5034,3.5046,3.4376,3.4678,3.5015,3.535,3.5834,3.6251,3.6528,3.6632,3.6801,3.7028,3.7182,3.7398,3.7696,3.7769,3.7793,3.7793,3.772,3.7817,3.8067,3.7997,3.808,3.8368,3.8747,3.8928,3.8992,3.9649,4.0014,4.0181,4.0365,4.0257,3.9894,3.9301,3.8653,3.7984,3.7934,3.7984,3.8085,3.8036,3.8053,3.8029,3.7667,3.7624,3.7649,3.7327,3.7249,3.7249,3.7166,3.715,3.715,3.715,3.715,3.715,3.715,3.6859,3.6537,3.6422,3.6084,3.5752,3.5555,3.5473,3.539,3.5221,3.4392,3.3668,3.3377,3.3275,3.318,3.3193,3.3408,3.3502,3.33,3.3512,3.3657,3.3657,3.3657,3.3829,3.4274,3.4228,3.413,3.413,3.4191,3.4323,3.445,3.4594,3.4773,3.5051,3.4699,3.4619,3.4756,3.4271,3.3568,0.0,0.0,0.0,0.0,0.0,0.0,0.0,3.0808,3.1213,3.2513,3.2698,3.3055,3.4527,3.4655,3.4768,3.552,3.5621,3.5585,3.5585,3.5719,3.582,3.582,3.5616,3.5793,3.6539,3.6726,3.6985,3.7443,3.7706,3.7797,3.7735,3.7932,3.8072,3.8109,3.8158,3.8183,3.8183,3.8173,3.8381,3.8768,3.8849,3.9153,3.9581,3.9964,4.0246,4.0402,4.0835,4.1089,4.1177,4.1159,4.1069,4.0924,4.0888,3.9963,3.8657,3.8325,3.8304,3.8419,3.8241,3.8168,3.8254,3.8368,3.8433,3.8481,3.8627,3.8658,3.8643,3.8528,3.846,3.846,3.8396,3.8417,3.8417,3.8385,3.789,3.7453,3.7421,3.6864,3.6313,3.615,3.6069,3.599,3.5719,3.5632,3.5363,3.4679,3.4403,3.4267,3.4097,3.4247,3.4394,3.4498,3.4661,3.4672,3.4523,3.457,3.4565,3.4517,3.4461,3.4427,3.4427,3.437,3.4427,3.4663,3.4517,3.4651,3.5098,3.506,3.5176,3.5378,3.5405,3.4654,2.8971,2.9811,3.0958,3.0831,3.1914,3.3199,0.0,3.4117,3.4567,3.5386,3.5535,3.5569,3.5783,3.5795,3.5786,3.5778,3.6333,3.6695,3.6637,3.7188,3.7618,3.7618,3.6807,3.6573,3.7309,3.7401,3.7434,3.751,3.7534,3.7802,3.8439,3.8497,3.8824,3.9461,3.9725,3.9817,3.9817,4.0408,4.0701,4.077,4.1218,4.1456,4.1499,4.1955,4.2151,4.2147,4.2685,4.2887,4.2923,4.3119,4.2749,4.2109,4.19,4.1387,4.0663,3.975,3.9524,3.958,3.8688,3.8481,3.8611,3.8449,3.8512,3.8643,3.8559,3.8507,3.8528,3.8449,3.8433,3.8433,3.8417,3.8417,3.8385,3.834,3.8279,3.8239,3.8194,3.8154,3.8113,3.8,3.7983,3.797,3.7887,3.7611,3.695,3.5656,3.5455,3.5525,3.5775,3.6102,3.6309,3.6322,3.6582,3.6449,3.5687,3.5612,3.5323,3.462,3.4528,3.4495,3.4495,3.4427,3.4416,3.4439,3.4572,3.4716,3.4778,3.5086,3.5293,3.533,3.5509,3.5419,3.2272,3.2502,3.2781,3.3169,3.3788,3.4396,3.4695,3.4806,3.5032,3.5752,3.5822,3.5958,3.6522,3.6536,3.6639,3.7183,3.7398,3.7452,3.7438,3.7709,3.8048,3.8488,3.8188,3.8023,3.8327,3.8434,3.8627,3.8991,3.9149,3.9309,3.9463,3.9614,3.9799,4.0037,4.0163,4.0213,4.0213,4.0427,4.0791,4.1343,4.153,4.1895,4.2442,4.2655,4.277,4.2882,4.3214,4.3393,4.3393,4.348,4.3294,4.2983,4.2915,4.2732,4.2306,4.0856,4.0414,4.0545,4.0113,3.9987,3.9951,3.9886,3.9593,3.9228,3.9159,3.8814,3.8449,3.8352,3.8336,3.832,3.8307,3.829,3.829,3.8241,3.8274,3.829,3.8241,3.8274,3.829,3.8241,3.8241,3.8207,3.8087,3.7967,3.7732,3.7241,3.6812,3.6462,3.6227,3.6595,3.6868,3.6868,3.7038,3.6968,3.6696,3.6658,3.654,3.6254,3.6205,3.6184,3.6184,3.6179,3.5899,3.534,3.5356,3.5184,3.4811,3.4908,3.5013,3.52,3.5371,3.5463,3.4124,3.4096,3.4014,3.4768,3.5111,3.5282,3.5282,3.5398,3.5685,3.6159,3.6343,3.665,3.7398,3.7388,3.7524,3.8254,3.8378,3.8397,3.8397,3.8567,3.8908,3.9486,3.9496,3.9496,3.9496,3.9472,3.9636,4.0079,4.0288,4.0381,4.0383,4.0594,4.0737,4.0875,4.0925,4.105,4.1165,4.1278,4.1743,4.2548,4.264,4.3068,4.3723,4.3723,4.3834,4.3926,4.3849,4.3828,4.3791,4.3571,4.3515,4.3515,4.3515,4.3515,4.3351,4.2004,4.1472,4.1356,4.1103,4.0943,4.0856,4.0856,4.0457,3.9932,3.9899,3.9498,3.9008,3.8944,3.8911,3.8874,3.8606,3.8553,3.848,3.8263,3.8191,3.8191,3.8191,3.8191,3.8191,3.8191,3.8191,3.8191,3.8188,3.8068,3.8085,3.8328,3.7942,3.7522,3.7174,3.7567,3.7864,3.7864,3.7864,3.7822,3.7721,3.7683,3.7602,3.7409,3.742,3.742,3.742,3.7379,3.7083,3.6398,3.6308,3.6029,3.5571,3.5503,3.5553,3.576,3.5975,3.5955,3.2708,3.3333,3.3891,3.4609,3.5382,3.5963,3.5963,3.6719,3.7422,3.7456,3.8008,3.8525,3.856,3.856,3.856,3.8594,3.9158,3.9641,3.9641,4.0319,4.0836,4.0836,4.0836,4.0836,4.0836,4.0377,4.0079,4.0113,4.0113,4.0417,4.1128,4.1188,4.1493,4.2204,4.25,4.2884,4.3391,4.4054,4.4656,4.52,4.5588,4.5773,4.5792,4.5792,4.5792,4.5773,4.5002,4.4672,4.4599,4.3828,4.3515,4.3515,4.3515,4.3515,4.3515,4.3424,4.2895,4.2023,4.1134,4.0808,4.079,4.079,4.079,4.0737,4.0704,4.065,4.0579,4.0473,4.0456,4.0274,3.955,3.9369,3.9169,3.8408,3.8191,3.8191,3.8191,3.8191,3.8191,3.8191,3.8191,3.829,3.8523,3.8251,3.8101,3.8428,3.8655,3.8859,3.9175,3.9545,3.9813,3.9813,3.9813,3.9521,3.8698,3.8671,3.8291,3.7457,3.742,3.742,3.742,3.7409,3.7371,3.7371,3.7358,3.7337,3.731,3.7413,3.7405,3.7414,3.7632,3.7356,3.4017,3.4553,3.5009,3.6281,3.6797,3.7128,3.7588,3.7998,3.8237,3.8237,3.803,3.803,3.8491,3.8594,3.8767,3.925,3.9974,4.0515,4.0515,4.0722,4.0894,4.0894,4.1615,4.2102,4.2102,4.1928,4.1835,4.1835,4.259,4.3183,4.3464,4.3464,4.3546,4.3827,4.392,4.4069,4.4227,4.447,4.4812,4.5312,4.5698,4.5883,4.5883,4.5883,4.5883,4.5883,4.5626,4.5516,4.548,4.5186,4.5076,4.5039,4.4488,4.4305,4.4214,4.3648,4.3246,4.2955,4.2627,4.2465,4.2394,4.2323,4.1905,4.1397,4.1379,4.0999,4.0564,4.0528,4.051,4.0438,4.0202,4.013,4.0057,3.9804,3.9731,3.9586,3.9079,3.9024,3.8826,3.8299,3.8191,3.829,3.8538,3.8491,3.8548,3.9087,3.8961,3.9004,3.9489,3.9682,3.9777,3.9777,3.9777,3.9664,3.9411,3.9373,3.926,3.8946,3.8953,3.8985,3.8985,3.9056,3.8791,3.8201,3.8191,3.7894,3.7333,3.7348,3.7368,3.7368,3.7528,3.7486,3.5269,3.5842,3.6318,3.7581,3.7892,3.803,3.8491,3.8801,3.8974,3.8974,3.8594,3.8422,3.8905,3.8974,3.9043,3.925,3.9939,4.0457,4.0457,4.0457,4.0631,4.1059,4.2043,4.277,4.2948,4.362,4.3877,4.3417,4.4142,4.4743,4.4971,4.4971,4.5114,4.54,4.5436,4.5523,4.5695,4.5659,4.5905,4.6365,4.6652,4.6764,4.6764,4.6764,4.6764,4.6728,4.6471,4.6324,4.6324,4.603,4.5883,4.5847,4.5333,4.5149,4.5058,4.4491,4.4089,4.3797,4.3432,4.3251,4.3142,4.3123,4.2667,4.2122,4.2122,4.1759,4.1361,4.1361,4.1361,4.1289,4.0981,4.0945,4.0872,4.0583,4.051,4.0365,3.9912,3.9804,3.9623,3.9115,3.9007,3.9017,3.903,3.8875,3.8905,3.9401,3.9195,3.9181,3.9658,3.9693,3.972,3.972,3.972,3.972,3.972,3.972,3.972,3.972,3.9754,3.9751,3.9751,3.9845,3.9591,3.9039,3.9061,3.8785,3.8223,3.8223,3.8223,3.8223,3.8312,3.8222,3.6374,3.7059,3.7754,3.8456,3.8663,3.8663,3.8698,3.925,3.9733,3.9721,3.9664,3.9629,3.9549,3.9595,3.9388,3.8663,3.9238,3.9813,3.9813,3.9801,4.0261,4.1477,4.2303,4.3019,4.3507,4.54,4.6096,4.4886,4.4807,4.5072,4.5801,4.5837,4.6195,4.6959,4.6959,4.7182,4.7632,4.7632,4.7875,4.8306,4.8306,4.8306,4.8306,4.8306,4.8306,4.8269,4.748,4.7149,4.7113,4.6361,4.603,4.6048,4.6012,4.5975,4.5975,4.5938,4.5407,4.4565,4.367,4.3233,4.3104,4.3086,4.2994,4.2901,4.2901,4.2901,4.2901,4.2901,4.2901,4.2756,4.1977,4.1759,4.1597,4.0854,4.0672,4.0655,4.0618,4.06,4.0582,4.0546,4.0545,4.043,3.9958,3.9519,3.928,3.9514,3.9577,3.9614,3.9777,3.9754,3.9708,3.9708,3.9708,3.9708,3.9708,3.9708,3.9708,3.9708,3.9708,3.972,3.9682,3.9789,3.9834,3.9834,3.9878,3.9911,3.9911,3.9911,3.9911,3.9911,3.9911,3.9561,3.7845,3.8168,3.8513,3.925,3.9422,3.956,4.0204,4.048,4.0469,3.9951,3.9352,3.857,3.7495,3.8178,3.8629,3.7892,3.9633,4.1019,4.1019,4.1327,4.1888,4.2818,4.3835,4.4803,4.5621,4.6961,4.763,4.7392,4.7355,4.7465,4.7627,4.7627,4.7736,4.7935,4.7935,4.7995,4.8114,4.8114,4.819,4.8306,4.8306,4.8306,4.8306,4.8306,4.8306,4.8306,4.8067,4.7993,4.7976,4.7792,4.7756,4.7795,4.7169,4.6966,4.6946,4.6356,4.597,4.5768,4.5529,4.4418,4.3086,4.2994,4.2956,4.2901,4.2901,4.2901,4.2901,4.2901,4.2995,4.3069,4.2887,4.2922,4.3025,4.3037,4.2868,4.2639,4.2242,4.1985,4.1655,4.1069,4.1265,4.1507,4.1404,4.1544,4.1707,4.1753,4.1638,4.1127,3.9873,3.971,3.9686,3.9638,3.9638,3.9638,3.9638,3.9638,3.9638,3.9638,3.9674,3.9734,3.9751,3.9845,3.9922,4.0007,4.0055,4.0065,4.0065,4.0065,4.0065,4.0065,4.0065,3.9982,3.9041,3.9399,3.9721,4.0112,4.0239,4.017,4.0009,4.0193,4.0135,3.9338,3.833,3.7573,3.7451,3.7791,3.8105,3.8014,3.9672,4.1021,4.1173,4.1428,4.2068,4.3417,4.4469,4.5542,4.6617,4.7636,4.8248,4.8287,4.8306,4.8306,4.8306,4.8306,4.8306,4.8306,4.8306,4.8306,4.8306,4.8306,4.8306,4.8306,4.8306,4.8306,4.8306,4.8306,4.8306,4.8306,4.8344,4.84,4.84,4.842,4.8476,4.8495,4.8053,4.7905,4.7867,4.7424,4.7,4.6669,4.6669,4.5662,4.4346,4.4291,4.4035,4.367,4.367,4.3452,4.316,4.316,4.3232,4.334,4.334,4.3495,4.371,4.3865,4.3881,4.3763,4.3461,4.3297,4.3064,4.2581,4.2436,4.2433,4.2574,4.2491,4.2498,4.2664,4.2601,4.2161,4.1162,4.0547,4.0076,3.9713,3.9602,3.9589,3.9589,3.9638,3.9637,3.9637,3.9708,3.9789,3.9856,3.9911,3.9975,4.0038,4.0096,4.0106,4.0106,4.0106,4.0106,4.0106,4.0106,4.0127,3.9986,4.0481,4.0894,4.0894,4.0894,4.0573,3.9279,3.9408,3.9497,3.8476,3.737,3.692,3.7962,3.7883,3.7826,3.8328,3.9549,4.063,4.1156,4.1273,4.2027,4.3989,4.4883,4.5843,4.707,4.7826,4.8287,4.8306,4.8306,4.8306,4.8306,4.8306,4.8306,4.8306,4.8306,4.8306,4.8306,4.8306,4.8306,4.8344,4.8344,4.8363,4.8382,4.8382,4.8382,4.8382,4.8513,4.8532,4.8532,4.8587,4.8642,4.8642,4.8642,4.8642,4.866,4.866,4.8162,4.7499,4.7499,4.6966,4.6249,4.6101,4.5513,4.4837,4.4837,4.4359,4.3808,4.3698,4.3679,4.3696,4.3583,4.3775,4.3989,4.4028,4.4233,4.4377,4.4417,4.439,4.4349,4.4349,4.3786,4.3376,4.3651,4.3106,4.272,4.3079,4.3109,4.3041,4.2886,4.1867,4.0851,4.0148,4.0025,3.9926,3.9838,3.9859,3.9841,3.9728,3.9845,3.9911,3.9922,3.9975,4.0017,4.0027,4.0106,4.0127,4.0127,4.0127,4.0127,4.0127,4.0127,4.0157,4.0711,4.0791,4.0894,4.0894,4.0894,4.0747,4.0158,4.0119,3.9919,3.889,3.8386,3.7652,3.6078,3.7179,3.8125,3.7546,3.9594,4.1779,4.3152,4.3717,4.4582,4.6339,4.6611,4.7051,4.7974,4.8136,4.8246,4.8287,4.8306,4.8306,4.8306,4.8306,4.8306,4.8306,4.8306,4.8306,4.8306,4.8306,4.8382,4.8569,4.8569,4.8642,4.8785,4.8785,4.8785,4.8785,4.8803,4.8804,4.8751,4.8769,4.8769,4.8769,4.8769,4.8822,4.8838,4.8838,4.8764,4.8635,4.8635,4.8506,4.812,4.6487,4.5827,4.5699,4.5699,4.5589,4.5369,4.469,4.4611,4.4617,4.4141,4.4162,4.4425,4.4812,4.4812,4.4788,4.5,4.4837,4.4637,4.4637,4.47,4.4744,4.4802,4.4778,4.4777,4.4857,4.4783,4.4451,4.3803,4.2927,4.2275,4.2063,4.2003,4.1704,4.0965,4.095,4.0647,3.9916,3.9889,3.9943,4.0076,4.0086,4.0137,4.0263,4.0273,4.0273,4.0273,4.0273,4.0273,4.0273,4.0273,4.0282,4.0894,4.0847,4.0799,4.0871,4.0847,4.0527,3.9448,3.9498,3.9382,3.8186,3.7596,3.722,3.6952,3.7488,3.8237,3.8995,4.0835,4.2646,4.4068,4.4783,4.5589,4.6891,4.7056,4.7387,4.8326,4.8401,4.842,4.8458,4.8476,4.8476,4.8476,4.855,4.8605,4.8605,4.8605,4.8605,4.8605,4.8605,4.866,4.8767,4.8767,4.8803,4.889,4.889,4.889,4.889,4.8942,4.8925,4.889,4.8996,4.9013,4.9013,4.9013,4.9047,4.9027,4.9013,4.8996,4.8996,4.8907,4.889,4.8779,4.7995,4.7319,4.6831,4.6831,4.6535,4.6128,4.5759,4.5795,4.5907,4.5619,4.5499,4.5494,4.5764,4.5534,4.5243,4.539,4.5273,4.518,4.518,4.526,4.5301,4.5331,4.539,4.5419,4.5448,4.5409,4.5227,4.4844,4.4451,4.3771,4.2634,4.2465,4.228,4.1867,4.1873,4.1754,4.1326,4.139,4.1213,4.0844,4.0844,4.0673,4.0301,4.0301,4.0301,4.0301,4.0301,4.0301,4.0301,4.0301,4.0301,4.1001,4.1012,4.0977,4.1094,4.1071,4.0607,3.904,3.9065,3.9084,3.7762,3.6949,3.6818,3.811,3.7878,3.8163,4.0088,4.1556,4.2978,4.4418,4.526,4.6102,4.7204,4.7389,4.7721,4.8439,4.8569,4.8624,4.8624,4.866,4.866,4.8587,4.875,4.8838,4.8838,4.8838,4.8838,4.8838,4.8838,4.8855,4.889,4.889,4.8907,4.8942,4.8942,4.8942,4.8959,4.9027,4.9027,4.9027,4.9148,4.9164,4.9148,4.9148,4.9148,4.9148,4.9118,4.9084,4.903,4.9027,4.9027,4.9061,4.9362,4.884,4.8079,4.8108,4.7681,4.709,4.6936,4.7034,4.7139,4.7052,4.6847,4.6663,4.6811,4.634,4.5828,4.5837,4.5713,4.555,4.5559,4.5523,4.5505,4.555,4.5494,4.5514,4.5559,4.5559,4.5559,4.5559,4.5559,4.493,4.3302,4.3085,4.2976,4.2791,4.2868,4.2834,4.2633,4.2754,4.2488,4.18,4.1762,4.1495,4.0836,4.0836,4.0721,4.0578,4.0578,4.0454,4.0301,4.0301,4.0301,4.1248,4.16,4.1867,4.1888,4.1987,4.1731,4.049,4.0257,3.9984,3.8949,3.7924,3.7305,3.769,3.7669,3.786,3.8673,4.0262,4.2132,4.4446,4.5513,4.6653,4.8274,4.8476,4.8476,4.8569,4.8605,4.8624,4.8624,4.8767,4.8785,4.8624,4.8642,4.8642,4.8642,4.8642,4.8642,4.8642,4.8642,4.8732,4.889,4.889,4.9013,4.9181,4.9181,4.9181,4.9181,4.9197,4.9148,4.9101,4.9101,4.903,4.8907,4.8907,4.8907,4.8925,4.9068,4.9013,4.8959,4.9315,4.9393,4.9415,4.9665,4.9512,4.9287,4.9475,4.9348,4.9024,4.8399,4.8108,4.7913,4.7541,4.7452,4.7556,4.7816,4.7242,4.6608,4.6695,4.6023,4.54,4.541,4.5419,4.54,4.541,4.5419,4.541,4.5419,4.5419,4.5419,4.5419,4.5419,4.5333,4.5141,4.518,4.4863,4.4029,4.3952,4.3626,4.2822,4.2784,4.2756,4.2679,4.2679,4.2641,4.2565,4.2565,4.2183,4.138,4.138,4.0998,4.0301,4.0301,4.0301,4.1971,4.2206,4.2266,4.2266,4.1888,4.1323,4.0709,4.0197,3.9714,3.9084,3.8545,3.825,3.8397,3.8397,3.8612,3.9393,4.0523,4.1825,4.334,4.5063,4.6428,4.7124,4.8104,4.8714,4.8785,4.8785,4.8785,4.8785,4.8838,4.8855,4.8785,4.889,4.8959,4.8959,4.8959,4.8959,4.8959,4.8959,4.8993,4.9098,4.9098,4.9131,4.9214,4.9214,4.9214,4.9214,4.9214,4.9181,4.9148,4.9148,4.9131,4.9098,4.9098,4.9098,4.9098,4.9101,4.9181,4.9268,4.9393,4.9529,4.9679,4.9962,4.9974,4.9857,4.9721,4.9651,4.9584,4.9216,4.9201,4.9248,4.9112,4.8815,4.8488,4.8135,4.776,4.7492,4.7578,4.6887,4.6225,4.6244,4.5793,4.5381,4.54,4.54,4.54,4.54,4.54,4.54,4.54,4.54,4.54,4.54,4.5419,4.5295,4.491,4.4862,4.4727,4.4332,4.4284,4.4055,4.3548,4.351,4.3291,4.2794,4.2794,4.2641,4.2297,4.2297,4.2106,4.18,4.1266,4.1063,4.2194,4.2556,4.2775,4.2829,4.2121,4.1325,4.0949,4.0248,3.9538,3.9112,3.8736,3.8589,3.8927,3.8793,3.889,3.9667,4.0563,4.1408,4.2261,4.4013,4.5403,4.5931,4.706,4.7967,4.8481,4.8779,4.889,4.889,4.889,4.889,4.889,4.901,4.9131,4.9131,4.9131,4.9131,4.9131,4.9131,4.9131,4.9131,4.9131,4.9131,4.9131,4.9131,4.9131,4.9131,4.9131,4.9131,4.9131,4.9131,4.9131,4.9131,4.9246,4.9241,4.9295,4.9305,4.9423,4.9617,4.9674,4.9776,4.9974,5.023,5.0347,5.0302,5.0038,4.991,4.9884,4.9803,5.0,5.0174,5.0175,4.9885,4.9416,4.8951,4.8577,4.8385,4.8433,4.7751,4.7146,4.7194,4.6638,4.6119,4.5851,4.5812,4.5726,4.5448,4.54,4.54,4.54,4.54,4.54,4.54,4.54,4.5381,4.5408,4.5408,4.5378,4.5288,4.5288,4.501,4.4399,4.4388,4.4131,4.3558,4.352,4.3405,4.3138,4.3138,4.3023,4.2794,4.2211,4.204,4.1629,4.266,4.3681,4.3614,4.3021,4.2258,4.1477,4.0665,3.9897,3.924,3.8363,3.8039,3.9026,3.8492,3.8154,3.8971,3.9825,4.068,4.1497,4.2314,4.3466,4.5101,4.5324,4.5955,4.7553,4.8444,4.889,4.889,4.889,4.889,4.889,4.889,4.889,4.889,4.889,4.889,4.889,4.889,4.889,4.889,4.889,4.889,4.889,4.889,4.889,4.889,4.889,4.889,4.889,4.889,4.889,4.8925,4.9273,4.9399,4.9461,4.9762,4.9857,4.9857,5.0271,5.0291,5.0241,5.0594,5.0702,5.0682,5.0532,5.0302,5.0123,5.0259,5.0321,5.0294,5.039,5.0401,5.0435,5.0553,4.9852,4.9227,4.9278,4.8595,4.7989,4.8077,4.8087,4.7818,4.6935,4.6772,4.6455,4.5525,4.54,4.54,4.54,4.54,4.54,4.54,4.54,4.5381,4.5408,4.5408,4.5378,4.5288,4.5288,4.5288,4.5288,4.5288,4.5288,4.5288,4.5288,4.4857,4.4006,4.4006,4.3586,4.2794,4.2932,4.3081,4.1578,4.2032,4.2359,4.2276,4.163,4.1015,4.0718,4.0014,3.9375,3.9212,3.938,3.9463,3.9239,3.9435,3.9691,3.9937,3.9714,4.0011,4.1386,4.276,4.4023,4.5175,4.6773,4.7961,4.8481,4.8742,4.889,4.889,4.889,4.889,4.889,4.889,4.889,4.889,4.889,4.889,4.889,4.889,4.889,4.889,4.9127,4.9241,4.9257,4.9416,4.9521,4.9521,4.9521,4.9521,4.9521,4.9521,4.9521,4.9535,4.9622,4.9665,4.9679,4.979,4.9949,5.0099,5.0206,5.0369,5.0573,5.0682,5.0712,5.0692,5.0542,5.0451,5.0418,5.0401,5.0344,5.0344,5.0446,5.0435,5.0446,5.0642,5.0412,5.0141,5.02,4.9468,4.8813,4.8782,4.829,4.7799,4.7531,4.7493,4.7176,4.6286,4.6133,4.5941,4.5416,4.5339,4.5339,4.5339,4.5339,4.536,4.5419,4.5381,4.54,4.5378,4.5378,4.5357,4.5288,4.536,4.5351,4.5351,4.5518,4.5456,4.5147,4.5223,4.4776,4.3976,4.4047,4.3862,4.1017,4.1478,4.1731,4.1653,4.0977,4.0397,4.0397,3.9714,3.9208,3.9584,3.9779,3.9951,4.0067,4.0002,4.0011,4.036,3.9937,4.0048,4.1423,4.2723,4.3986,4.5138,4.7144,4.8444,4.8444,4.8704,4.889,4.889,4.889,4.889,4.889,4.889,4.889,4.889,4.889,4.889,4.889,4.9027,4.9094,4.9094,4.9393,4.9558,4.9558,4.9721,4.9803,4.9803,4.9803,4.9803,0.0,4.9803,4.9803,4.9817,4.9923,4.9962,4.9974,5.0075,5.0256,5.038,5.038,5.0514,5.0712,5.0712,5.0692,5.0663,5.0532,5.05,5.0468,5.039,5.0344,5.0344,5.0446,5.0435,5.0446,5.0604,5.0642,5.0622,5.0653,5.0171,4.9757,4.9716,4.9241,4.8728,4.84,4.8302,4.7974,4.7111,4.6729,4.6309,4.5812,4.5468,4.5298,4.5339,4.535,4.54,4.5485,4.5419,4.5409,4.54,4.5419,4.5419,4.5409,4.5467,4.5494,4.5488,4.565,4.5711,4.5725,4.577,4.5556,4.5058,4.5127,4.49,0.0,4.09,4.1501,4.1452,4.0866,4.0323,4.0323,3.9677,0.0,4.0211,3.9788,3.9751,4.1311,4.0383,3.964,4.042,4.0508,4.0791,4.172,4.2612,4.3726,4.5287,4.6847,4.7776,4.7701,4.8444,4.889,4.889,4.889,4.889,4.889,4.889,4.8907,4.8925,4.8925,4.8925,4.8925,4.9273,4.9446,4.9446,4.9693,4.983,4.983,4.9857,4.987,4.987,4.987,4.987,4.987,4.987,4.987,4.9897,5.0135,5.023,5.0252,5.0594,5.0712,5.0712,5.0712,5.0712,5.0712,5.0712,5.0673,5.0612,5.0521,5.0424,5.0321,5.0283,5.0283,5.0333,5.039,5.0401,5.0435,5.0553,5.0573,5.0632,5.0682,5.0702,5.0702,5.0702,5.0653,5.0333,4.9447,4.9241,4.892,4.8051,4.721,4.6674,4.6636,4.5959,4.5503,4.5486,4.5496,4.5514,4.5607,4.5495,4.5409,4.5419,4.5466,4.5559,4.5612,4.562,4.5665,4.5705,4.5725,4.5762,4.5838,4.5833,4.5879,4.6037,4.6031,4.6064,3.9356,0.0,3.976,3.9691,3.9565,3.9417,0.0,3.9231,3.9342,4.0211,4.0717,4.1126,4.1534,4.1757,4.198,4.2203,4.172,4.2054,4.4135,4.5658,4.6698,4.7107,4.7999,4.837,4.7776,4.8444,4.889,4.889,4.889,4.889,4.889,4.889,4.901,4.9273,4.9289,4.9289,4.9289,4.955,4.9707,4.9707,4.9987,5.0111,5.0123,5.0358,5.0483,5.0483,5.0483,5.0483,5.0483,5.0483,5.0483,5.0483,5.0573,5.0594,5.0604,5.0654,5.0712,5.0712,5.0712,5.0712,5.0712,5.0712,5.0673,5.0612,5.0521,5.0446,5.0379,5.0294,5.0283,5.0333,5.039,5.0401,5.0424,5.05,5.0521,5.0521,5.0542,5.0542,5.0542,5.0542,5.0563,5.0535,5.0294,5.0248,4.9951,4.9134,4.8865,4.8481,4.7799,4.7569,4.7194,4.6559,4.6482,4.6231,4.5642,4.5565,4.5565,4.5535,4.5582,4.5602,4.5665,4.5729,4.5783,4.5867,4.601,4.6119,4.6198,4.613,4.6136,4.6244,4.6183,4.6189,3.9285,3.9219,3.9161,3.9096,3.9082,3.9082,3.9082,3.9417,3.9937,4.0791,4.1311,4.1832,4.2575,4.276,4.2797,4.2797,4.3058,4.3912,4.5621,4.6587,4.7293,4.7664,4.8073,4.8333,4.8259,4.8783,4.9127,4.9127,4.9252,4.9293,4.9293,4.9293,4.9423,4.9588,4.9693,4.9693,4.9602,4.9857,5.0,5.0,5.0302,5.0451,5.0451,5.0614,5.0712,5.0712,5.0712,5.0712,5.0712,5.0712,5.0712,5.0712,5.0712,5.0712,5.0712,5.0712,5.0712,5.0712,5.0712,5.0712,5.0712,5.0712,5.0682,5.0624,5.0614,5.0535,5.0462,5.0317,5.0283,5.0321,5.0356,5.0367,5.039,5.0511,5.0542,5.0563,5.0606,5.0654,5.0654,5.0654,5.0654,5.0654,5.0654,5.0625,5.0433,5.001,4.9625,4.924,4.875,4.8365,4.7921,4.7542,4.7503,4.7174,4.6367,4.6305,4.6148,4.5725,4.5701,4.5777,4.5864,4.5934,4.5962,4.604,4.6184,4.6247,4.6289,4.6246,4.6247,4.6289,4.6245,4.6284,3.9514,3.9451,3.9354,3.9147,3.9082,3.912,3.9268,3.9863,4.0643,4.1571,4.1757,4.2277,4.3912,4.354,4.302,4.3169,4.4516,4.5797,4.6603,4.6871,4.7201,4.7644,4.7863,4.8195,4.8716,4.9166,4.943,4.9476,4.9665,4.9803,4.9803,4.9803,4.983,4.987,5.0087,5.0123,4.9936,5.0159,5.0291,5.0264,5.0545,5.0712,5.0712,5.0712,5.0712,5.0712,5.0712,5.0712,5.0712,5.0721,5.0731,5.0731,5.075,5.0712,5.0712,5.0712,5.0712,5.0712,5.0712,5.0712,5.0712,5.0712,5.0712,5.0721,5.071,5.0692,5.0577,5.0407,5.034,5.034,5.034,5.034,5.0374,5.0563,5.0594,5.0634,5.0776,5.0764,5.0773,5.0821,5.0747,5.072,5.072,5.0692,5.0635,5.0635,5.0057,4.9633,4.9633,4.8988,4.8523,4.8514,4.8522,4.8176,4.7383,4.7377,4.7079,4.6297,4.6064,4.6008,4.6112,4.6125,4.6153,4.6228,4.6286,4.6289,4.6289,4.6289,4.6289,4.6289,4.6288,4.6288,3.9537,4.0137,4.0512,3.9392,3.9082,3.9305,4.0011,4.0308,4.0828,4.2314,4.2612,4.3132,4.4804,4.4395,4.4061,4.4804,4.5873,4.6846,4.7438,4.8551,4.8911,4.7806,4.8562,4.8887,4.8287,4.8933,4.9484,4.9721,4.9776,4.9803,4.9803,4.9803,4.991,5.0135,5.0183,5.0325,5.0573,5.0604,5.0624,5.0624,5.0692,5.0712,5.0712,5.0712,5.0712,5.0712,5.0712,5.0712,5.0712,5.0767,5.0794,5.0803,5.0833,5.0858,5.0858,5.0858,5.0858,5.0858,5.0858,5.0858,5.0858,5.0858,5.0858,5.0858,5.0786,5.0791,5.0747,5.0664,5.0615,5.0537,5.0537,5.0537,5.0547,5.0567,5.0615,5.0635,5.0701,5.071,5.0729,5.0773,5.0838,5.0863,5.0863,5.0841,5.0858,5.0858,5.075,5.0673,5.0673,5.0557,5.0217,4.9568,4.9498,4.9171,4.8338,4.8289,4.8292,4.8343,4.6895,4.6112,4.6171,4.624,4.6286,4.6285,4.6287,4.6287,4.6284,4.6284,4.6284,4.6284,4.6284,4.6285,3.9899,4.0256,4.0657,4.0896,4.1217,4.1657,4.2033,4.2728,4.3352,4.3675,4.3938,4.442,4.535,4.5413,4.5834,4.7292,4.7185,4.7191,4.807,4.8328,4.8359,4.8227,4.8654,4.8966,4.9042,4.9522,4.9884,5.0012,5.0159,5.0279,5.0279,5.0279,5.0336,5.0472,5.0497,5.0615,5.0749,5.0803,5.0776,5.0712,5.073,5.0749,5.0758,5.0803,5.0821,5.0821,5.0821,5.0821,5.0829,5.0833,5.085,5.085,5.0882,5.0898,5.0898,5.0898,5.0898,5.0898,5.0898,5.0898,5.0898,5.0898,5.0898,5.0906,5.089,5.0914,5.0921,5.0921,5.0764,5.0587,5.0587,5.0587,5.0606,5.0701,5.071,5.0729,5.0799,5.0808,5.0816,5.0841,5.0858,5.0913,5.0913,5.089,5.0898,5.0898,5.0921,5.0937,5.0937,5.099,5.085,5.0502,5.0461,5.0103,4.9269,4.9282,4.8953,4.8135,4.7359,4.6701,4.6283,4.6287,4.6288,4.6287,4.6286,4.6284,4.6282,4.6282,4.6282,4.6282,4.6318,4.6281,4.0248,4.0572,4.1203,4.2326,4.2824,4.3236,4.4079,4.494,4.5493,4.5279,4.5543,4.5879,4.6081,4.644,4.7215,4.8715,4.8126,4.7818,4.8808,4.8488,4.8334,4.8884,4.8998,4.9302,4.9886,5.0145,5.0309,5.0363,5.0606,5.074,5.074,5.074,5.074,5.074,5.0812,5.0808,5.0808,5.0866,5.0833,5.074,5.0812,5.0808,5.0808,5.0874,5.0898,5.0898,5.0898,5.0898,5.0898,5.0921,5.0929,5.0929,5.0952,5.0959,5.0959,5.0959,5.0959,5.0959,5.0959,5.0959,5.0959,5.0944,5.0944,5.0959,5.1016,5.1009,5.1027,5.1087,5.0882,5.0672,5.0663,5.0663,5.072,5.0791,5.0808,5.0825,5.089,5.0898,5.0898,5.0898,5.0898,5.0906,5.0914,5.0914,5.0921,5.0929,5.0998,5.102,5.102,5.1075,5.1108,5.1108,5.1102,5.0863,5.0229,5.0276,4.9678,4.819,4.7967,4.7617,4.6953,4.6718,4.66,4.6599,4.6401,4.6281,4.6317,4.6317,4.6317,4.6317,4.6312,4.6313,4.0462,4.1685,4.3031,4.2917,4.2106,4.2224,4.5462,4.5653,4.5555,4.7084,4.7417,4.7433,4.7373,4.7388,4.7453,4.7629,4.8485,4.9324,4.9836,5.0317,5.045,4.9973,5.0155,5.0394,5.0422,5.048,5.0567,5.0811,5.0874,5.0882,5.0882,5.0882,5.0882,5.0882,5.089,5.089,5.089,5.0898,5.089,5.0882,5.089,5.089,5.089,5.0898,5.0898,5.0898,5.0898,5.0898,5.0906,5.0981,5.097,5.1016,5.1121,5.1184,5.1184,5.1184,5.1184,5.1184,5.1184,5.1184,5.1184,5.1114,5.1108,5.1108,5.1076,5.1089,5.1094,5.1094,5.1027,5.0975,5.089,5.0882,5.0882,5.089,5.089,5.089,5.0898,5.0898,5.0898,5.0898,5.0898,5.0914,5.0998,5.1005,5.1012,5.1087,5.1094,5.1094,5.1094,5.1092,5.1118,5.1118,5.1164,5.1196,5.1196,5.1249,5.0898,4.996,4.9219,4.8789,4.8711,4.793,4.7499,4.7494,4.6712,4.6316,4.6302,4.6302,4.6302,4.6302,4.6302,4.6306,4.1292,4.2324,4.3524,4.4523,4.4421,4.4739,4.7114,4.7663,4.7674,4.7809,4.813,4.8176,4.7619,4.8531,4.9199,4.8652,4.9384,5.0154,5.0499,5.0739,5.0811,5.0595,5.0687,5.0761,5.0761,5.0761,5.0795,5.0898,5.0898,5.0898,5.0898,5.0898,5.0898,5.0898,5.0952,5.0974,5.0974,5.1023,5.1082,5.1082,5.0995,5.0974,5.0974,5.1062,5.1082,5.1082,5.1082,5.1082,5.1089,5.1114,5.1121,5.1127,5.119,5.1202,5.1202,5.1202,5.1202,5.1202,5.1202,5.1202,5.1196,5.1127,5.1114,5.1114,5.1089,5.1107,5.1094,5.1034,5.102,5.0998,5.0914,5.0898,5.0898,5.0898,5.0898,5.0898,5.0898,5.0898,5.0898,5.0898,5.0921,5.099,5.1005,5.1027,5.108,5.1094,5.1152,5.1175,5.1175,5.1195,5.1213,5.1213,5.1299,5.1324,5.1367,5.1404,5.1247,5.0937,5.0156,4.9453,4.8906,4.8593,4.8396,4.8391,4.8074,4.7638,4.712,4.712,4.6846,4.63,4.63,4.6302,4.2658,4.351,4.4497,4.5968,4.6323,4.6777,4.8476,4.8957,4.9024,4.9001,4.9062,4.898,4.8385,4.9379,5.0113,4.9525,5.0152,5.0772,5.0959,5.0974,5.0974,5.0974,5.0974,5.0974,5.0974,5.0974,5.0974,5.0974,5.0974,5.0974,5.0974,5.0974,5.0974,5.0974,5.103,5.105,5.105,5.1139,5.1202,5.1202,5.1114,5.105,5.1056,5.1139,5.1202,5.1202,5.1202,5.1202,5.1202,5.1202,5.1202,5.1202,5.1202,5.1202,5.1202,5.1202,5.1202,5.1202,5.1202,5.1202,5.1196,5.1127,5.1108,5.1095,5.1107,5.1087,5.108,5.1012,5.1005,5.0998,5.0914,5.0898,5.0898,5.0898,5.0898,5.0898,5.0898,5.0898,5.0914,5.0966,5.0959,5.0974,5.1043,5.1075,5.1121,5.1145,5.1167,5.1191,5.1218,5.1286,5.1316,5.1321,5.1367,5.1404,5.1399,5.14,5.1403,5.1406,5.0898,5.0312,4.9726,4.9453,4.9295,4.9291,4.9052,4.8615,4.8021,4.7978,4.7666,4.7081,4.6846,4.6729,4.4559,4.5375,4.623,4.7084,4.7312,4.7784,4.9499,4.9221,4.9104,5.0853,5.0503,4.9887,4.9887,4.9926,4.9926,4.9887,5.0619,5.1202,5.1202,5.1202,5.1202,5.1202,5.1202,5.1202,5.1202,5.1202,5.1202,5.1202,5.1202,5.1202,5.1202,5.1202,5.1202,5.1202,5.1202,5.1202,5.1202,5.1202,5.1202,5.1202,5.1202,5.1202,5.1202,5.1202,5.1202,5.1202,5.1202,5.1202,5.1202,5.1202,5.1202,5.1202,5.1202,5.1202,5.1202,5.1202,5.1202,5.1202,5.1202,5.1202,5.1196,5.1127,5.1089,5.1101,5.1094,5.1034,5.1005,5.1005,5.1005,5.0998,5.0914,5.0898,5.0898,5.0898,5.0898,5.0898,5.0898,5.0898,5.0952,5.1101,5.097,5.0981,5.118,5.1152,5.1133,5.1183,5.1203,5.1232,5.1293,5.1362,5.1405,5.1393,5.1395,5.1398,5.1398,5.1402,5.1405,5.1405,5.1406,5.1406,5.1406,5.0625,5.0195,5.0194,4.9369,4.8935,4.8928,4.8843,4.8798,4.8798,4.7978,4.7627,4.4559,4.5841,4.6968,4.724,4.8211,4.926,4.9771,4.9693,4.9843,5.0969,5.0503,4.9887,4.9887,5.0386,5.0619,5.0004,5.0619,5.1202,5.1202,5.1202,5.1202,5.1202,5.1202,5.1202,5.1202,5.1202,5.1202,5.1202,5.1202,5.1202,5.1202,5.1202,5.1202,5.1202,5.1202,5.1202,5.1202,5.1202,5.1202,5.1202,5.1202,5.1202,5.1202,5.1202,5.1202,5.1202,5.1202,5.1202,5.1202,5.1202,5.1202,5.1202,5.1202,5.1202,5.1202,5.1202,5.1202,5.1202,5.1202,5.1202,5.1196,5.1127,5.1089,5.1094,5.1027,5.099,5.0921,5.0921,5.0921,5.0914,5.0906,5.0898,5.0898,5.0898,5.0898,5.0929,5.1004,5.1024,5.1062,5.1142,5.1092,5.107,5.1191,5.1181,5.1201,5.1268,5.1318,5.1351,5.1367,5.1405,5.1401,5.1396,5.1397,5.14,5.1403,5.1404,5.1405,5.1406,5.1406,5.1406,5.1406,5.1172,5.1054,5.1053,5.0776,5.0341,4.9748,4.9739,4.9391,4.8777,4.8543,4.843,4.6385,4.7317,4.7978,4.8677,4.9376,5.0004,5.0348,5.0425,5.0581,5.1086,5.0775,5.0425,5.0425,5.0853,5.1047,5.0503,5.0853,5.1202,5.1202,5.1202,5.1202,5.1202,5.1202,5.1202,5.1202,5.1202,5.1202,5.1202,5.1202,5.1202,5.1202,5.1202,5.1202,5.1202,5.1202,5.1202,5.1202,5.1202,5.1202,5.1202,5.1202,5.1202,5.1202,5.1202,5.1202,5.1202,5.1202,5.1202,5.1202,5.1202,5.1202,5.1202,5.1202,5.1202,5.1202,5.1202,5.1202,5.1202,5.1202,5.1202,5.1196,5.1139,5.1102,5.1094,5.1034,5.099,5.0898,5.0898,5.0898,5.0898,5.0898,5.0952,5.0981,5.0914,5.0952,5.0984,5.1068,5.112,5.1147,5.1232,5.1195,5.1174,5.1261,5.1225,5.125,5.1321,5.1358,5.1406,5.14,5.14,5.1401,5.1401,5.1402,5.1404,5.1405,5.1406,5.1406,5.1406,5.1406,5.1406,5.1405,5.1406,5.1406,5.1406,5.1405,5.113,5.0619,5.0617,5.0346,4.9802,4.949,4.9335,4.9032,4.9182,4.9104,5.0697,5.0542,5.0237,5.1008,5.1202,5.1202,5.1202,5.1202,5.1202,5.1202,5.1202,5.1202,5.1202,5.1202,5.1202,5.1202,5.1202,5.1202,5.1202,5.1202,5.1202,5.1202,5.1202,5.1202,5.1202,5.1202,5.1202,5.1202,5.1202,5.1202,5.1202,5.1202,5.1202,5.1202,5.1202,5.1202,5.1202,5.1202,5.1202,5.1202,5.1202,5.1202,5.1202,5.1202,5.1202,5.1202,5.1202,5.1202,5.1202,5.1202,5.1202,5.1202,5.1202,5.1202,5.1202,5.1202,5.1202,5.1202,5.1202,5.116,5.1101,5.1101,5.1005,5.0906,5.0898,5.0898,5.0898,5.0898,5.1016,5.1056,5.0959,5.1004,5.1103,5.1114,5.1156,5.1236,5.1295,5.1261,5.1242,5.1385,5.1282,5.1269,5.1396,5.1406,5.1399,5.1399,5.1403,5.1405,5.1405,5.1406,5.1406,5.1406,5.1406,5.1406,5.1406,5.1406,5.1405,5.1397,5.1405,5.1406,5.1406,5.1405,5.1405,5.1406,5.1405,5.1405,5.1367,5.0586,5.0234,4.7706,4.8716,4.9693,5.0081,5.0542,5.0969,5.1163,5.1202,5.1202,5.1202,5.1202,5.1202,5.1202,5.1202,5.1202,5.1202,5.1202,5.1202,5.1202,5.1202,5.1202,5.1202,5.1202,5.1202,5.1202,5.1202,5.1202,5.1202,5.1202,5.1202,5.1202,5.1202,5.1202,5.1202,5.1202,5.1202,5.1202,5.1202,5.1202,5.1202,5.1202,5.1202,5.1202,5.1202,5.1202,5.1202,5.1202,5.1202,5.1202,5.1202,5.1202,5.1202,5.1202,5.1202,5.1202,5.1202,5.1202,5.1202,5.1202,5.1202,5.1202,5.1202,5.1139,5.1102,5.1107,5.1027,5.0983,5.0914,5.0898,5.0898,5.0898,5.1016,5.1074,5.1049,5.1136,5.1191,5.1252,5.1274,5.1295,5.1363,5.131,5.1297,5.1404,5.1312,5.1302,5.1405,5.1406,5.1406,5.1406,5.1406,5.1406,5.1406,5.1406,5.1406,5.1406,5.1404,5.1401,5.1401,5.1393,5.1385,5.138,5.1396,5.1397,5.1387,5.1391,5.1397,5.1401,5.1404,5.1404,5.1401,5.1206,5.1124,4.8211,4.891,4.9493,5.0309,5.0853,5.1202,5.1202,5.1202,5.1202,5.1202,5.1202,5.1202,5.1202,5.1202,5.1202,5.1202,5.1202,5.1202,5.1202,5.1202,5.1202,5.1202,5.1202,5.1202,5.1202,5.1202,5.1202,5.1202,5.1202,5.1202,5.1202,5.1202,5.1202,5.1202,5.1202,5.1202,5.1202,5.1202,5.1202,5.1202,5.1202,5.1202,5.1202,5.1202,5.1202,5.1202,5.1202,5.1202,5.1202,5.1202,5.1202,5.1202,5.1202,5.1202,5.1202,5.1202,5.1202,5.1202,5.1202,5.1202,5.1202,5.1202,5.1166,5.1089,5.1101,5.102,5.0929,5.0906,5.0959,5.1016,5.1016,5.1081,5.1195,5.1195,5.1229,5.1263,5.1291,5.131,5.1362,5.1406,5.1365,5.1362,5.1406,5.1365,5.1362,5.1406,5.1406,5.1406,5.1406,5.1406,5.1406,5.1406,5.1406,5.1406,5.1405,5.1401,5.1396,5.139,5.138,5.141,5.1396,5.141,5.1414,5.1414,5.141,5.1414,5.1384,5.1384,5.1384,5.1384,5.1387,5.1384,4.8877,4.9143,4.9221,5.0814,5.1202,5.1202,5.1202,5.1202,5.1202,5.1202,5.1202,5.1202,5.1202,5.1202,5.1202,5.1202,5.1202,5.1202,5.1202,5.1202,5.1202,5.1202,5.1202,5.1202,5.1202,5.1202,5.1202,5.1202,5.1202,5.1202,5.1202,5.1202,5.1202,5.1202,5.1202,5.1202,5.1202,5.1202,5.1202,5.1202,5.1202,5.1202,5.1202,5.1202,5.1202,5.1202,5.1202,5.1202,5.1202,5.1202,5.1202,5.1202,5.1202,5.1202,5.1202,5.1202,5.1202,5.1202,5.1202,5.1202,5.1202,5.1202,5.116,5.1107,5.1101,5.1012,5.0914,5.0937,5.0998,5.1086,5.1109,5.1211,5.1297,5.1297,5.1302,5.1306,5.1306,5.1362,5.1406,5.1406,5.1406,5.1406,5.1406,5.1406,5.1406,5.1406,5.1406,5.1406,5.1406,5.1406,5.1406,5.1406,5.1406,5.1406,5.1401,5.1397,5.139,5.1414,5.1406,5.1391,5.1366,5.1366,5.1378,5.1362,5.138,5.1375,5.1391,5.138,5.1383,5.1399,5.141,5.1414,4.755,4.8677,4.9965,5.0969,5.1202,5.1202,5.1202,5.1202,5.1202,5.1202,5.1202,5.1202,5.1202,5.1202,5.1202,5.1202,5.1202,5.1202,5.1202,5.1202,5.1202,5.1202,5.1202,5.1202,5.1202,5.1202,5.1202,5.1202,5.1202,5.1202,5.1202,5.1202,5.1202,5.1202,5.1202,5.1202,5.1202,5.1202,5.1202,5.1202,5.1202,5.1202,5.1202,5.1202,5.1202,5.1202,5.1202,5.1202,5.1202,5.1202,5.1202,5.1202,5.1202,5.1202,5.1202,5.1202,5.1202,5.1202,5.1202,5.1202,5.1202,5.1202,5.1139,5.1102,5.1107,5.1034,5.102,5.1069,5.1107,5.1109,5.1161,5.1252,5.1297,5.1297,5.1357,5.1406,5.1406,5.1406,5.1406,5.1406,5.1406,5.1406,5.1406,5.1406,5.1406,5.1406,5.1406,5.1406,5.1406,5.1406,5.1406,5.1406,5.1406,5.1406,5.1406,5.1395,5.1416,5.1414,5.133,5.1292,5.1328,5.1328,5.1292,5.1296,5.1292,5.13,5.132,5.1369,5.1383,5.1399,5.141,5.1414,4.7745,4.8949,5.012,5.0969,5.1202,5.1202,5.1202,5.1202,5.1202,5.1202,5.1202,5.1202,5.1202,5.1202,5.1202,5.1202,5.1202,5.1202,5.1202,5.1202,5.1202,5.1202,5.1202,5.1202,5.1202,5.1202,5.1202,5.1202,5.1202,5.1202,5.1202,5.1202,5.1202,5.1202,5.1202,5.1202,5.1202,5.1202,5.1202,5.1202,5.1202,5.1202,5.1202,5.1202,5.1202,5.1202,5.1202,5.1202,5.1202,5.1202,5.1202,5.1202,5.1202,5.1202,5.1202,5.1202,5.1202,5.1202,5.1202,5.1202,5.1202,5.1202,5.1166,5.1082,5.1101,5.1075,5.1069,5.1074,5.1138,5.1225,5.1255,5.1301,5.1361,5.1361,5.1366,5.1406,5.1406,5.1406,5.1406,5.1406,5.1406,5.1406,5.1406,5.1406,5.1406,5.1406,5.1406,5.1406,5.1406,5.1405,5.1404,5.1404,5.14,5.1394,5.1385,5.1406,5.1386,5.133,5.1339,5.132,5.132,5.132,5.132,5.132,5.132,5.1285,5.1296,5.1314,5.1372,5.1386,5.1399,5.1408,4.7861,4.8755,4.9493,5.0581,5.0853,5.093,5.1163,5.1202,5.1202,5.1202,5.1202,5.1202,5.1202,5.1202,5.1202,5.1202,5.1202,5.1202,5.1202,5.1202,5.1202,5.1202,5.1202,5.1202,5.1202,5.1202,5.1202,5.1202,5.1202,5.1202,5.1202,5.1202,5.1202,5.1202,5.1202,5.1202,5.1202,5.1202,5.1202,5.1202,5.1202,5.1202,5.1202,5.1202,5.1202,5.1202,5.1202,5.1202,5.1202,5.1202,5.1202,5.1202,5.1202,5.1202,5.1202,5.1202,5.1202,5.1202,5.1202,5.1202,5.1202,5.1202,5.1178,5.1114,5.1114,5.1119,5.1136,5.1162,5.1229,5.1299,5.1309,5.1363,5.1406,5.1406,5.1406,5.1406,5.1406,5.1406,5.1406,5.1406,5.1406,5.1406,5.1406,5.1406,5.1406,5.1406,5.1406,5.1406,5.1406,5.1401,5.1394,5.1394,5.1384,5.1408,5.1389,5.1417,5.1362,5.1335,5.1324,5.132,5.132,5.132,5.132,5.132,5.132,5.132,5.132,5.1303,5.132,5.1414,5.1391,5.1403,4.7123,4.7395,4.7822,4.9537,4.9965,5.0198,5.1008,5.1202,5.1202,5.1202,5.1202,5.1202,5.1202,5.1202,5.1202,5.1202,5.1202,5.1202,5.1202,5.1202,5.1202,5.1202,5.1202,5.1202,5.1202,5.1202,5.1202,5.1202,5.1202,5.1202,5.1202,5.1202,5.1202,5.1202,5.1202,5.1202,5.1202,5.1202,5.1202,5.1202,5.1202,5.1202,5.1202,5.1202,5.1202,5.1202,5.1202,5.1202,5.1202,5.1202,5.1202,5.1202,5.1202,5.1202,5.1202,5.1202,5.1202,5.1202,5.1202,5.1202,5.1202,5.1202,5.1197,5.1201,5.1201,5.1195,5.1211,5.1277,5.1293,5.1306,5.1366,5.1406,5.1406,5.1406,5.1406,5.1406,5.1406,5.1406,5.1406,5.1406,5.1406,5.1406,5.1406,5.1406,5.1406,5.1406,5.1404,5.1399,5.1399,5.1387,5.1416,5.1416,5.1414,5.1414,5.1412,5.1391,5.1414,5.1411,5.1339,5.132,5.132,5.132,5.132,5.132,5.132,5.132,5.132,5.1303,5.132,5.1414,5.1391,5.1403,4.7045,4.7312,4.7589,4.8755,4.9499,4.9965,5.027,5.0814,5.1202,5.1202,5.1202,5.1202,5.1202,5.1202,5.1202,5.1202,5.1202,5.1202,5.1202,5.1202,5.1202,5.1202,5.1202,5.1202,5.1202,5.1202,5.1202,5.1202,5.1202,5.1202,5.1202,5.1202,5.1202,5.1202,5.1202,5.1202,5.1202,5.1202,5.1202,5.1202,5.1202,5.1202,5.1202,5.1202,5.1202,5.1202,5.1202,5.1202,5.1202,5.1202,5.1202,5.1202,5.1202,5.1202,5.1202,5.1202,5.1202,5.1202,5.1202,5.1202,5.1214,5.1211,5.1181,5.1181,5.1203,5.1245,5.1274,5.1293,5.1313,5.1364,5.1406,5.1406,5.1406,5.1406,5.1406,5.1406,5.1404,5.1405,5.1406,5.1406,5.1406,5.1406,5.1406,5.1405,5.1403,5.1403,5.1395,5.1385,5.1385,5.1406,5.1391,5.1391,5.1372,5.132,5.132,5.1349,5.1342,5.1342,5.1328,5.132,5.132,5.132,5.132,5.132,5.132,5.132,5.132,5.1289,5.1303,5.132,5.1378,5.1391,4.6696,4.6851,4.7084,4.7939,4.8599,4.9182,4.9771,5.0348,5.0853,5.1125,5.1202,5.1202,5.1202,5.1202,5.1202,5.1202,5.1202,5.1202,5.1202,5.1202,5.1202,5.1202,5.1202,5.1202,5.1202,5.1202,5.1202,5.1202,5.1202,5.1202,5.1202,5.1202,5.1202,5.1202,5.1202,5.1202,5.1202,5.1202,5.1202,5.1202,5.1202,5.1202,5.1202,5.1202,5.1202,5.1202,5.1202,5.1202,5.1202,5.1202,5.1202,5.1202,5.1202,5.1202,5.1202,5.1202,5.1202,5.1202,5.1202,5.1186,5.119,5.1213,5.1246,5.131,5.1623,5.1728,5.1822,5.2135,5.2223,5.2266,5.2266,5.207,5.1835,5.1833,5.1598,5.1401,5.1394,5.1401,5.1405,5.1403,5.1402,5.1402,5.1402,5.1397,5.1393,5.1393,5.1416,5.1403,5.1403,5.1378,5.1356,5.1356,5.1335,5.132,5.132,5.132,5.132,5.132,5.132,5.132,5.132,5.132,5.132,5.132,5.132,5.132,5.132,5.132,5.1296,5.132,5.1369,5.1362,0.0,0.0,0.0,4.7045,4.7273,4.7745,4.946,4.9848,5.0159,5.1008,5.1163,5.1202,5.1202,5.1202,5.1202,5.1202,5.1202,5.1202,5.1202,5.1202,5.1202,5.1202,5.1202,5.1202,5.1202,5.1202,5.1202,5.1202,5.1202,5.1202,5.1202,5.1202,5.1202,5.1202,5.1202,5.1202,5.1202,5.1202,5.1202,5.1202,5.1202,5.1202,5.1202,5.1202,5.1202,5.1202,5.1202,5.1202,5.1202,5.1202,5.1202,5.1202,5.1202,5.1202,5.1196,5.1202,5.1202,5.1202,5.1202,5.1201,5.1242,5.1226,5.1344,5.1632,5.2486,5.273,5.2891,5.375,5.3984,5.3984,5.3984,5.3357,5.2723,5.2745,5.2075,5.1453,5.1451,5.1467,5.1433,5.1418,5.1414,5.1414,5.1414,5.1414,5.1412,5.1412,5.1391,5.1411,5.1411,5.1342,5.132,5.132,5.132,5.132,5.132,5.132,5.132,5.132,5.132,5.132,5.132,5.132,5.132,5.132,5.132,5.132,5.132,5.132,5.1339,5.1411,5.1411,5.1234,4.6002,0.0,0.0,0.0,0.0,0.0,4.79,4.8988,4.9965,5.0198,5.0775,5.1202,5.1202,5.1202,5.1202,5.1202,5.1202,5.1202,5.1202,5.1202,5.1202,5.1202,5.1202,5.1202,5.1202,5.1202,5.1202,5.1202,5.1202,5.1202,5.1202,5.1202,5.1202,5.1202,5.1202,5.1202,5.1202,5.1202,5.1202,5.1202,5.1202,5.1202,5.1202,5.1202,5.1202,5.1202,5.1202,5.1202,5.1202,5.1202,5.1202,5.1202,5.1202,5.119,5.1133,5.119,5.1192,5.119,5.1211,5.162,5.223,5.2266,5.2713,5.3271,5.3554,5.3633,5.3672,5.3945,5.3983,5.3978,5.393,5.3766,5.3565,5.3559,5.3362,5.3201,5.3223,5.2718,5.2104,5.1529,5.1414,5.1414,5.1414,5.1399,5.1386,5.1386,5.1359,5.1335,5.1335,5.1328,5.132,5.132,5.132,5.132,5.132,5.132,5.132,5.132,5.132,5.132,5.132,5.132,5.132,5.132,5.132,5.132,5.132,5.132,5.1324,5.1335,5.1265,5.1172,4.5493,4.576,4.5954,4.559,0.0,0.0,4.7667,4.8638,4.9571,5.027,5.0853,5.1202,5.1202,5.1202,5.1202,5.1202,5.1202,5.1202,5.1202,5.1202,5.1202,5.1202,5.1202,5.1202,5.1202,5.1202,5.1202,5.1202,5.1202,5.1202,5.1202,5.1202,5.1202,5.1202,5.1202,5.1202,5.1202,5.1202,5.1202,5.1202,5.1202,5.1202,5.1202,5.1202,5.1202,5.1202,5.1202,5.1202,5.1202,5.1202,5.1202,5.1196,5.1184,5.1133,5.1127,5.1181,5.118,5.1259,5.1663,5.2152,5.2704,5.3077,5.3553,5.4023,5.4408,5.4484,5.4564,5.4954,5.5027,5.5017,5.4994,5.4713,5.4438,5.4423,5.4147,5.391,5.3891,5.3494,5.2916,5.2041,5.1615,5.1344,5.1344,5.1366,5.1353,5.1353,5.1335,5.132,5.132,5.132,5.132,5.132,5.132,5.132,5.132,5.132,5.132,5.132,5.132,5.132,5.132,5.132,5.132,5.132,5.132,5.132,5.132,5.132,5.1328,5.1342,5.1252,5.1113,4.488,4.5378,4.5758,4.4996,4.5323,0.0,4.7822,4.8322,4.8899,5.0458,5.0847,5.0924,5.093,5.093,5.093,5.093,5.1008,5.1086,5.1202,5.1202,5.1202,5.1202,5.1202,5.1202,5.1202,5.1202,5.1202,5.1202,5.1202,5.1202,5.1202,5.1202,5.1202,5.1202,5.1202,5.1202,5.1202,5.1202,5.1202,5.1202,5.1202,5.1202,5.1202,5.1202,5.1202,5.1202,5.1202,5.1202,5.1202,5.1196,5.1196,5.1196,5.1127,5.1082,5.1107,5.1185,5.1259,5.1481,5.2302,5.2784,5.3121,5.3827,5.4177,5.4392,5.5125,5.5355,5.5511,5.6289,5.6484,5.6516,5.6488,5.5932,5.534,5.5342,5.4749,5.4203,5.4203,5.4126,5.381,5.3034,5.2177,5.1554,5.1476,5.1437,5.1398,5.132,5.132,5.132,5.132,5.132,5.132,5.132,5.132,5.132,5.132,5.132,5.132,5.132,5.132,5.132,5.132,5.132,5.132,5.132,5.1281,5.1285,5.1285,5.1281,5.1335,5.1362,5.1226,5.1108,4.5243,4.4958,4.5023,4.4824,4.4866,0.0,4.5375,4.6502,4.7559,4.7977,4.8604,4.9114,4.9099,4.9104,4.9104,4.9104,4.9687,5.0386,5.1086,5.1202,5.1202,5.1202,5.1202,5.1202,5.1202,5.1202,5.1202,5.1202,5.1202,5.1202,5.1202,5.1202,5.1202,5.1202,5.1202,5.1202,5.1202,5.1202,5.1202,5.1202,5.1202,5.1202,5.1202,5.1202,5.1202,5.1202,5.1202,5.1202,5.1196,5.1133,5.1139,5.1196,5.1127,5.1125,5.1185,5.1206,5.1674,5.2374,5.2589,5.3629,5.4801,5.4995,5.5454,5.6023,5.6216,5.6252,5.6289,5.6461,5.6494,5.6485,5.6488,5.6363,5.6242,5.6234,5.6117,5.6,5.6,5.545,5.4901,5.4745,5.4004,5.319,5.2489,5.2333,5.2099,5.1398,5.132,5.132,5.132,5.132,5.132,5.132,5.132,5.132,5.132,5.132,5.132,5.132,5.132,5.132,5.132,5.132,5.132,5.132,5.1296,5.1307,5.1307,5.1289,5.1265,5.1234,5.1092,5.0991,4.4621,4.4214,4.4082,4.3677,4.3843,0.0,0.0,4.6069,4.6892,4.7763,4.8287,4.861,4.8565,4.8559,4.8559,4.8577,4.932,4.987,4.992,5.0658,5.1202,5.1202,5.1202,5.1202,5.1202,5.1202,5.1202,5.1202,5.1202,5.1202,5.1202,5.1202,5.1202,5.1202,5.1202,5.1202,5.1202,5.1202,5.1202,5.1202,5.1202,5.1202,5.1202,5.1202,5.1202,5.1202,5.1202,5.1202,5.1196,5.1145,5.1153,5.1186,5.112,5.1114,5.1201,5.1713,5.2211,5.272,5.367,5.4567,5.5329,5.5749,5.6167,5.6506,5.6491,5.6485,5.6482,5.6503,5.6496,5.6492,5.6511,5.6507,5.6507,5.6507,5.6507,5.6507,5.6507,5.6152,5.584,5.584,5.5489,5.4788,5.3463,5.3268,5.2957,5.2099,5.1943,5.1787,5.1359,5.132,5.132,5.132,5.132,5.132,5.132,5.132,5.132,5.132,5.132,5.132,5.132,5.132,5.132,5.132,5.1303,5.1314,5.1314,5.131,5.1346,5.1292,5.1086,5.0984,4.376,4.3353,4.3182,4.2513,4.2964,4.3902,0.0,0.0,0.0,4.7635,4.8004,4.8115,4.8033,4.8055,4.7939,4.7678,4.8594,4.8988,4.8015,4.9499,5.0685,5.0697,5.1008,5.1125,5.0969,5.0969,5.1008,5.1202,5.1047,5.1008,5.1202,5.1202,5.1202,5.1202,5.1202,5.1202,5.1202,5.1202,5.1202,5.1202,5.1202,5.1202,5.1202,5.1214,5.122,5.1181,5.1214,5.119,5.119,5.1201,5.1265,5.1447,5.136,5.1381,5.1511,5.2462,5.2961,5.332,5.4759,5.5366,5.5577,5.6257,5.6517,5.6507,5.6515,5.6507,5.6507,5.6507,5.6507,5.6507,5.6507,5.6507,5.6507,5.6507,5.6507,5.6507,5.6507,5.6507,5.6507,5.6507,5.6507,5.6,5.4437,5.416,5.3849,5.2995,5.284,5.2606,5.1904,5.1632,5.1554,5.1554,5.1398,5.132,5.132,5.132,5.132,5.132,5.132,5.132,5.132,5.132,5.132,5.132,5.1307,5.1317,5.1317,5.1372,5.1378,5.1375,5.1114,5.1004,4.3378,4.2546,4.2507,4.2428,4.301,4.3433,4.2872,0.0,4.5865,4.5324,0.0,4.6376,4.6362,0.0,0.0,4.4412,4.6103,4.7056,4.5524,4.7315,4.8812,4.8905,5.027,5.0891,5.012,5.0042,5.0386,5.1125,5.0464,5.0386,5.1163,5.1202,5.1202,5.1202,5.1202,5.1202,5.1202,5.1202,5.1202,5.1202,5.1202,5.1202,5.1202,5.1214,5.1201,5.1206,5.1206,5.1201,5.1204,5.1146,5.1585,5.225,5.2259,5.2335,5.2539,5.3359,5.4175,5.4935,5.5125,5.5694,5.6371,5.6485,5.6503,5.6511,5.6507,5.6507,5.6507,5.6507,5.6507,5.6507,5.6507,5.6507,5.6507,5.6507,5.6507,5.6507,5.6507,5.6507,5.6507,5.6507,5.6507,5.6195,5.5217,5.5056,5.4745,5.3888,5.3732,5.3732,5.3619,5.2918,5.245,5.245,5.1749,5.132,5.132,5.132,5.132,5.132,5.132,5.132,5.132,5.132,5.132,5.132,5.1356,5.1372,5.1372,5.1389,5.1323,5.123,5.1086,5.0932,4.3812,4.3492,4.3614,4.2593,4.2986,4.3501,4.3124,4.3515,4.3945,4.4023,0.0,0.0,0.0,0.0,0.0,0.0,4.6332,4.6943,4.5827,4.7381,4.8612,4.8633,4.9276,4.9747,4.9881,5.0348,5.0814,5.1163,5.0853,5.0814,5.1163,5.1202,5.1202,5.1202,5.1202,5.1202,5.1202,5.1202,5.1202,5.1202,5.1197,5.1214,5.1219,5.1207,5.1206,5.121,5.1192,5.1204,5.1241,5.1713,5.2148,5.2616,5.3593,5.3671,5.3397,5.4287,5.4853,5.5252,5.5762,5.6209,5.6492,5.6492,5.648,5.6507,5.6507,5.6507,5.6507,5.6507,5.6507,5.6507,5.6507,5.6507,5.6507,5.6507,5.6507,5.6507,5.6507,5.6507,5.6507,5.6507,5.6507,5.639,5.6035,5.5957,5.5645,5.4784,5.4667,5.4472,5.3966,5.358,5.3346,5.3346,5.3034,5.2606,5.2099,5.206,5.1826,5.132,5.132,5.132,5.132,5.132,5.132,5.132,5.1356,5.1414,5.1414,5.1399,5.1352,5.1307,5.1191,5.1092,4.4575,4.446,4.4467,4.2731,4.2968,4.3476,4.3015,4.3015,4.3181,4.3458,4.4402,0.0,0.0,0.0,4.5933,4.5498,0.0,4.6695,4.5644,4.6913,4.7972,4.8004,4.8175,4.8647,4.9489,5.0155,5.0612,5.082,5.082,5.0964,5.1202,5.1202,5.1202,5.1202,5.1202,5.1202,5.1202,5.122,5.1186,5.1186,5.1206,5.1204,5.1195,5.1201,5.1231,5.1201,5.1444,5.1555,5.1637,5.2493,5.3027,5.3391,5.4643,5.4892,5.4633,5.5309,5.5552,5.5649,5.6273,5.6492,5.6507,5.6507,5.6507,5.6507,5.6507,5.6507,5.6507,5.6507,5.6507,5.6507,5.6507,5.6507,5.6507,5.6507,5.6507,5.6507,5.6507,5.6507,5.6507,5.6507,5.6507,5.6507,5.6507,5.6507,5.6273,5.5645,5.5567,5.5333,5.471,5.4398,5.4277,5.4277,5.4043,5.3658,5.2995,5.2957,5.2567,5.171,5.1437,5.132,5.132,5.132,5.132,5.132,5.1353,5.1372,5.1414,5.1399,5.1408,5.1401,5.1261,5.1187,4.5541,4.4881,4.4492,4.2737,4.2949,4.3175,4.1548,4.3062,4.4585,4.3764,4.4975,4.6157,4.615,4.6155,4.5655,0.0,4.5113,0.0,0.0,4.5116,4.6136,4.6267,4.7036,4.7858,4.8652,4.8774,4.9109,4.987,4.9952,5.0309,5.1169,5.1202,5.1202,5.1202,5.1202,5.1202,5.1202,5.1219,5.1206,5.1206,5.1256,5.1278,5.1217,5.1274,5.1249,5.1242,5.2074,5.2469,5.2522,5.3394,5.4276,5.5034,5.5134,5.5688,5.6437,5.6433,5.6472,5.6468,5.6507,5.6507,5.6507,5.6507,5.6507,5.6507,5.6507,5.6507,5.6507,5.6507,5.6507,5.6507,5.6507,5.6507,5.6507,5.6507,5.6507,5.6507,5.6507,5.6507,5.6507,5.6507,5.6507,5.6507,5.6507,5.6507,5.6507,5.6468,5.6468,5.6468,5.6429,5.5684,5.5173,5.5173,5.4394,5.3888,5.3849,5.3849,5.3502,5.2606,5.1787,5.132,5.132,5.132,5.132,5.132,5.1303,5.132,5.1414,5.1391,5.1403,5.1412,5.1278,5.1191,4.7008,4.7442,4.7765,4.5459,4.5528,4.5597,4.3296,4.3438,4.3796,4.2939,4.4111,4.5326,4.5339,4.5806,4.6011,0.0,0.0,4.5987,0.0,4.5809,4.613,4.6171,4.6947,4.7557,4.7799,4.886,4.9604,4.9868,5.0421,5.0874,5.118,5.118,5.124,5.1273,5.1273,5.1273,5.1273,5.1291,5.1246,5.1219,5.1284,5.1275,5.1211,5.1229,5.155,5.2071,5.2324,5.2806,5.3428,5.4295,5.4855,5.5243,5.5836,5.6234,5.6507,5.6507,5.6507,5.6507,5.6507,5.6507,5.6507,5.6507,5.6507,5.6507,5.6507,5.6507,5.6507,5.6507,5.6507,5.6507,5.6507,5.6507,5.6507,5.6507,5.6507,5.6507,5.6507,5.6507,5.6507,5.6507,5.6507,5.6507,5.6507,5.6507,5.6507,5.6507,5.6507,5.6507,5.6507,5.6234,5.6074,5.6074,5.5801,5.5372,5.4823,5.4238,5.3771,5.3463,5.319,5.2762,5.2177,5.2177,5.1904,5.132,5.1303,5.132,5.1414,5.1391,5.1403,5.1414,5.1357,5.1336,4.8652,4.9242,4.9563,4.7223,4.7055,4.6885,4.4568,4.4267,4.4331,4.3785,4.4575,4.5549,4.6158,4.6208,4.63,0.0,0.0,0.0,0.0,4.6199,4.6199,4.6199,4.6672,4.7109,4.742,4.8395,4.9281,4.9905,5.0416,5.086,5.1185,5.1203,5.1206,5.1242,5.1266,5.1266,5.1242,5.1277,5.1224,5.1204,5.1288,5.1441,5.165,5.1668,5.2122,5.2991,5.3236,5.3697,5.4324,5.519,5.5609,5.5723,5.6273,5.6507,5.6507,5.6507,5.6507,5.6507,5.6507,5.6507,5.6507,5.6507,5.6507,5.6507,5.6507,5.6507,5.6507,5.6507,5.6507,5.6507,5.6507,5.6507,5.6507,5.6507,5.6507,5.6507,5.6507,5.6507,5.6507,5.6507,5.6507,5.6507,5.6507,5.6507,5.6507,5.6507,5.6507,5.6507,5.6507,5.6507,5.6507,5.6507,5.6507,5.6273,5.5723,5.4866,5.4355,5.4355,5.4082,5.3654,5.3073,5.3073,5.2801,5.2255,5.1916,5.1782,5.1843,5.1542,5.1399,5.1414,5.1414,5.1401]}]]